     2.11           OBSERVATION DATA    G (GPS)             RINEX VERSION / TYPE
teqc 2010Oct21 OPUS Account 20111027 17:20:50UTC            PGM / RUN BY / DATE
U 1525                                                      MARKER NAME
3029                                                        MARKER NUMBER
CSMIDDLETON NGS                                             OBSERVER / AGENCY
0220390632 TRIMBLE R7 2.28                                  REC # / TYPE / VERS
11909788 TRM41249.00 NONE                                   ANT # / TYPE
  -759591.4782 -5555909.3049  3028931.9360                  APPROX POSITION XYZ
        1.9990        0.0000        0.0000                  ANTENNA: DELTA H/E/N
     1     1                                                WAVELENGTH FACT L1/2
     5    L1    L2    C1    P1    P2                        # / TYPES OF OBSERV
    15                                                      LEAP SECONDS
  2011     8    17    16    37   30.0000000     GPS         TIME OF FIRST OBS
                                                            END OF HEADER
 11  8 17 16 37 30.0000000  0 11G03G06G07G08G10G11G13G16G19G23G28
    362863.29357    262512.77754  21443298.3524                   21443296.6254
    411871.69956    296796.61353  23292557.8284                   23292556.1254
   -151081.32057   -115654.42655  21873395.0704                   21873392.1174
   -201081.53956   -151235.97753  23734176.6174                   23734175.1524
    204930.03555    145273.00052  24072029.9064                   24072028.8054
   -234387.97356   -175832.65653  24423984.0944                   24423984.0434
    148508.79757    106010.44556  20099139.6094                   20099136.3674
    466592.78956    336640.64853  23862324.4844                   23862322.4964
     28741.08657     16915.84455  21009436.9224                   21009432.7464
    399203.78557    290133.62555  20827677.1804                   20827672.7974
   -197849.55556   -155564.58252  24307344.9144                   24307343.8094
 11  8 17 16 38  0.0000000  0 11G03G06G07G08G10G11G13G16G19G23G28
    444474.02747    326105.52044  21458828.9694                   21458826.9694
    511081.83246    374103.15243  23311436.9614                   23311434.4304
   -183937.45747   -141256.60245  21867143.0314                   21867139.5824
   -248699.90246   -188341.16943  23725114.8984                   23725113.9104
    255006.81646    184293.82443  24081559.8204                   24081558.8794
   -290007.46946   -219172.35242  24413398.9924                   24413399.8594
    183151.82047    133004.98846  20105732.0234                   20105728.7034
    577767.83646    423270.49243  23883480.1884                   23883478.5984
     37004.80947     23355.10245  21011009.6254                   21011005.4024
    488834.99247    359976.06345  20844733.7114                   20844729.4384
   -243888.12146   -191438.71143  24298584.2504                   24298583.5004
 11  8 17 16 38 30.0000000  0 11G03G06G07G08G10G11G13G16G19G23G28
    526822.62147    390273.28144  21474498.8594                   21474496.7464
    610869.79746    451860.02043  23330425.7114                   23330424.5824
   -216521.04747   -166646.34845  21860942.5004                   21860938.8524
   -296164.76146   -225326.67443  23716082.4534                   23716081.5314
    305684.41446    223782.87543  24091202.1804                   24091201.8054
   -345501.73846   -262414.53142  24402838.6644                   24402839.5984
    218602.57047    160628.96946  20112477.1414                   20112474.6054
    689121.74646    510039.75443  23904670.9224                   23904669.4184
     46092.22747     30436.26245  21012738.8524                   21012734.7974
    579164.26647    430362.51245  20861922.6954                   20861918.2734
   -289490.14846   -226972.66043  24289906.5944                   24289905.0044
 11  8 17 16 39  0.0000000  0 11G03G06G07G08G10G11G13G16G19G23G28
    609930.40647    455032.57444  21490314.2034                   21490311.8874
    711256.28146    530083.19543  23349527.9844                   23349527.1214
   -248807.43047   -191804.56245  21854798.6094                   21854795.9614
   -343452.62446   -262174.32243  23707083.7504                   23707082.4574
    356984.30146    263756.73843  24100964.6254                   24100963.3404
   -400844.94146   -305539.03142  24392308.0004                   24392307.4534
    254884.47347    188900.54746  20119382.0864                   20119379.0394
    800676.42646    596965.39842  23925898.7424                   23925897.0084
     56027.12947     38177.74645  21014629.6254                   21014625.1804
    670212.61747    501309.21545  20879248.2584                   20879244.1884
   -334632.18746   -262148.20743  24281315.8754                   24281314.8094
 11  8 17 16 39 30.0000000  0 11G03G06G07G08G10G11G13G16G19G23G28
    693772.33247    520363.94544  21506268.6094                   21506266.3524
    812216.56346    608753.51243  23368740.9384                   23368739.5124
   -280818.54347   -216748.29345  21848707.1174                   21848704.1764
   -390585.93046   -298901.56243  23698115.0704                   23698112.9614
    408881.60545    304196.14543  24110840.9924                   24110840.3874
   -456057.41845   -348561.68442  24381800.9534                   24381802.1254
    291975.16047    217802.35946  20126440.0394                   20126437.2734
    912408.07446    684028.94542  23947160.5474                   23947158.6954
     66787.82847     46562.71945  21016676.7894                   21016672.9064
    761955.86347    572797.40645  20896706.7504                   20896702.1844
   -379336.64546   -296982.82043  24272809.2424                   24272806.9964
 11  8 17 16 40  0.0000000  0 11G03G06G07G08G10G11G13G16G19G23G28
    778329.35247    586252.49244  21522358.7274                   21522357.0864
    913731.24246    687855.79743  23388058.8914                   23388056.7384
   -312570.14547   -241489.79745  21842665.1174                   21842662.0164
   -437581.85546   -335521.72743  23689172.1884                   23689170.5124
    461357.59046    345086.49643  24120827.4844                   24120825.8634
   -511153.38745   -391493.54342  24371317.8204                   24371317.2384
    329857.60247    247321.12146  20133649.1174                   20133646.1414
   1024298.60246    771216.33642  23968453.0004                   23968451.1484
     78358.07047     55578.49245  21018878.6804                   21018874.4384
    854375.14847    644812.38745  20914293.1334                   20914289.4774
   -423620.24646   -331489.50843  24264382.6334                   24264380.4224
 11  8 17 16 40 30.0000000  0 11G03G06G07G08G10G11G13G16G19G23G28
    863596.33647    652694.26644  21538584.9844                   21538582.7034
   1015795.14146    767386.05943  23407480.3364                   23407479.2114
   -344063.73847   -266030.27045  21836671.8444                   21836669.1724
   -484442.24246   -372036.28543  23680254.6644                   23680253.0164
    514407.27346    386423.87543  24130921.9774                   24130921.2424
   -566132.90645   -434334.62542  24360855.1254                   24360854.2234
    368529.48447    277455.03146  20141008.3054                   20141004.7304
   1136343.91046    858524.24242  23989774.1484                   23989772.8794
     90736.25447     65223.83645  21021234.3284                   21021230.1134
    947465.78147    717350.48845  20932008.1254                   20932003.9804
   -467485.22346   -365669.92642  24256034.1804                   24256033.4774
 11  8 17 16 41  0.0000000  0 11G03G06G07G08G10G11G13G16G19G23G28
    949563.48847    719681.64144  21554944.0554                   21554941.9184
   1118398.47346    847336.66443  23427004.8444                   23427003.8484
   -375305.92647   -290374.83645  21830726.8204                   21830723.8674
   -531173.95346   -408450.59443  23671361.8914                   23671360.1684
    568021.00446    428200.73443  24141124.2894                   24141123.4574
   -621001.01245   -477088.93442  24350413.3594                   24350412.5164
    407983.24247    308198.19546  20148515.5234                   20148512.9064
   1248534.59046    945945.50842  24011123.1254                   24011121.3444
    103915.10947     75493.06645  21023742.5474                   21023737.8484
   1041218.64147    790404.60245  20949849.0394                   20949844.7544
   -510939.30546   -399530.18442  24247765.1484                   24247763.9024
 11  8 17 16 41 30.0000000  0 11G03G06G07G08G10G11G13G16G19G23G28
   1036203.04347    787192.95744  21571431.6954                   21571429.6564
   1221513.30546    927685.83643  23446627.5634                   23446626.2584
   -406321.27047   -314542.64145  21824824.9384                   21824821.8364
   -577802.63346   -444784.64843  23662488.6484                   23662486.9224
    622171.33246    470395.75043  24151428.1724                   24151428.2814
   -675780.76245   -519774.35942  24339988.7894                   24339989.5274
    448193.22747    339530.61746  20156167.1484                   20156164.5004
   1360844.28546   1033459.49243  24032496.1804                   24032493.2974
    117869.82047     86366.88345  21026397.5084                   21026392.9924
   1135605.91847    863953.07445  20967809.4144                   20967806.0664
   -554007.55146   -433089.83242  24239569.9844                   24239568.3714
 11  8 17 16 42  0.0000000  0 11G03G06G07G08G10G11G13G16G19G23G28
   1123509.28947    855223.77344  21588044.5634                   21588042.9694
   1325133.66446   1008428.92643  23466345.8054                   23466345.0044
   -437112.18447   -338535.55945  21818964.9694                   21818962.7074
   -624331.44146   -481040.82843  23653634.8984                   23653633.1914
    676852.16046    513004.12943  24161835.4694                   24161833.7344
   -730472.96545   -562391.56242  24329580.7814                   24329581.5984
    489155.99647    371449.63346  20163963.0164                   20163959.8484
   1473268.10546   1121062.42242  24053890.0634                   24053886.8674
    132597.41447     97842.92245  21029199.7974                   21029195.5784
   1230622.19947    937991.67645  20985890.9224                   20985886.8164
   -596693.81646   -466351.84042  24231447.9384                   24231444.9964
 11  8 17 16 42 30.0000000  0 11G03G06G07G08G10G11G13G16G19G23G28
   1211471.00847    923765.34844  21604783.2584                   21604781.4144
   1429248.36346   1089557.19943  23486158.1954                   23486157.0824
   -467686.36347   -362359.59445  21813147.5704                   21813144.3874
   -670768.59846   -517225.59843  23644797.5554                   23644796.3874
    732052.84446    556017.59043  24172338.1564                   24172337.6764
   -785083.62145   -604945.26642  24319189.5864                   24319188.1954
    530862.70347    403948.34846  20171898.8674                   20171896.0084
   1585796.05545   1208746.44942  24075302.7974                   24075300.1564
    148089.86747    109914.95745  21032148.1414                   21032144.0044
   1326256.90247   1012512.17645  21004089.9224                   21004085.7974
   -639006.05546   -499322.35542  24223395.6414                   24223393.3164
 11  8 17 16 43  0.0000000  0 11G03G06G07G08G10G11G13G16G19G23G28
   1300070.41447    992803.82044  21621643.0704                   21621641.7034
   1533839.57446   1171056.80543  23506061.3914                   23506060.2194
   -498057.98447   -386025.79345  21807367.6954                   21807364.9264
   -717129.34846   -553350.82043  23635975.6414                   23635973.6484
    787755.81646    599422.45743  24182938.5164                   24182938.4454
   -839625.96146   -647445.62942  24308810.7894                   24308810.0704
    573297.77347    437014.61346  20179974.3054                   20179971.1564
   1698411.37545   1296498.62542  24096732.9844                   24096730.4494
    164332.43047    122571.50445  21035239.3364                   21035234.8754
   1422492.31347   1087500.74645  21022402.7274                   21022398.5434
   -680960.12146   -532013.78942  24215411.6254                   24215408.9064
 11  8 17 16 43 30.0000000  0 11G03G06G07G08G10G11G13G16G19G23G28
   1389303.40247   1062336.01644  21638623.6094                   21638621.6914
   1638902.82046   1252924.19943  23526053.7974                   23526052.8164
   -528228.30147   -409535.13745  21801626.5004                   21801623.1644
   -763415.24246   -589417.72343  23627167.9224                   23627165.5204
    843956.66446    643215.25043  24193633.2584                   24193633.0234
   -894099.24645   -689892.25042  24298443.4844                   24298443.2274
    616459.45747    470647.07445  20188187.3284                   20188184.6024
   1811110.82046   1384316.31642  24118179.4844                   24118176.5704
    181323.22747    135811.08245  21038472.5234                   21038468.0164
   1519324.45347   1162954.31645  21040828.6644                   21040825.1604
   -722557.84046   -564427.56242  24207494.7114                   24207493.1414
 11  8 17 16 44  0.0000000  0 11G03G06G07G08G10G11G13G16G19G23G28
   1479151.44547   1132347.43444  21655721.2814                   21655719.7504
   1744419.56346   1335145.00843  23546133.4844                   23546131.8134
   -558212.26247   -432899.26245  21795920.6884                   21795917.4184
   -809641.98446   -625438.50043  23618370.9694                   23618368.8554
    900636.72746    687381.49643  24204420.1254                   24204419.7464
   -948516.84046   -732295.44542  24288088.8984                   24288088.1054
    660331.20747    504832.84046  20196536.2664                   20196532.9534
   1923876.49245   1472185.59042  24139637.6884                   24139634.6374
    199046.47347    149621.39545  21041845.2034                   21041840.8364
   1616735.14847   1238858.70345  21059366.3524                   21059361.8324
   -763815.31245   -596576.18742  24199645.2274                   24199642.9144
 11  8 17 16 44 30.0000000  0 11G03G06G07G08G10G11G13G16G19G23G28
   1569611.27747   1202835.59044  21672935.5864                   21672933.5394
   1850386.50846   1417716.60543  23566298.5554                   23566296.6844
   -588009.23047   -456117.67645  21790250.9614                   21790247.6484
   -855809.91846   -661413.50043  23609585.5944                   23609583.2854
    957793.22746    731918.94943  24215296.1804                   24215295.8634
  -1002877.11346   -774653.99242  24277743.6724                   24277744.5514
    704912.16847    539571.22346  20205019.7034                   20205016.2194
   2036706.61345   1560105.10942  24161107.6804                   24161105.2034
    217502.17247    164002.45345  21045356.8754                   21045353.1374
   1714721.16847   1315211.39545  21078012.3524                   21078007.6764
   -804733.03545   -628460.07842  24191858.3754                   24191857.1804
 11  8 17 16 45  0.0000000  0 11G03G06G07G08G10G11G13G16G19G23G28
   1660665.31647   1273786.77044  21690262.3834                   21690260.2304
   1956786.28546   1500625.49243  23586544.9064                   23586543.3364
   -617633.42247   -479201.46145  21784613.2274                   21784610.1454
   -901933.70346   -697354.10243  23600808.8284                   23600806.7074
   1015408.95746    776814.27343  24226260.0704                   24226259.4694
  -1057192.15246   -816977.34443  24267408.2034                   24267408.2034
    750187.06347    574850.34045  20213635.2344                   20213632.1174
   2149585.24645   1648062.38342  24182587.7664                   24182585.8794
    236675.73447    178942.90245  21049005.7274                   21049001.1724
   1813266.44547   1391999.88345  21096765.1024                   21096760.7584
   -845326.11346   -660090.98843  24184134.1484                   24184132.6564
 11  8 17 16 45 30.0000000  0 11G03G06G07G08G10G11G13G16G19G23G28
   1752302.99647   1345192.72344  21707699.8674                   21707698.4654
   2063608.36746   1583863.42243  23606872.8284                   23606871.5394
   -647091.59447   -502155.86745  21779007.0474                   21779004.5864
   -948020.97346   -733266.21143  23592038.8204                   23592036.8634
   1073473.44146    822059.24643  24237309.8054                   24237308.6724
  -1111467.81246   -859269.98042  24257079.1564                   24257078.9304
    796147.82847    610663.89546  20222381.4534                   20222378.2774
   2262503.21945   1736050.36342  24204076.8054                   24204072.7194
    256559.58247    194436.80945  21052789.3754                   21052785.9694
   1912359.95347   1469215.55545  21115621.5474                   21115617.0744
   -885602.53145   -691475.12943  24176469.8834                   24176467.6294
 11  8 17 16 46  0.0000000  0 11G03G06G07G08G10G11G13G16G19G23G28
   1844522.93047   1417052.38344  21725249.2034                   21725247.7424
   2170850.72346   1667428.80543  23627281.3054                   23627279.5904
   -676382.20347   -524979.71545  21773433.4064                   21773430.9574
   -994070.68746   -769149.07443  23583274.8834                   23583272.9264
   1131985.36746    867652.89543  24248443.4224                   24248442.8794
  -1165700.62146   -901529.21542  24246760.1644                   24246758.3914
    842794.74647    647012.12145  20231257.7504                   20231254.3204
   2375459.34445   1824068.06642  24225571.1254                   24225568.3404
    277154.38747    210484.69545  21056708.6334                   21056704.1294
   2012000.65247   1546857.60245  21134582.6254                   21134578.4844
   -925561.54746   -722611.96943  24168865.4534                   24168864.2934
 11  8 17 16 46 30.0000000  0 11G03G06G07G08G10G11G13G16G19G23G28
   1937315.49647   1489358.24244  21742907.1564                   21742905.0474
   2278503.71946   1751314.26243  23647766.2584                   23647764.9924
   -705511.41447   -547677.78945  21767890.5634                   21767887.6414
  -1040089.81246   -805008.11743  23574517.7974                   23574515.7074
   1190935.01246    913587.61343  24259661.4774                   24259660.7734
  -1219895.47346   -943758.90242  24236446.4614                   24236446.3364
    890120.08647    683888.99245  20240263.2274                   20240260.2034
   2488445.10545   1912108.85542  24247071.2114                   24247068.8834
    298453.08647    227081.09045  21060761.7194                   21060757.0824
   2112178.64847   1624918.33645  21153646.2584                   21153642.0634
   -965210.54346   -753507.22343  24161320.7734                   24161319.0864
 11  8 17 16 47  0.0000000  0 11G03G06G07G08G10G11G13G16G19G23G28
   2030669.58647   1562101.65644  21760671.2894                   21760669.7894
   2386556.57046   1835511.24243  23668327.6094                   23668327.0204
   -734486.05547   -570255.41445  21762377.2194                   21762373.9264
  -1086085.92246   -840849.22743  23565766.0394                   23565763.7704
   1250311.56346    959854.99643  24270961.4614                   24270960.5084
  -1274057.64146   -985963.11742  24226140.1094                   24226139.5784
    938115.48847    721287.98046  20249396.9304                   20249393.6054
   2601451.19145   2000165.49242  24268575.2894                   24268573.3834
    320447.98847    244219.96945  21064946.8444                   21064942.4804
   2212883.83647   1703389.85545  21172809.4614                   21172805.2934
  -1004557.71946   -784167.28543  24153832.3204                   24153831.1334
 11  8 17 16 47 30.0000000  0 11G03G06G07G08G10G11G13G16G19G23G28
   2124581.05146   1635279.39144  21778541.8674                   21778540.3244
   2495005.48046   1920016.84843  23688964.7974                   23688963.9024
   -763306.71147   -592713.06645  21756892.4384                   21756889.7814
  -1132060.24646   -876673.31243  23557016.7274                   23557014.2544
   1310111.08646   1006451.96543  24282341.2894                   24282339.4304
  -1328186.07046  -1028141.06242  24215840.0474                   24215838.9534
    986779.08647    759207.64545  20258656.9144                   20258654.4104
   2714474.91045   2088235.85942  24290083.1724                   24290081.2464
    343138.04347    261900.53145  21069264.6024                   21069259.7894
   2314112.32447   1782269.15245  21192072.5864                   21192068.6054
  -1043604.68446   -814593.38343  24146402.9064                   24146400.6804
 11  8 17 16 48  0.0000000  0 11G03G06G07G08G10G11G13G16G19G23G28
   2219047.00847   1708889.18844  21796519.2664                   21796517.4734
   2603846.92246   2004828.34443  23709677.2274                   23709676.2384
   -791973.14847   -615050.54345  21751437.1644                   21751434.5164
  -1178013.24246   -912480.84043  23548272.7734                   23548270.1174
   1370330.82445   1053376.34043  24293799.6644                   24293798.6724
  -1382279.07446  -1070291.37542  24205546.4064                   24205545.9534
   1036109.87947    797647.21145  20268044.3204                   20268041.5274
   2827514.73045   2176318.77342  24311594.2974                   24311592.0474
    366522.16047    280121.91845  21073715.1334                   21073710.2194
   2415861.41447   1861554.10945  21211435.0784                   21211430.7814
  -1082351.90246   -844785.97343  24139028.0004                   24139027.3284
 11  8 17 16 48 30.0000000  0 11G03G06G07G08G10G11G13G16G19G23G28
   2314055.77347   1782921.96544  21814598.8674                   21814597.0434
   2713069.16046   2089936.50843  23730460.2814                   23730460.8954
   -820493.34847   -637274.06645  21746010.1564                   21746007.1764
  -1223953.57846   -948278.50043  23539529.6094                   23539527.8794
   1430958.98445   1100618.97343  24305336.3754                   24305336.5634
  -1436343.27746  -1112419.24642  24195258.4454                   24195257.4884
   1086098.18447    836599.10945  20277556.8524                   20277554.1334
   2940559.36745   2264405.50042  24333106.1094                   24333103.4454
    390591.80947    298877.49645  21078295.0394                   21078290.5234
   2518119.53147   1941235.70745  21230894.5784                   21230890.0354
  -1120808.86346   -874752.39842  24131710.4534                   24131708.6524
 11  8 17 16 49  0.0000000  0 11G03G06G07G08G10G11G13G16G19G23G28
   2409604.99647   1857375.86344  21832780.5474                   21832779.2424
   2822670.37946   2175340.03943  23751318.2424                   23751317.0634
   -848865.26647   -659382.05145  21740611.4534                   21740608.3634
  -1269880.05146   -984065.35543  23530790.9454                   23530788.1054
   1491993.90645   1148178.63343  24316950.3984                   24316950.7194
  -1490375.10946  -1154521.89543  24184975.8444                   24184975.0984
   1136743.73447    876063.16046  20287194.1174                   20287191.1684
   3053608.68045   2352495.75842  24354618.1954                   24354614.4734
    415347.31647    318167.50045  21083005.7344                   21083001.4224
   2620884.93047   2021312.59445  21250449.8444                   21250445.2624
  -1158975.15246   -904492.30543  24124448.6644                   24124446.3134
 11  8 17 16 49 30.0000000  0 11G03G06G07G08G10G11G13G16G19G23G28
    930262.66847    704641.57444  21551271.3834                   21551269.8284
   1357218.96146   1033429.80143  23472451.5554                   23472450.5744
  -2452521.63347  -1908984.41045  21435445.5314                   21435442.5704
  -2891226.62946  -2247452.27043  23222258.1724                   23222256.5434
    -21997.54345    -31555.04342  24028848.4454                   24028847.8324
  -3119806.64146  -2424208.72743  23874905.2344                   23874904.5944
   -387384.18447   -311569.00845  19997162.3914                   19997159.3914
   1591232.598 5                  24076337.328
  -1134642.92247   -889617.09445  20788052.1724                   20788047.9804
   1148726.18447    874175.85245  20970307.3364                   20970303.3874
  -2772284.80545  -2161616.64542  23817444.0234                   23817443.0044
 11  8 17 16 50  0.0000000  0 11G03G06G07G08G10G11G13G16G19G23G28
   1026865.29347    779916.30944  21569654.6334                   21569652.5784
   1467550.53546   1119402.39843  23493447.5164                   23493445.7774
  -2480613.93047  -1930874.50445  21430099.6484                   21430097.1644
  -2937144.32046  -2283232.26643  23213520.8594                   23213518.8754
     39823.72745     16617.30543  24040611.9064                   24040612.1334
  -3173786.27046  -2466270.70742  23864633.0634                   23864632.7774
   -335444.73047   -271096.73445  20007046.3524                   20007043.2234
   1704267.473 5                  24097847.859
  -1108534.94147   -869273.21545  20793020.2034                   20793015.7344
   1252479.58247    955022.61745  20990051.3754                   20990046.9964
  -2809889.62945  -2190919.05542  23810288.6024                   23810286.5554
 11  8 17 16 50 30.0000000  0 11G03G06G07G08G10G11G13G16G19G23G28
   1123986.62147    855595.22744  21588136.1884                   21588134.4184
   1578239.10546   1205653.18043  23514510.7734                   23514509.5554
  -2508569.12947  -1952657.77345  21424780.1024                   21424777.6914
  -2983061.17246  -2319011.59843  23204782.2894                   23204781.4384
    102029.71545     65089.45742  24052448.9384                   24052448.9024
  -3227739.73846  -2508312.27342  23854365.4694                   23854366.2034
   -282863.39147   -230124.27345  20017052.0554                   20017049.1294
   1817289.148 5                  24119355.891
  -1081755.03947   -848405.74645  20798116.4384                   20798112.2584
   1356719.17647   1036248.22345  21009886.9304                   21009882.9494
  -2847218.23445  -2220006.17242  23803184.5864                   23803183.4734
 11  8 17 16 51  0.0000000  0 11G03G06G07G08G10G11G13G16G19G23G28
   1221621.21947    931674.10544  21606714.4144                   21606712.6484
   1689279.32846   1292177.99643  23535640.6024                   23535639.0944
  -2536388.68047  -1974335.32845  21419486.3524                   21419483.4454
  -3028979.62146  -2354792.16843  23196045.1954                   23196043.2624
    164615.63745    113857.53942  24064359.4224                   24064359.3284
  -3281667.36745  -2550333.73842  23844103.7814                   23844104.3134
   -229643.40647   -188654.18445  20027179.7894                   20027176.6134
                                  24140859.578
  -1054305.92647   -827016.82845  20803340.1954                   20803335.4884
   1461439.85547   1117848.69545  21029814.6254                   21029810.8634
  -2884273.39145  -2248880.37142  23796134.7424                   23796131.9224
 11  8 17 16 51 30.0000000  0 11G03G06G07G08G10G11G13G16G19G23G28
   1319767.83247   1008151.95744  21625391.8204                   21625390.6804
   1800670.07446   1378975.93043  23556837.6644                   23556836.6294
  -2564069.95347  -1995905.14845  21414218.9454                   21414215.3984
  -3074897.60546  -2390572.39143  23187306.7584                   23187304.7194
    227580.47345    162921.05942  24076341.4304                   24076340.4924
  -3335565.27746  -2592332.03943  23833847.6174                   23833847.5514
   -175783.89847   -146685.75845  20037429.0004                   20037425.8874
                                  24162358.094
  -1026186.21547   -805105.36345  20808690.9064                   20808686.4884
   1566640.69947   1199823.32845  21049833.8834                   21049829.9494
  -2921053.97745  -2277540.44942  23789134.5004                   23789132.7304
 11  8 17 16 52  0.0000000  0 11G03G06G07G08G10G11G13G16G19G23G28
   1418419.96547   1085023.72344  21644164.7034                   21644162.5044
   1912404.71146   1466041.86343  23578100.6644                   23578099.7274
  -2591615.93447  -2017369.55145  21408976.6724                   21408973.4964
  -3120818.48846  -2426354.88743  23178568.2424                   23178566.4414
    290917.62545    212274.59442  24088394.0784                   24088392.9694
  -3389434.70346  -2634308.09443  23823595.9774                   23823596.2544
   -121289.83647   -104222.87545  20047798.6884                   20047795.7814
   2156246.94915                  24183857.633
   -997399.93747   -782674.49645  20814169.1644                   20814164.7384
   1672315.15247   1282167.01245  21069942.9774                   21069939.1454
  -2957564.28946  -2305990.01243  23782186.8134                   23782185.2894
 11  8 17 16 52 30.0000000  0 11G03G06G07G08G10G11G13G16G19G23G28
   1517568.14547   1162282.01644  21663032.2974                   21663030.1134
   2024474.28546   1553368.77043  23599426.2974                   23599425.7154
  -2619031.66447  -2038732.45745  21403759.6414                   21403756.8204
  -3166748.23846  -2462144.25443  23169828.0004                   23169826.4534
    354618.10545    261911.25842  24100515.4924                   24100514.9844
  -3443279.28546  -2676264.84842  23813350.0314                   23813349.5234
    -66167.85947    -61270.69945  20058288.0004                   20058285.1294
   2269183.05114                  24205348.719
   -967953.60947   -759729.30145  20819771.5474                   20819767.8284
   1778454.56647   1364872.99245  21090140.8524                   21090136.4384
  -2993810.51246  -2334233.72743  23775290.4304                   23775288.3954
 11  8 17 16 53  0.0000000  0 11G03G06G07G08G10G11G13G16G19G23G28
   1617203.82447   1239920.17644  21681992.4144                   21681990.3674
   2136870.15246   1640949.91843  23620814.9924                   23620814.0124
  -2646322.03147  -2059997.67645  21398566.3284                   21398563.4614
  -3212692.77046  -2497945.15643  23161085.6954                   23161083.1884
    418673.21545    311824.25842  24112705.3054                   24112704.2464
  -3497102.54746  -2718204.96143  23803108.1414                   23803107.0004
    -10425.02347    -17834.75045  20068895.6024                   20068892.7384
   2382082.19514                  24226831.602
   -937853.34847   -736274.55145  20825499.6024                   20825495.4654
   1885050.68847   1447934.85545  21110425.5474                   21110421.7704
  -3029799.09446  -2362276.74243  23768441.6564                   23768439.5274
 11  8 17 16 53 30.0000000  0 11G03G06G07G08G10G11G13G16G19G23G28
   1717326.76247   1317938.02344  21701045.1414                   21701043.0554
   2249591.98845   1728785.08243  23642265.0394                   23642264.1414
  -2673483.76647  -2081162.66045  21393397.9064                   21393394.8284
  -3258649.19946  -2533755.30943  23152339.8524                   23152337.7424
    483082.91446    362013.60942  24124962.1564                   24124961.7624
  -3550899.33646  -2760124.49243  23792870.1564                   23792870.3674
     45940.29747     26086.26245  20079621.6804                   20079618.2274
   2494945.63714                  24248308.180
   -907097.10547   -712308.63745  20831352.8914                   20831348.3554
   1992103.14147   1531352.30145  21130797.1564                   21130793.1024
  -3065527.89546  -2390117.28943  23761642.3594                   23761640.9264
 11  8 17 16 54  0.0000000  0 11G03G06G07G08G10G11G13G16G19G23G28
   1817933.33647   1396332.71944  21720189.9064                   21720188.0004
   2362636.29345   1816871.46143  23663776.3754                   23663775.6054
  -2700516.31647  -2102226.98445  21388254.0004                   21388250.6684
  -3304617.65646  -2569574.87543  23143592.3364                   23143590.4884
    547843.87146    412476.61742  24137286.1884                   24137284.5514
  -3604667.85246  -2802021.95743  23782639.2814                   23782638.4104
    102926.53547     70491.10945  20090465.7424                   20090462.3984
   2607771.56614                  24269778.422
   -875686.07847   -687832.51645  20837330.1334                   20837325.8954
   2099608.66047   1615122.78945  21151254.6414                   21151250.3324
  -3100997.71146  -2417756.05543  23754892.8674                   23754890.9024
 11  8 17 16 54 30.0000000  0 11G03G06G07G08G10G11G13G16G19G23G28
   1919019.28146   1475100.94944  21739426.0634                   21739424.2034
   2475999.12945   1905206.09043  23685349.1024                   23685348.2934
  -2727420.19547  -2123191.03945  21383133.9384                   21383130.9494
  -3350599.10246  -2605404.53943  23134842.8364                   23134840.1564
    612952.01646    463210.20742  24149675.7974                   24149675.1914
  -3658407.19146  -2843896.72743  23772412.5864                   23772412.2734
    160531.39847    115377.99645  20101427.7584                   20101424.4964
                                  24291241.375
   -843621.75047   -662847.32445  20843431.4694                   20843427.3014
   2207563.39147   1699243.29745  21171797.6254                   21171793.7154
  -3136210.26646  -2445194.35543  23748191.8754                   23748190.6764
 11  8 17 16 55  0.0000000  0 11G03G06G07G08G10G11G13G16G19G23G28
   2020577.31647   1554237.07444  21758751.8444                   21758749.7544
   2589672.98045   1993783.08642  23706980.7894                   23706979.4774
  -2754198.49247  -2144057.25045  21378038.5864                   21378035.6644
  -3396597.72746  -2641247.58643  23126089.0864                   23126087.4494
    678400.56346    514209.00842  24162130.0084                   24162128.4414
  -3712118.98846  -2885750.05143  23762192.1254                   23762190.9694
    218749.39547    160742.65245  20112506.1484                   20112502.8324
                                  24312695.820
   -810909.00847   -637356.86345  20849656.7734                   20849652.5784
   2315960.32847   1783708.39545  21192425.1644                   21192421.1094
  -3171170.87546  -2472436.31243  23741539.3754                   23741537.9024
 11  8 17 16 55 30.0000000  0 10G03G06G07G08G10G11G13G19G23G28
   2122603.01647   1633737.57844  21778166.0634                   21778164.6884
   2703653.94545   2082599.37143  23728669.7664                   23728668.7304
  -2780851.81247  -2164826.06245  21372966.8914                   21372963.5744
  -3442614.84046  -2677105.07043  23117332.2974                   23117330.5634
    744184.62146    565469.26242  24174648.6254                   24174647.4304
  -3765802.16046  -2927581.03543  23751975.1644                   23751974.7734
    277578.39147    206583.40645  20123701.1254                   20123697.6024
   -777549.88747   -611362.74245  20856004.8984                   20856000.5204
   2424795.19947   1868514.72745  21213135.5784                   21213131.6804
  -3205881.14146  -2499483.19543  23734934.2584                   23734932.4144
 11  8 17 16 56  0.0000000  0 10G03G06G07G08G10G11G13G19G23G28
   2225092.43047   1713599.41444  21797669.5314                   21797668.6484
   2817937.86345   2171651.70742  23750417.1334                   23750416.1094
  -2807380.13747  -2185497.47745  21367918.3444                   21367914.8634
  -3488651.09046  -2712977.43443  23108572.5474                   23108569.4574
    810300.62546    616988.14542  24187230.6174                   24187228.4224
  -3819455.48046  -2969388.80942  23741765.8674                   23741763.8984
    337016.17647    252898.54745  20135011.4064                   20135008.6094
   -743545.92247   -584866.15645  20862475.7974                   20862470.7854
   2534064.00847   1953659.19545  21233928.9694                   21233924.4224
  -3240342.61346  -2526336.25443  23728376.4144                   23728374.4964
 11  8 17 16 56 30.0000000  0 10G03G06G07G08G10G11G13G19G23G28
   2328045.59847   1793822.64144  21817261.2504                   21817259.5784
   2932525.08645   2260940.36342  23772223.0864                   23772221.9844
  -2833779.25447  -2206068.21545  21362894.8134                   21362891.3914
  -3534702.89146  -2748861.92643  23099808.8364                   23099806.8754
    876748.86746    668766.02042  24199874.7114                   24199873.2584
  -3873073.35546  -3011168.90643  23731562.4694                   23731561.1094
    397064.69947    299689.57845  20146438.4774                   20146435.1564
   -708894.59047   -557865.11345  20869069.1804                   20869065.2544
   2643767.33647   2039142.24245  21254804.7894                   21254800.8554
  -3274552.23445  -2552993.01243  23721866.8594                   23721864.3834
 11  8 17 16 57  0.0000000  0 10G03G06G07G08G10G11G13G19G23G28
   2431460.24246   1874405.44944  21836940.3054                   21836938.5984
   3047413.74645   2350464.00842  23794085.1954                   23794084.1884
  -2860047.19147  -2226536.73445  21357896.4304                   21357892.8484
  -3580768.89146  -2784757.48843  23091042.9534                   23091040.0984
    943527.52046    720801.23442  24212582.5004                   24212581.4384
  -3926651.98046  -3052918.46943  23721367.2584                   23721366.8284
    457723.78147    346956.38345  20157981.8054                   20157978.3324
   -673595.39147   -530359.24245  20875786.5784                   20875782.2734
   2753903.62147   2124962.66845  21275762.9614                   21275758.8594
  -3308509.90645  -2579453.44142  23715403.3594                   23715402.4494
 11  8 17 16 57 30.0000000  0 10G03G06G07G08G10G11G13G19G23G28
   2535327.59446   1955341.02744  21856705.4064                   21856702.9884
   3162595.00045   2440215.55142  23816002.6724                   23816002.7074
  -2886188.92647  -2246906.90645  21352921.5394                   21352918.8634
  -3626854.52046  -2820668.35243  23082272.9384                   23082271.1174
   1010627.69945    773087.03942  24225350.0864                   24225350.3054
  -3980195.04746  -3094640.27342  23711177.5314                   23711177.3404
    518986.29747    394693.38745  20169639.3444                   20169636.4574
   -637655.09047   -502353.81645  20882626.0314                   20882621.3954
   2864464.28947   2211113.78145  21296802.0784                   21296798.1214
  -3342222.30946  -2605722.82842  23708988.0554                   23708987.2704
 11  8 17 16 58  0.0000000  0 10G03G06G07G08G10G11G13G19G23G28
   2639648.30946   2036629.86344  21876556.9454                   21876555.3874
   3278069.43445   2530195.58642  23837977.3834                   23837976.9924
  -2912200.23047  -2267175.44945  21347971.7504                   21347968.9384
  -3672956.18446  -2856591.69943  23073499.7034                   23073497.0354
   1078049.66846    825623.56642  24238179.9384                   24238179.9344
  -4033696.55146  -3136329.72342  23700997.3524                   23700995.9224
    580854.55947    442902.39845  20181412.4064                   20181409.2464
   -601070.45747   -473846.32045  20889587.7584                   20889583.2974
   2975449.53547   2297595.72745  21317921.9844                   21317917.9804
  -3375686.36346  -2631798.62543  23702620.1334                   23702619.0004
 11  8 17 16 58 30.0000000  0 10G03G06G07G08G10G11G13G19G23G28
   2744414.11746   2118265.49644  21896493.4144                   21896491.8054
   3393829.23045   2620397.98042  23860006.9694                   23860005.0314
  -2938084.94547  -2287345.35545  21343045.9064                   21343043.1844
  -3719078.58646  -2892531.21543  23064722.6804                   23064720.2034
   1145785.73846    878404.84842  24251071.4064                   24251070.2664
  -4087159.22746  -3177988.88742  23690824.0634                   23690822.0784
    643322.22347    491578.47345  20193300.1954                   20193296.9694
   -563847.57447   -444841.47345  20896670.9694                   20896666.3404
   3086851.71547   2384402.56645  21339121.2504                   21339116.8554
  -3408907.42246  -2657685.12543  23696300.3054                   23696296.7734
 11  8 17 16 59  0.0000000  0 10G03G06G07G08G10G11G13G19G23G28
   2849623.55146   2200246.85543  21916514.3444                   21916511.8674
   3509872.55545   2710821.31642  23882089.1484                   23882087.7814
  -2963840.53147  -2307414.64145  21338144.7274                   21338141.8204
  -3765220.04346  -2928485.57843  23055942.9614                   23055940.6724
   1213834.73046    931429.96143  24264020.7114                   24264019.9104
  -4140579.21145  -3219614.78542  23680657.6804                   23680657.2304
    706389.37147    540721.68845  20205301.2974                   20205297.9144
   -525986.10947   -415339.03545  20903876.1564                   20903871.5514
   3198669.13347   2471532.95345  21360399.5944                   21360395.2584
  -3441884.96946  -2683381.84442  23690022.9144                   23690020.9924
 11  8 17 16 59 30.0000000  0 10G03G06G07G08G10G11G13G19G23G28
   2955272.07846   2282570.33244  21936618.1174                   21936616.6954
   3626195.97745   2801462.91042  23904224.4454                   23904222.5864
  -2989467.18747  -2327383.44945  21333268.0864                   21333265.3554
  -3811380.99646  -2964455.13743  23047158.6644                   23047155.9494
   1282192.38345    984695.62943  24277027.6484                   24277028.3594
  -4193955.03545  -3261206.31242  23670500.1884                   23670499.3914
    770054.00047    590330.47345  20217415.8524                   20217412.8094
   -487487.65247   -385340.24645  20911201.8984                   20911197.1134
   3310898.14847   2558984.08245  21381755.9454                   21381752.1484
  -3474620.50846  -2708890.02743  23683793.9384                   23683791.8164
 11  8 17 17  0  0.0000000  0 10G03G06G07G08G10G11G13G19G23G28
   3061354.30146   2365231.76244  21956805.1414                   21956803.0204
   3742793.80945   2892318.31642  23926413.0784                   23926410.2344
  -3014965.95347  -2347252.60545  21328415.9384                   21328413.0784
  -3857563.67646  -3000441.61343  23038370.3364                   23038367.4574
   1350853.28945   1038197.55942  24290093.8364                   24290094.1644
  -4247285.82446  -3302762.67642  23660352.0554                   23660350.9224
    834312.18847    640401.76645  20229643.9064                   20229640.9844
   -448355.05947   -354847.31245  20918648.5394                   20918644.2304
   3423533.66047   2646751.94144  21403189.6804                   21403186.1374
  -3507116.70346  -2734211.70743  23677610.7344                   23677607.8754
 11  8 17 17  0 30.0000000  0 10G03G06G07G08G10G11G13G19G23G28
   3167869.28146   2448230.42243  21977074.3674                   21977072.4694
   3859665.10945   2983386.82842  23948651.7344                   23948651.0864
  -3040334.13747  -2367020.02745  21323588.4064                   21323585.6094
  -3903765.97346  -3036443.37943  23029578.8364                   23029575.8324
   1419816.35945   1091934.89842  24303217.3914                   24303216.4414
  -4300568.02746  -3344281.21542  23650212.5554                   23650212.1254
    899164.32847    690935.87945  20241984.8834                   20241981.6844
   -408587.64847   -323859.72745  20926216.0234                   20926211.7194
   3536574.39547   2734835.57045  21424700.5944                   21424696.7704
  -3539372.63746  -2759346.14143  23671472.8204                   23671469.9574
 11  8 17 17  1  0.0000000  0 10G03G06G07G08G10G11G13G19G23G28
   3274811.78146   2531562.21144  21997424.7974                   21997422.4804
   3976805.03145   3074664.66042  23970942.7894                   23970942.1294
  -3065572.79347  -2386686.50445  21318785.3594                   21318782.6954
  -3949989.71146  -3072461.87143  23020781.8444                   23020779.2274
   1489076.82845   1145904.03142  24316395.6564                   24316396.6524
  -4353801.17646  -3385761.53143  23640082.6644                   23640081.3634
    964607.32047    741930.38745  20254438.3594                   20254435.3094
   -368188.17647   -292379.61345  20933903.4924                   20933899.4454
   3650015.40647   2823231.10945  21446288.5084                   21446284.0204
  -3571390.91446  -2784295.39143  23665379.3364                   23665376.9224
 11  8 17 17  1 30.0000000  0 10G03G06G07G08G10G11G13G19G23G28
   3382179.85246   2615225.62544  22017856.2974                   22017854.7544
   4094211.87945   3166150.45742  23993283.9924                   23993283.5824
  -3090679.36347  -2406250.05545  21314007.8834                   21314005.2544
  -3996232.60246  -3108495.27043  23011982.6484                   23011980.1254
   1558633.15645   1200103.66843  24329633.2504                   24329632.5434
  -4406981.36746  -3427200.60543  23629962.8444                   23629961.8834
   1030641.10947    793385.28145  20267003.9534                   20267001.3714
   -327156.25847   -260406.69545  20941711.4224                   20941707.1024
   3763855.12147   2911937.32444  21467951.0314                   21467947.2624
  -3603170.64146  -2809058.76643  23659330.7814                   23659329.7344
 11  8 17 17  2  0.0000000  0 10G03G06G07G08G10G11G13G19G23G28
   3489965.02746   2699214.02344  22038366.8444                   22038365.7584
   4211877.62545   3257837.97342  24015676.3754                   24015675.3554
  -3115658.16447  -2425714.05145  21309254.8364                   21309252.1914
  -4042499.38746  -3144547.28944  23003177.8984                   23003175.9654
   1628477.02045   1254527.40242  24342924.4144                   24342923.5394
  -4460111.34445  -3468600.48843  23619852.8364                   23619851.3444
   1097258.45347    845294.88345  20279681.3204                   20279677.9804
   -285498.12547   -227945.82845  20949639.2584                   20949634.4924
   3878085.58247   3000948.01245  21489687.7424                   21489684.3014
  -3634717.73446  -2833640.85543  23653328.7344                   23653326.3164
 11  8 17 17  2 30.0000000  0 10G03G06G07G08G10G11G13G19G23G28
   3598167.22346   2783527.37944  22058958.3444                   22058955.7544
   4329802.00845   3349727.04742  24038116.0084                   24038115.3984
  -3140505.69547  -2445075.75445  21304526.3754                   21304523.3054
  -4088787.37946  -3180615.84043  22994369.6254                   22994368.2734
   1698608.27045   1309175.04342  24356270.3674                   24356269.5554
  -4513185.55545  -3509956.93042  23609752.6334                   23609751.3524
   1164461.02347    897660.49645  20292469.2194                   20292466.3324
   -243211.94147   -194995.54745  20957685.4924                   20957681.7034
   3992706.52047   3090262.97344  21511499.6954                   21511495.8404
  -3666030.19146  -2858040.09443  23647369.1724                   23647367.9104
 11  8 17 17  3  0.0000000  0 10G03G06G07G08G10G11G13G19G23G28
   3706783.84446   2868163.67244  22079626.7344                   22079624.6644
   4447982.81345   3441815.91842  24060605.3984                   24060605.3554
  -3165219.58647  -2464333.33645  21299823.4144                   21299820.3524
  -4135095.53946  -3216700.09443  22985557.6644                   22985555.7664
   1769024.43845   1364044.73042  24369669.2194                   24369669.2384
  -4566201.15246  -3551267.69943  23599664.0164                   23599663.0004
   1232248.03947    950481.52745  20305368.3444                   20305365.3794
   -200297.93047   -161556.06645  20965852.2584                   20965847.5044
   4107715.67247   3179880.43044  21533385.2114                   21533381.3594
  -3697108.16046  -2882256.63743  23641456.0704                   23641454.0124
 11  8 17 17  3 30.0000000  0 10G03G06G07G08G10G11G13G19G23G28
   3815806.79346   2953116.61744  22100372.5164                   22100370.2584
   4566412.17245   3534098.44942  24083142.0474                   24083141.5204
  -3189803.76647  -2483489.82845  21295145.1564                   21295142.3594
  -4181427.80946  -3252803.16443  22976741.1174                   22976739.3204
   1839718.05145   1419130.58242  24383122.1484                   24383121.8054
  -4619160.22746  -3592534.41843  23589586.8054                   23589585.2114
   1300613.67247   1003753.42645  20318378.1954                   20318375.2734
   -156762.28547   -127632.18745  20974136.9384                   20974132.5274
   4223105.03147   3269794.15244  21555343.5084                   21555339.6524
  -3727956.91046  -2906294.57043  23635585.1954                   23635583.5744
 11  8 17 17  4  0.0000000  0 10G03G06G07G08G10G11G13G19G23G28
   3925232.95346   3038383.70744  22121195.5084                   22121194.1954
   4685087.41445   3626572.65242  24105725.1484                   24105724.2194
  -3214257.18447  -2502544.44145  21290492.0864                   21290488.9534
  -4227783.84846  -3288924.73443  22967919.4454                   22967917.4304
   1910685.65246   1474429.93842  24396626.2974                   24396626.5704
  -4672060.21146  -3633755.10943  23579519.8204                   23579518.6564
   1369555.52047   1057474.32045  20331497.5084                   20331494.6684
   -112605.60547    -93224.40245  20982539.5004                   20982534.7384
   4338872.03547   3360002.15244  21577372.5164                   21577368.9774
  -3758576.79746  -2930154.18743  23629759.3754                   23629756.5984
 11  8 17 17  4 30.0000000  0 10G03G06G07G08G10G11G13G19G23G28
   4035063.96546   3123966.27343  22142096.2274                   22142094.0234
   4804010.09445   3719239.61342  24128355.3834                   24128354.3714
  -3238574.20747  -2521492.76645  21285864.5164                   21285861.1484
  -4274158.91846  -3325061.13743  22959094.7034                   22959092.4494
   1981929.13745   1529944.31342  24410184.0474                   24410184.0864
  -4724894.27346  -3674924.43443  23569465.6804                   23569464.4104
   1439076.84047   1111646.76645  20344726.6174                   20344724.2304
    -67824.41447    -58329.96545  20991060.6094                   20991056.1724
   4455018.18047   3450505.56344  21599474.9064                   21599470.8404
  -3788964.38446  -2953832.75343  23623976.3444                   23623973.6414
 11  8 17 17  5  0.0000000  0 10G03G06G07G08G10G11G13G19G23G28
   4145294.37146   3209860.07443  22163072.2664                   22163071.0394
   4923174.93845   3812095.24642  24151030.3674                   24151030.7704
  -3262756.03147  -2540335.75445  21281263.4064                   21281259.7384
  -4320554.41046  -3361213.43743  22950265.9924                   22950263.8444
   2053442.72346   1585669.12142  24423793.2274                   24423792.5864
  -4777662.17246  -3716042.15643  23559424.6484                   23559423.2034
   1509173.69547   1166267.66845  20358065.3524                   20358063.4064
    -22422.32047    -22951.71145  20999701.0164                   20999696.1804
   4571537.89147   3541300.08644  21621648.3284                   21621643.8754
  -3819122.43746  -2977332.48843  23618238.2584                   23618235.2304
 11  8 17 17  5 30.0000000  0 10G03G06G07G08G10G11G13G19G23G28
   4255918.33646   3296060.51643  22184123.1414                   22184121.6174
   5042576.68045   3905135.43042  24173754.1024                   24173751.1294
  -3286803.87947  -2559074.32045  21276687.1954                   21276683.9454
  -4366972.49646  -3397383.36344  22941433.4694                   22941430.4384
   2125221.62545   1641600.64842  24437451.7894                   24437451.4804
  -4830363.32846  -3757107.91043  23549395.9304                   23549394.7464
   1579842.49247   1221334.23045  20371513.7114                   20371510.5594
     23597.16047     12907.61745  21008458.1644                   21008453.6334
   4688426.16447   3632381.78945  21643891.2344                   21643886.8914
  -3849054.16046  -3000655.84843  23612542.1564                   23612538.8794
 11  8 17 17  6  0.0000000  0 10G03G06G07G08G10G11G13G19G23G28
   4366939.59446   3382570.55943  22205249.7344                   22205248.3554
   5162219.51645   3998363.66842  24196520.4384                   24196519.4614
  -3310709.32847  -2577701.94145  21272138.4614                   21272134.9614
  -4413405.87546  -3433565.17644  22932597.0164                   22932595.0474
   2197269.47345   1697741.78543  24451160.9694                   24451161.7814
  -4882988.49646  -3798114.44143  23539381.3364                   23539380.3524
   1651088.30947   1276850.43045  20385072.0234                   20385068.4774
     70239.80547     49252.52345  21017334.4304                   21017329.1684
   4805686.72347   3723753.58644  21666205.2274                   21666201.4024
  -3878753.45346  -3023798.12943  23606890.1334                   23606887.6804
 11  8 17 17  6 30.0000000  0 10G03G06G07G08G10G11G13G19G23G28
   4478352.81346   3469386.02044  22226451.3204                   22226449.7814
   5282097.88345   4091775.33242  24219333.0164                   24219331.4694
  -3334474.29347  -2596220.08645  21267615.4224                   21267612.6054
  -4459856.18446  -3469760.21543  22923757.3754                   22923755.5594
   2269580.89546   1754088.29343  24464921.6334                   24464922.1294
  -4935537.41846  -3839061.58243  23529381.5704                   23529380.5004
   1722907.18447   1332813.15645  20398738.2114                   20398735.4924
    117502.16447     86080.33645  21026327.3834                   21026322.9844
   4923314.39547   3815411.44544  21688589.0474                   21688585.3984
  -3908223.07446  -3046761.37143  23601280.3834                   23601278.4924
 11  8 17 17  7  0.0000000  0 10G03G06G07G08G10G11G13G19G23G28
   4590147.21546   3556498.49644  22247725.1254                   22247723.6954
   5402201.457 5                  24242186.805
  -3358104.82047  -2614633.46945  21263118.2274                   21263115.4844
  -4506330.59046  -3505974.00043  22914914.0554                   22914911.5314
   2342145.46146   1810632.03142  24478730.9304                   24478731.1334
  -4988015.12146  -3879953.19943  23519395.2424                   23519393.7584
   1795289.82847   1389215.19145  20412511.7894                   20412509.0594
    165375.63747    123384.33245  21035437.0704                   21035432.4844
   5041298.37947   3907346.95744  21711040.8594                   21711036.8984
  -3937471.52346  -3069552.33243  23595715.1414                   23595714.1994
 11  8 17 17  7 30.0000000  0 10G03G06G07G08G10G11G13G19G23G28
   4702322.93446   3643908.11743  22269070.8204                   22269069.4064
   5522530.480 5                  24265084.336
  -3381596.59047  -2632938.75045  21258648.5394                   21258645.1134
  -4552825.31646  -3542203.62143  22906066.4224                   22906063.6334
   2414963.26245   1867373.06342  24492587.4534                   24492588.0124
  -5040415.98446  -3920784.98043  23509423.8834                   23509422.0944
   1868237.69547   1446057.65645  20426394.0164                   20426390.9024
    213862.04347    161165.95345  21044664.3594                   21044659.4304
   5159639.08247   3999560.41444  21733560.6414                   21733556.6174
  -3966496.23046  -3092168.90243  23590192.2504                   23590190.5784
 11  8 17 17  8  0.0000000  0 10G03G06G07G08G10G11G13G19G23G28
   4814877.35546   3731612.83643  22290489.4694                   22290487.3094
   5643082.79715                  24288025.984
  -3404947.83247  -2651134.50445  21254204.7814                   21254201.5984
  -4599338.80546  -3578447.89543  22897215.3444                   22897212.8834
   2488031.57445   1924309.41042  24506492.5084                   24506492.1454
  -5092736.66046  -3961554.23443  23499467.9774                   23499465.8634
   1941749.93047   1503339.88745  20440382.7194                   20440379.5784
    262960.91447    199424.80945  21054007.9774                   21054003.4024
   5278334.00847   4092049.89544  21756146.6024                   21756142.6134
  -3995297.25446  -3114611.21943  23584711.0944                   23584710.0554
 11  8 17 17  8 30.0000000  0 10G03G06G07G08G10G11G13G19G23G28
   4927806.29746   3819609.39143  22311979.4774                   22311977.9104
                                  24311008.180
  -3428158.21147  -2669220.50445  21249787.7424                   21249784.6954
  -4645871.61746  -3614707.20743  22888360.1254                   22888357.3524
   2561346.57445   1981437.85942  24520443.6094                   24520443.0314
  -5144975.39846  -4002259.64143  23489526.2584                   23489524.4064
   2015823.29747   1561059.35945  20454478.2114                   20454475.1564
    312669.93847    238159.09845  21063466.5164                   21063461.9184
   5397379.19547   4184812.30144  21778800.6884                   21778796.9344
  -4023876.27046  -3136880.48043  23579272.9774                   23579271.4414
 11  8 17 17  9  0.0000000  0 10G03G06G07G08G10G11G13G19G23G28
   5041104.94946   3907893.98443  22333539.7344                   22333537.8524
   5884841.609 5                  24334032.258
  -3451228.12547  -2687197.06245  21245397.6954                   21245394.5594
  -4692424.66846  -3650982.29744  22879501.1174                   22879499.1024
   2634903.94545   2038755.24642  24534440.6094                   24534441.0044
  -5197131.28146  -4042900.50843  23479600.6564                   23479599.7154
   2090455.25047   1619214.10245  20468680.2274                   20468677.2814
    362986.12547    277366.52045  21073041.7664                   21073037.1804
   5516769.93047   4277843.97744  21801520.1804                   21801515.9844
  -4052235.59846  -3158978.62143  23573876.6094                   23573875.1994
 11  8 17 17  9 30.0000000  0 10G03G06G07G08G10G11G13G19G23G28
   5154776.87946   3996469.46543  22355170.9694                   22355169.8954
   6006047.72714                  24357096.070
  -3474149.05547  -2705057.51645  21241036.0474                   21241032.8364
  -4738990.55146  -3687267.38343  22870640.0234                   22870638.1564
   2708707.55545   2096264.47742  24548486.9144                   24548485.7584
  -5249194.29746  -4083468.98443  23469693.9224                   23469692.5594
   2165651.04747   1677808.18845  20482989.8674                   20482986.6804
    413915.36747    317051.63745  21082733.3594                   21082728.3014
   5636510.65647   4371148.35244  21824306.0864                   21824302.3484
  -4080368.75046  -3180900.48843  23568522.7814                   23568520.9804
 11  8 17 17 10  0.0000000  0 10G03G06G07G08G10G11G13G19G23G28
   5268814.90646   4085330.22343  22376871.4064                   22376869.3914
   6127465.723 5                  24380200.938
  -3496924.52347  -2722804.63345  21236702.3914                   21236699.1484
  -4785572.97346  -3723565.35243  22861775.0864                   22861773.3834
   2782749.79345   2153959.62142  24562575.3674                   24562575.8134
  -5301166.50446  -4123966.75043  23459804.1254                   23459802.6564
   2241404.36347   1736836.72745  20497405.0554                   20497402.1214
    465451.85247    357209.94145  21092540.5944                   21092535.6954
   5756593.44947   4464719.27744  21847156.7344                   21847153.5634
  -4108281.02746  -3202650.26643  23563212.2734                   23563209.6684
 11  8 17 17 10 30.0000000  0 10G03G06G07G08G10G11G13G19G23G28
   5383217.04346   4174474.73043  22398641.6254                   22398639.3794
   6249094.03915                  24403346.945
  -3519552.13347  -2740436.54345  21232395.9384                   21232392.8914
  -4832170.10946  -3759874.80144  22852908.1024                   22852905.4804
   2857029.06645   2211839.48042  24576709.9224                   24576710.6094
  -5353044.05546  -4164390.74243  23449932.2584                   23449930.9734
   2317714.39147   1796299.04745  20511926.0474                   20511923.6994
    517595.64547    397841.44545  21102462.5704                   21102458.4384
   5877016.98847   4558555.73844  21870073.1334                   21870069.5354
  -4135971.94146  -3224227.54743  23557942.7734                   23557940.5434
 11  8 17 17 11  0.0000000  0 10G03G06G07G08G10G11G13G19G23G28
   5497985.92246   4263904.98443  22420481.7584                   22420480.0744
   6370935.750 5                  24426532.125
  -3542024.35547  -2757947.35945  21228120.0234                   21228116.7384
  -4878775.37146  -3796190.55943  22844039.6884                   22844037.5394
   2931548.45745   2269906.48442  24590891.3134                   24590890.9924
  -5404818.58246  -4204734.46543  23440080.2504                   23440078.4534
   2394585.28947   1856198.41445  20526554.5704                   20526551.5744
    570351.01647    438949.52345  21112501.9774                   21112497.1134
   5997783.69147   4652659.57444  21893054.1094                   21893050.7544
  -4163436.23046  -3245628.24643  23552716.2734                   23552713.3914
 11  8 17 17 11 30.0000000  0 10G03G06G07G08G10G11G13G19G23G28
   5613120.34846   4353620.08643  22442391.0314                   22442389.4064
   6492989.645 5                  24449759.695
  -3564338.23447  -2775334.80145  21223873.5944                   21223870.6254
  -4925386.23846  -3832510.69943  22835170.0554                   22835167.5274
   3006306.57445   2328159.48442  24605116.7894                   24605117.0434
  -5456484.96946  -4244993.95742  23430246.8754                   23430246.5124
   2472017.17647   1916534.91445  20541289.4924                   20541286.5744
    623718.77747    480534.78945  21122657.6414                   21122652.4144
   6118892.58647   4747030.07844  21916100.8134                   21916097.2854
  -4190672.85946  -3266851.58243  23547533.5394                   23547530.1804
 11  8 17 17 12  0.0000000  0 10G03G06G07G08G10G11G13G19G23G28
   5728610.45346   4443612.33643  22464367.9844                   22464365.8014
   6615246.13315                  24473023.602
  -3586499.12947  -2792603.02745  21219656.3284                   21219653.1374
  -4972009.08246  -3868840.16843  22826297.9304                   22826295.0474
   3081293.31645   2386590.59442  24619387.0944                   24619387.0004
  -5508048.20746  -4285173.01643  23420435.1954                   23420434.4964
   2550001.13747   1977301.60245  20556129.4224                   20556126.1374
    677690.18047    522590.41845  21132928.1174                   21132922.8914
   6240333.62947   4841659.36744  21939210.5234                   21939206.6414
  -4217689.41046  -3287903.34843  23542391.5864                   23542388.5314
 11  8 17 17 12 30.0000000  0 10G03G06G07G08G10G11G13G19G23G28
   5844452.82846   4533879.08643  22486412.2424                   22486409.9964
   6737702.293 5                  24496326.656
  -3608506.37147  -2809751.52745  21215469.3914                   21215465.9734
  -5018642.97746  -3905178.25844  22817424.3054                   22817421.2814
   3156505.75445   2445197.69142  24633699.5784                   24633699.2074
  -5559505.32446  -4325269.43742  23410642.8364                   23410641.6524
   2628535.28947   2038497.02045  20571073.6024                   20571071.2344
    732264.03947    565115.50045  21143313.3364                   21143308.2774
   6362103.59047   4936544.97744  21962382.1884                   21962378.6054
  -4244486.95346  -3308784.50042  23537291.9304                   23537288.8554
 11  8 17 17 13  0.0000000  0 10G03G06G07G08G10G11G13G19G23G28
   5960642.00046   4624416.06643  22508522.6414                   22508519.9024
   6860353.207 5                  24519666.023
  -3630360.70747  -2826780.87545  21211310.3444                   21211307.2544
  -5065289.39846  -3941526.08643  22808546.7424                   22808545.3364
   3231938.96945   2503976.73042  24648054.6804                   24648054.5514
  -5610855.57046  -4365282.55543  23400871.8204                   23400869.5944
   2707615.69947   2100118.08645  20586122.2274                   20586119.1764
    787436.89147    608107.31645  21153812.3134                   21153807.3714
   6484197.33247   5031682.86344  21985615.8754                   21985612.3364
  -4271068.21146  -3329497.06643  23532232.7584                   23532231.4614
 11  8 17 17 13 30.0000000  0 10G03G06G07G08G10G11G13G19G23G28
   6077175.64146   4715221.45343  22530697.5784                   22530696.7234
   6983197.141 5                  24543041.523
  -3652059.53947  -2843689.05945  21207181.1094                   21207177.5274
  -5111946.58646  -3977882.31643  22799669.0164                   22799666.5274
   3307590.53145   2562925.88742  24662450.2194                   24662450.0554
  -5662095.56646  -4405209.74643  23391120.6724                   23391120.0824
   2787241.47347   2162164.11345  20601274.9224                   20601271.4924
    843207.98447    651565.30545  21164424.3984                   21164420.4224
   6606613.03547   5127071.64144  22008911.2114                   22008907.5044
  -4297432.96546  -3350041.02743  23527216.6094                   23527213.8094
 11  8 17 17 14  0.0000000  0 10G03G06G07G08G10G11G13G19G23G28
   6194048.37946   4806291.07043  22552937.4384                   22552936.4144
   7106228.602 5                  24566454.273
  -3673603.98047  -2860476.92245  21203081.7344                   21203078.0314
  -5158616.12946  -4014248.16043  22790787.9384                   22790785.4064
   3383454.78146   2622040.80142  24676886.2114                   24676886.4694
  -5713225.02046  -4445050.82443  23381391.0394                   23381390.4224
   2867408.15247   2224631.62545  20616530.0084                   20616527.0864
    899573.27047    695486.29745  21175150.7034                   21175145.9024
   6729345.02347   5222706.86344  22032266.0634                   22032262.7544
  -4323584.29746  -3370418.64543  23522239.7974                   23522237.8324
 11  8 17 17 14 30.0000000  0 10G03G06G07G08G10G11G13G19G23G28
   6311251.39146   4897618.05543  22575241.3594                   22575238.7304
   7229439.402 5                  24589900.039
  -3694998.19947  -2877147.73445  21199009.9694                   21199006.5314
  -5205302.86346  -4050627.39843  22781903.4384                   22781901.3634
   3459523.47746   2681315.04742  24691362.1414                   24691362.0124
  -5764246.29346  -4484807.59443  23371682.5314                   23371680.9654
   2948108.34847   2287514.86345  20631886.5314                   20631883.5274
    956525.84847    739864.91045  21185988.5164                   21185983.9144
   6852384.84847   5318581.95344  22055680.0474                   22055676.2154
  -4349528.41446  -3390634.75843  23517302.8204                   23517301.2034
 11  8 17 17 15  0.0000000  0 10G03G06G07G08G10G11G13G19G23G28
   6428788.14546   4989205.07843  22597607.9224                   22597605.6764
   7352833.059 5                  24613381.500
  -3716234.73447  -2893695.67645  21194969.2194                   21194965.7734
  -5252000.47746  -4087015.10543  22773017.0474                   22773015.4224
   3535799.50046   2740750.84042  24705878.0394                   24705876.8524
  -5815151.05546  -4524473.55543  23361995.3364                   23361993.7584
   3029346.39847   2350817.19545  20647345.6174                   20647342.7504
   1014070.46147    784704.87145  21196938.9384                   21196934.5904
   6975735.63347   5414699.37544  22079152.8594                   22079149.2344
  -4375260.20346  -3410685.46943  23512406.7274                   23512404.4104
 11  8 17 17 15 30.0000000  0 10G03G06G07G08G10G11G13G19G23G28
   6546659.50846   5081052.84843  22620037.9144                   22620036.3524
   7476411.070 5                  24636898.063
  -3737307.91447  -2910116.32445  21190958.6254                   21190955.6724
  -5298702.94946  -4123406.63344  22764130.7194                   22764128.2344
   3612284.80546   2800349.59042  24720431.1484                   24720431.7424
  -5865932.21546  -4564043.18043  23352332.8364                   23352330.4184
   3111124.50047   2414540.35945  20662907.6024                   20662904.6764
   1072209.91447    830008.32845  21208002.5784                   21207997.4104
   7099398.41447   5511059.88344  22102685.3914                   22102681.8634
  -4400775.88346  -3430567.74643  23507551.6334                   23507549.2154
 11  8 17 17 16  0.0000000  0 10G03G06G07G08G10G11G13G19G23G28
   6664851.71546   5173150.62543  22642529.4774                   22642527.3754
   7600160.262 5                  24660445.242
  -3758226.69547  -2926416.67245  21186977.9224                   21186975.0984
  -5345419.74246  -4159809.31244  22755239.7974                   22755237.4654
   3688965.97746   2860101.16042  24735023.5704                   24735023.3984
  -5916597.12146  -4603522.23043  23342690.3054                   23342689.6134
   3193430.32447   2478674.73845  20678569.9144                   20678567.1294
   1130932.30147    875766.02345  21219176.6884                   21219172.7734
   7223360.11347   5607653.33644  22126274.4924                   22126270.7074
  -4426086.38746  -3450290.18443  23502734.8834                   23502732.5164
 11  8 17 17 16 30.0000000  0 10G03G06G07G08G10G11G13G19G23G28
   6783360.65246   5265495.22743  22665079.9534                   22665078.2854
   7724076.473 5                  24684026.430
  -3778991.07047  -2942596.68745  21183026.3204                   21183023.8054
  -5392151.64146  -4196223.75844  22746347.3134                   22746344.9264
   3765838.31646   2920001.64142  24749652.9774                   24749652.2974
  -5967144.42246  -4642909.69143  23333072.4064                   23333070.5514
   3276260.69147   2543217.84445  20694331.8134                   20694328.9224
   1190234.51247    921975.52345  21230461.4064                   21230457.0554
   7347616.19147   5704476.14144  22149919.3754                   22149915.9104
  -4451194.28946  -3469854.69543  23497956.4844                   23497954.6994
 11  8 17 17 17  0.0000000  0 10G03G06G07G08G10G11G13G19G23G28
   6902189.46546   5358089.05143  22687692.0004                   22687692.2584
   7848163.148 5                  24707640.492
  -3799592.95347  -2958650.10545  21179105.8054                   21179102.9224
  -5438891.28546  -4232644.24643  22737453.7664                   22737450.5234
   3842905.14845   2980053.62542  24764318.1334                   24764316.6094
  -6017565.09046  -4682198.42643  23323477.1804                   23323476.0004
   3359619.60547   2608172.82045  20710194.7974                   20710192.0164
   1250121.52747    968640.72345  21241857.4384                   21241853.8284
   7472169.70747   5801530.74644  22173621.3834                   22173618.0004
  -4476093.91846  -3489256.95743  23493218.2664                   23493216.0984
 11  8 17 17 17 30.0000000  0 10G03G06G07G08G10G11G13G19G23G28
   7021328.32446   5450924.48043  22710363.1564                   22710362.8284
   7972411.168 5                  24731283.500
  -3820038.10947  -2974581.38345  21175215.5474                   21175212.6214
  -5485645.03146  -4269075.71544  22728555.9304                   22728553.8874
   3920156.72745   3040249.53942  24779017.5944                   24779018.3164
  -6067862.77746  -4721391.34043  23313905.4224                   23313903.8364
   3443498.61747   2673533.05145  20726156.0944                   20726153.5274
   1310584.90647   1015755.03145  21253363.7424                   21253359.1844
   7597011.23047   5898809.76644  22197378.1954                   22197374.5354
  -4500792.69146  -3508502.69543  23488518.6804                   23488515.8874
 11  8 17 17 18  0.0000000  0 10G03G06G07G08G10G11G13G19G23G28
   7140784.03146   5544006.79343  22733096.6094                   22733094.6134
   8096827.82415                  24754958.352
  -3840314.50847  -2990381.17245  21171357.0704                   21171354.1054
  -5532401.53546  -4305509.33644  22719658.2664                   22719656.1914
   3997600.34045   3100595.09442  24793754.4924                   24793754.6334
  -6118024.64146  -4760478.42643  23304360.6414                   23304358.2704
   3527905.82447   2739304.86745  20742218.3364                   20742215.7274
   1371633.16447   1063325.07445  21264981.1094                   21264976.5744
   7722147.85247   5996318.72344  22221190.6024                   22221187.4064
  -4525280.91046  -3527584.36743  23483858.2274                   23483855.9104
 11  8 17 17 18 30.0000000  0 10G03G06G07G08G10G11G13G19G23G28
   7260548.37546   5637329.60543  22755886.3834                   22755885.0354
   8221405.055 5                  24778666.836
  -3860426.36347  -3006052.74645  21167530.1884                   21167526.6454
  -5579165.08646  -4341948.44144  22710759.9224                   22710757.4224
   4075227.63345   3161083.87942  24808527.3984                   24808526.3244
  -6168053.54346  -4799461.89143  23294840.7034                   23294838.7704
   3612833.69547   2805482.38745  20758379.9774                   20758376.6564
   1433258.81347   1111345.05945  21276707.9694                   21276703.3754
   7847571.09847   6094051.02744  22245058.0394                   22245054.9104
  -4549565.07446  -3546507.02343  23479237.5004                   23479235.0514
 11  8 17 17 19  0.0000000  0 10G03G06G07G08G10G11G13G19G23G28
   7380617.70346   5730890.05143  22778733.9454                   22778733.4614
   8346139.781 5                  24802401.242
  -3880372.24647  -3021594.98845  21163734.3444                   21163731.2974
  -5625934.98846  -4378392.51644  22701859.3914                   22701857.1134
   4153035.17645   3221713.00842  24823333.0704                   24823333.6334
  -6217946.68446  -4838339.59843  23285345.7424                   23285343.5554
   3698280.00447   2872063.89545  20774639.9774                   20774637.6804
   1495460.50447   1159813.90245  21288544.2344                   21288540.2704
   7973277.61747   6192004.06344  22268979.2814                   22268975.3674
  -4573646.11746  -3565271.41043  23474654.6564                   23474652.0824
 11  8 17 17 19 30.0000000  0 10G03G06G07G08G10G11G13G19G23G28
   7500990.74646   5824687.16443  22801640.8364                   22801639.6254
   8471031.102 5                  24826167.906
  -3900149.26647  -3037005.65245  21159971.1884                   21159967.7624
  -5672708.87546  -4414839.67644  22692959.5084                   22692956.5044
   4231021.63745   3282481.63342  24838173.1024                   24838174.5704
  -6267700.03946  -4877108.34443  23275877.6644                   23275876.1884
   3784244.21547   2939048.94545  20790998.2894                   20790995.3594
   1558238.24647   1208731.60545  21300490.2734                   21300486.5354
   8099266.17647   6290176.85944  22292954.1564                   22292950.7774
  -4597523.14146  -3583876.81243  23470111.1254                   23470108.6174
 11  8 17 17 20  0.0000000  0 10G03G06G07G08G10G11G13G19G23G28
   7621669.32446   5918722.38343  22824605.1564                   22824603.8874
   8596080.852 5                  24849964.195
  -3919750.85247  -3052279.60945  21156240.8914                   21156238.1054
  -5719480.75046  -4451285.30544  22684058.7584                   22684056.2344
   4309189.293 5                  24853048.961
  -6317305.42246  -4915761.80943  23266438.2814                   23266436.7074
   3870729.04747   3006439.69545  20807455.9064                   20807453.3054
   1621595.16847   1258100.62545  21312547.3054                   21312542.7704
   8225538.22747   6388570.57444  22316983.1804                   22316979.1094
  -4621191.95746  -3602320.00443  23465607.1644                   23465604.3164
 11  8 17 17 20 30.0000000  0 10G03G06G07G08G10G11G13G19G23G28
   7742647.10946   6012990.72743  22847627.2034                   22847625.0084
   8721283.754 5                  24873789.648
  -3939178.74247  -3067418.23445  21152544.0634                   21152540.7774
  -5766252.81646  -4487731.02044  22675158.2504                   22675155.7154
   4387532.07015                  24867957.695
  -6366763.22346  -4954300.28943  23257026.8054                   23257025.0864
   3957729.93047   3074232.55145  20824011.2114                   20824008.5864
   1685526.07447   1307916.91045  21324712.8444                   21324708.3244
   8352087.80547   6487180.52744  22341065.1094                   22341061.2234
  -4644656.28546  -3620603.82443  23461142.0234                   23461138.9064
 11  8 17 17 21  0.0000000  0 10G03G06G07G08G10G11G13G19G23G28
   7863919.28546   6107488.48843  22870704.0474                   22870703.5474
                                  24897644.008
  -3958432.91447  -3082421.48445  21148879.9534                   21148876.7624
  -5813025.70746  -4524177.40644  22666257.2034                   22666255.0744
   4466044.863 5                  24882897.133
  -6416072.37146  -4992722.95343  23247642.7424                   23247640.8634
   4045242.38347   3142424.03545  20840664.6094                   20840661.8324
   1750027.92247   1358178.08645  21336986.9304                   21336982.2154
   8478910.21146   6586003.08244  22365198.3674                   22365194.8714
  -4667919.02746  -3638730.57043  23456715.5784                   23456712.6804
 11  8 17 17 21 30.0000000  0 10G03G06G07G08G10G11G13G19G23G28
   6410066.71146   4974616.29343  22594045.1954                   22594044.0864
                                  24621732.383
  -5552932.99247  -4324889.07445  20845456.6564                   20845453.9024
  -7435220.27046  -5788225.10944  22357564.5164                   22357561.9414
   2969306.816 5                  24598077.563
  -8040651.98446  -6258629.07843  22938495.8444                   22938494.9614
   2557846.84847   1983414.48445  20557622.9774                   20557619.8054
    239680.74247    181284.16445  21049577.4534                   21049573.0984
   7030586.29346   5457438.89844  22089591.1174                   22089588.5824
  -6266401.81646  -4884301.48443  23152533.5004                   23152531.4964
 11  8 17 17 22  0.0000000  0 10G03G06G07G08G10G11G13G19G23G28
   6531920.06346   5069566.90643  22617233.0164   22617231.7384   24645643.703
  -5571834.26247  -4339617.34045  20841860.0084                   20841856.9104
  -7481990.54746  -5824669.45744  22348664.2274                   22348661.7974
   3048152.387 5                  24613081.031
  -8089654.15646  -6296812.51243  22929170.9694                   22929168.6764
   2646377.36347   2052399.27345  20574469.2194                   20574466.3554
    305320.24247    232431.82445  21062068.1414                   21062063.9734
   7157946.52046
   5556680.53544                  22113827.7504                   22113824.1094
  -6289262.06246  -4902114.60543  23148183.2504                   23148181.4024
 11  8 17 17 22 30.0000000  0  9G03G07G08G10G11G13G19G23G28
   6654055.79346   5164737.54343  22640474.5234   22640473.0314
  -5590560.02747  -4354208.84445  20838296.3834                   20838293.2704
  -7528760.92646  -5861113.88744  22339763.6484                   22339761.9344
   3127156.406 5                  24628114.734
  -8138501.51646  -6334875.33643  22919876.0634                   22919874.0984
   2735410.42247   2121775.62545  20591411.9144                   20591408.9734
    371522.27347    284017.82045  21074666.2034                   21074662.1174
   7285567.80947   5656125.57844  22138113.0004                   22138109.9104
  -6311925.68446  -4919774.50843  23143871.5234                   23143868.3484
 11  8 17 17 23  0.0000000  0  9G03G07G08G10G11G13G19G23G28
   6776478.31346   5260131.67243  22663771.3444   22663769.6994
  -5609101.30947  -4368656.59445  20834768.8594                   20834765.3094
  -7575523.05146  -5897551.91044  22330866.1644                   22330863.1334
   3206323.258 5                  24643180.641
  -8187184.17246  -6372809.80943  22910611.8054                   22910609.7304
   2824951.24247   2191547.64845  20608451.0394                   20608448.0904
    438292.55547    336046.59045  21087372.1484                   21087367.5434
   7413454.66046   5755777.55544  22162448.7664                   22162445.8914
  -6334385.75046  -4937275.78943  23139597.3524                   23139593.9184
 11  8 17 17 23 30.0000000  0  9G03G07G08G10G11G13G19G23G28
   6899184.71546   5355747.00043  22687121.5704   22687119.8164
  -5627456.88347  -4382959.64145  20831275.4454                   20831271.9494
  -7622275.93046  -5933982.70744  22321968.6254                   22321966.4224
   3285650.00045   2545828.68853  24658276.1174                   24658277.9694
  -8235699.31646  -6410613.76243  22901379.5164                   22901377.3674
   2914997.74647   2261713.71945  20625585.9224                   20625583.5474
    505629.19947    388516.69545  21100185.7664                   21100181.6724
   7541603.43846   5855633.63744  22186835.8054                   22186832.3054
  -6356643.63346  -4954619.52343  23135361.1724                   23135358.0204
 11  8 17 17 24  0.0000000  0  9G03G07G08G10G11G13G19G23G28
   7022164.19546   5451575.08643  22710524.1724   22710523.0984
  -5645632.07447  -4397122.12945  20827816.6954                   20827813.3134
  -7669025.83246  -5970411.20344  22313072.8754                   22313070.3244
   3365126.23845   2607758.21142  24673401.1024                   24673400.4384
  -8284051.46946  -6448290.69943  22892178.2194                   22892177.2664
   3005539.99647   2332266.07845  20642815.8914                   20642813.3204
    573523.11747    441421.02745  21113105.1484                   21113101.3134
   7670003.92247   5955685.84844  22211269.1174                   22211265.5904
  -6378707.00846  -4971811.72743  23131162.6644                   23131159.7424
 11  8 17 17 24 30.0000000  0  9G03G07G08G10G11G13G19G23G28
   7145408.57846   5547609.59843  22733975.8984   22733974.5434
  -5663630.93747  -4411147.21545  20824391.5164                   20824388.2584
  -7715777.07046  -6006840.71544  22304176.1334                   22304173.5124
   3444744.05546   2669797.94143  24688551.3364                   24688551.1644
  -8332242.91446  -6485842.42243  22883008.1484                   22883006.1954
   3096570.78947   2403199.12545  20660139.0164                   20660135.7814
    641967.29747    494754.15645  21126130.1254                   21126125.7734
   7798647.96546   6055927.84844  22235749.0314                   22235746.0474
  -6400582.04746  -4988857.16843  23126999.6484                   23126997.3204
 11  8 17 17 25  0.0000000  0  9G03G07G08G10G11G13G19G23G28
   7268919.90646   5643852.15243  22757479.5314   22757478.8094
  -5681447.03147  -4425029.88745  20821001.2424                   20820997.9734
  -7762523.68446  -6043266.63344  22295280.3054                   22295277.8634
   3524505.15245   2731949.34842  24703729.5704                   24703729.3984
  -8380266.08646  -6523263.03943  22873869.1174                   22873868.0044
   3188092.41447   2474514.63745  20677554.8054                   20677551.6524
    710964.36747    548518.09045  21139260.1884                   21139255.3244
   7927537.12546   6156360.85944  22260276.4844                   22260272.7664
  -6422264.85546  -5005752.81643  23122873.7894                   23122871.1914
 11  8 17 17 25 30.0000000  0  9G03G07G08G10G11G13G19G23G28
   7392702.30546   5740305.91443  22781034.7424   22781033.2234
  -5699071.05547  -4438762.89545  20817647.3444                   20817644.2974
  -7809256.74646  -6079681.99644  22286387.4694                   22286385.2774
   3604413.89846   2794215.86743  24718934.8134                   24718936.1564
  -8428110.28546  -6560544.17243  22864764.7344                   22864763.7234
   3280109.96147   2546216.57845  20695065.0944                   20695062.6094
    780520.00847    602717.26645  21152495.9224                   21152491.8164
   8056675.98046   6256988.41444  22284850.9534                   22284847.7154
  -6443748.78946  -5022493.50443  23118785.2584                   23118782.1914
 11  8 17 17 26  0.0000000  0  9G03G07G08G10G11G13G19G23G28
   7516753.59846   5836969.20343  22804642.0474   22804640.3134
  -5716500.58247  -4452344.34445  20814330.5634                   20814327.8364
  -7855974.55546  -6116085.46544  22277496.8054                   22277494.6604
   3684468.21946   2856595.77043  24734169.0314                   24734169.5354
  -8475772.01246  -6597683.08643  22855695.1094                   22855692.6134
   3372622.44547   2618304.17245  20712669.5864                   20712666.5664
    850633.16847    657350.88345  21165837.8594                   21165833.6604
   8186062.76646   6357809.14543  22309472.3754                   22309469.1914
  -6465033.61346  -5039079.04343  23114735.1724                   23114732.1994
 11  8 17 17 26 30.0000000  0  9G03G07G08G10G11G13G19G23G28
   7641070.16446   5933839.20743  22828297.5634   22828296.9384
  -5733734.88347  -4465773.66845  20811051.1414                   20811047.7234
  -7902676.96546  -6152476.94944  22268610.1884                   22268607.4384
   3764664.35246   2919086.16842  24749430.1024                   24749430.3754
  -8523249.27346  -6634678.30543  22846660.2274                   22846658.3014
   3465626.55947   2690774.87145  20730368.1884                   20730364.8594
    921300.93047    712416.66045  21179285.0004                   21179280.9884
   8315693.07446   6458819.65644  22334139.8984                   22334136.5904
  -6486120.87946  -5055510.64843  23110722.0004                   23110719.4924
 11  8 17 17 27  0.0000000  0  9G03G07G08G10G11G13G19G23G28
   7765646.22346   6030911.40243  22852003.8914   22852002.4304
  -5750774.91447  -4479051.60945  20807808.3984                   20807804.9304
  -7949364.79746  -6188857.03544  22259725.5634                   22259722.9694
   3844997.10246   2981683.03143  24764717.6414                   24764717.5704
  -8570541.58246  -6671529.38743  22837660.7504                   22837659.4104
   3559117.42247   2763624.84445  20748158.0474                   20748156.2424
    992519.00847    767911.25045  21192837.9924                   21192833.4384
   8445561.30146   6560015.54744  22358853.3754                   22358849.7584
  -6507014.19946  -5071791.11743  23106746.4924                   23106743.1994
 11  8 17 17 27 30.0000000  0  9G03G07G08G10G11G13G19G23G28
   7890480.88746   6128185.10543  22875759.2584   22875757.5044
  -5767616.85947  -4492175.20745  20804603.5634                   20804600.4184
  -7996035.08646  -6225223.47344  22250844.0234                   22250842.0474
   3925465.05945   3044385.19943  24780029.8834                   24780029.9024
  -8617644.13746  -6708232.59043  22828697.8364                   22828695.4774
   3653094.82447   2836853.94545  20766041.8284                   20766039.3954
   1064287.53147    823834.75845  21206494.7814                   21206490.6914
   8575666.50046   6661396.09444  22383611.6174                   22383608.4884
  -6527712.21146  -5087919.41043  23102807.7894                   23102804.9104
 11  8 17 17 28  0.0000000  0  9G03G07G08G10G11G13G19G23G28
   8015566.22746   6225654.12542  22899562.3674   22899560.5594
  -5784263.73447  -4505146.78945  20801436.3594                   20801432.2704
  -8042691.19146  -6261578.85944  22241966.3754                   22241964.1054
   4006060.82445   3107186.99242  24795366.3674                   24795367.1684
  -8664558.65246  -6744789.30543  22819769.7504                   22819768.5744
   3747551.67647   2910456.64845  20784016.5864                   20784013.9804
   1136599.61747    880181.83245  21220255.8834                   21220250.9694
   8706001.14146   6762955.45744  22408412.9534                   22408409.8404
  -6548220.50046  -5103899.89543  23098904.7974                   23098902.0824
 11  8 17 17 28 30.0000000  0  9G03G07G08G10G11G13G19G23G28
   8140901.32846   6323317.83243  22923413.1884   22923411.8954
  -5800712.34047  -4517963.88345  20798305.7814                   20798302.1764
  -8089330.01246  -6297920.78144  22233091.2664                   22233088.5164
   4086783.46946   3170087.67642  24810727.8674                   24810728.3244
  -8711280.21546  -6781195.65243  22810879.0084                   22810877.4924
   3842487.50447   2984432.55945  20802082.0864                   20802079.5204
   1209455.28947    936952.46945  21234119.5474                   21234115.0314
   8836564.02347   6864692.60543  22433259.1174                   22433256.0394
  -6568538.10246  -5119731.75043  23095038.3524                   23095036.3444
 11  8 17 17 29  0.0000000  0 10G03G24G07G08G10G11G13G19G23G28
   8266482.14146   6421172.89843  22947309.9144   22947308.5634
  -3216044.32055  -2495805.56653  24294754.3204                   24294757.9064
  -5816961.64547  -4530625.68445  20795213.4924                   20795210.5904
  -8135951.19946  -6334248.94944  22224218.9534                   22224217.1294
   4167629.01645   3233084.11342  24826111.8134                   24826112.6914
  -8757806.81646  -6817450.07043  22802025.0864                   22802023.9574
   3937899.09447   3058779.21545  20820238.0234                   20820235.8244
   1282851.48847    994144.30545  21248086.3134                   21248082.1564
   8967350.70746   6966604.18444  22458146.9924                   22458143.8834
  -6588666.55146  -5135416.22743  23091209.0944                   23091206.6134
 11  8 17 17 29 30.0000000  0 10G03G24G07G08G10G11G13G19G23G28
   8392300.45746   6519213.07443  22971252.6254   22971250.9104
  -3263314.54345  -2532639.28542  24285758.5164                   24285762.5904
  -5833015.32447  -4543135.04745  20792159.1024                   20792155.7854
  -8182558.80146  -6370566.54744  22215350.3674                   22215347.7234
   4248588.99245   3296169.70342  24841518.4774                   24841519.5204
  -8804141.20746  -6853554.71943  22793208.1644                   22793206.1994
   4033778.69947   3133490.54745  20838483.5864                   20838480.8484
   1356780.85947   1051751.60245  21262154.8834                   21262150.0784
   9098353.08246   7068683.82843  22483075.8204                   22483072.3324
  -6608611.87946  -5150958.00843  23087413.3204                   23087410.6524
 11  8 17 17 30  0.0000000  0 10G03G24G07G08G10G11G13G19G23G28
   8518352.56346   6617435.44542  22995239.9144   22995237.0434
  -3310664.55946  -2569535.29743  24276748.9454                   24276753.1214
  -5848872.25047  -4555491.09845  20789141.2194                   20789138.0664
  -8229152.12646  -6406873.02044  22206483.7344                   22206480.9774
   4329660.44545   3359342.14142  24856946.1254                   24856946.7464
  -8850280.96146  -6889507.69943  22784428.2894                   22784426.0744
   4130123.36347   3208564.25845  20856817.9224                   20856815.0474
   1431241.12147   1109772.57045  21276324.3134                   21276320.1604
   9229568.12146   7170929.17644  22508045.7504                   22508042.5514
  -6628375.70746  -5166358.38343  23083651.9384                   23083649.2584
 11  8 17 17 30 30.0000000  0  9G03G24G07G08G11G13G19G23G28
   8644634.16446   6715836.66042  23019270.2734   23019267.6134
  -3358093.10945  -2606492.45743  24267722.9534                   24267727.5704
  -5864531.96547  -4567693.47745  20786161.2114                   20786158.0784
  -8275731.60546  -6443168.71144  22197619.9534                   22197617.3954
  -8896224.42246  -6925307.72343  22775684.6954                   22775682.8714
   4226929.24647   3283997.37145  20875238.8984                   20875236.3404
   1506228.36347   1168204.17645  21290593.7584                   21290589.1294
   9360990.94946   7273336.42643  22533054.8594                   22533051.4454
  -6647960.34446  -5181619.09443  23079925.7274                   23079922.6414
 11  8 17 17 31  0.0000000  0  9G03G24G07G08G11G13G19G23G28
   8771150.06345   6814420.42643  23043346.5314   23043342.7114
  -3405589.77746  -2643502.71143  24258683.9844                   24258689.2274
  -5879984.95747  -4579734.76245  20783220.7814                   20783217.3364
  -8322287.58646  -6479446.07844  22188760.8594                   22188758.2384
  -8941960.46946  -6960946.11343  22766981.6094                   22766979.3954
   4324202.06647   3359794.32445  20893749.6804                   20893747.0474
   1581748.53546   1227051.04745  21304964.8914                   21304960.5664
   9492626.44146   7375909.43443  22558103.6174                   22558100.8594
  -6667358.31646  -5196734.36343  23076233.7504                   23076231.0824
 11  8 17 17 31 30.0000000  0  9G03G24G07G08G11G13G19G23G28
   8897894.59045   6913182.30143  23067465.7034   23067463.1884
  -3453155.04346  -2680566.42643  24249631.9534                   24249637.2384
  -5895232.68747  -4591616.10945  20780319.0394                   20780315.6764
  -8368821.54746  -6515706.31244  22179905.5864                   22179902.9414
  -8987489.58646  -6996423.28543  22758317.3054                   22758316.0944
   4421936.46147   3435950.94545  20912347.5704                   20912344.8364
   1657796.62947   1286309.28545  21319436.4774                   21319431.9774
   9624468.44146   7478643.31644  22583192.4844                   22583189.4344
  -6686573.49246  -5211707.21943  23072576.6484                   23072574.2114
 11  8 17 17 32  0.0000000  0  9G03G24G07G08G11G13G19G23G28
   9024868.09045   7012122.63742  23091627.0944   23091625.4574
  -3500782.50046  -2717678.59843  24240570.0554                   24240573.1454
  -5910269.57047  -4603333.15245  20777457.9304                   20777454.5704
  -8415328.59446  -6551945.54744  22171055.6254                   22171052.7344
  -9032804.95346  -7031733.86743  22749694.6564                   22749692.5944
   4520133.02747   3512467.69945  20931033.8834                   20931031.6454
   1734374.29747   1345980.17245  21334008.7274                   21334003.9734
   9756517.84846   7581538.80143  22608320.8754                   22608317.7194
  -6705603.39546  -5226535.66843  23068955.7974                   23068953.7974
 11  8 17 17 32 30.0000000  0  9G03G24G07G08G11G13G19G23G28
   9152066.53545   7111238.24642  23115832.0784   23115830.1764
  -3548470.92646  -2754838.32843  24231495.0004                   24231498.6484
  -5925095.13347  -4614885.54345  20774636.5314                   20774633.0944
  -8461808.70746  -6588163.81644  22162210.9144                   22162207.9454
  -9077904.92646  -7066876.65643  22741112.3204                   22741110.1414
   4618788.36347   3589341.94545  20949807.4924                   20949804.8134
   1811477.91047   1406060.91045  21348681.0474                   21348676.7464
   9888770.11346   7684592.34843  22633487.7114                   22633485.2384
  -6724449.98046  -5241221.30943  23065369.6644                   23065366.5944
 11  8 17 17 33  0.0000000  0  9G03G24G07G08G11G13G19G23G28
   9279494.11345   7210532.39142  23140079.9304   23140078.4614
  -3596210.55146  -2792037.92242  24222410.2424                   24222414.0234
  -5939700.57047  -4626266.40245  20771857.1414                   20771853.5474
  -8508253.41047  -6624354.46944  22153372.6254                   22153369.4884
  -9122779.34846  -7101843.66843  22732572.2194                   22732570.1724
   4717907.46147   3666577.53545  20968669.2664                   20968666.8134
   1889112.56647   1466555.43445  21363453.8984                   21363450.2114
  10021229.64846   7787807.43444  22658694.2114                   22658691.6954
  -6743106.89546  -5255759.09843  23061819.1334                   23061816.8204
 11  8 17 17 33 30.0000000  0  9G03G24G07G08G11G13G19G23G28
   9407141.14546   7309997.58242  23164371.3444   23164368.5004
  -3644005.27045  -2829280.43742  24213315.0394                   24213318.6374
  -5954091.06647  -4637479.78145  20769119.1564                   20769115.6094
  -8554668.12146  -6660521.76644  22144540.3444                   22144537.6724
  -9167431.92246  -7136637.80943  22724075.7424                   22724073.6174
   4817480.96147   3744167.23045  20987617.7504                   20987615.2344
   1967269.35547   1527456.80945  21378327.3204                   21378322.6414
  10153886.58246   7891176.32043  22683938.4064                   22683935.6844
  -6761581.37146  -5270154.80943  23058303.5634                   23058300.6764
 11  8 17 17 34  0.0000000  0  9G03G24G07G08G11G13G19G23G28
   9535000.13745   7409627.93842  23188701.9844   23188699.5864
  -3691856.91845  -2866567.35942  24204208.5634                   24204212.4774
  -5968269.21947  -4648527.69145  20766420.9384                   20766417.9964
  -8601055.97346  -6696668.14544  22135712.8284                   22135709.8364
  -9211864.63746  -7171260.63343  22715620.7274                   22715618.2114
   4917501.38347   3822105.16445  21006650.6644                   21006648.5004
   2045941.57047   1588759.82445  21393297.8674                   21393293.2504
  10286733.22346   7994693.01243  22709218.5394                   22709215.6094
  -6779879.29746  -5284412.88743  23054821.1954                   23054818.6844
 11  8 17 17 34 30.0000000  0  9G03G24G07G08G11G13G19G23G28
   9663071.90245   7509423.99642  23213074.0704   23213071.3714
  -3739759.19145  -2903893.73442  24195092.6804                   24195096.3594
  -5982229.80547  -4659406.06645  20763764.1094                   20763760.7544
  -8647411.78147  -6732789.54344  22126891.5084                   22126888.7624
  -9256070.73846  -7205706.85943  22707208.6954                   22707205.7854
   5017970.41047   3900392.67245  21025769.8834                   21025767.3524
   2125130.68847   1650465.61345  21408367.6414                   21408362.4344
  10419770.14546   8098357.99243  22734534.1954                   22734531.4494
  -6797997.71546  -5298531.07843  23051373.4384                   23051371.2304
 11  8 17 17 35  0.0000000  0  9G03G24G07G08G11G13G19G23G28
   9791349.32845   7609380.38742  23237483.6254   23237481.7464
                                  24185966.6254                   24185970.7274
  -5995974.18047  -4670115.96545  20761148.7194                   20761145.6644
  -8693737.43447  -6768887.43744  22118076.0784                   22118073.4534
  -9300051.01246  -7239977.12943  22698838.3834                   22698836.2504
   5118881.68847   3979024.79745  21044972.1174                   21044969.9414
   2204830.75047   1712569.53945  21423533.3674                   21423528.4304
  10552990.76646   8202166.11743  22759885.5314                   22759882.5634
  -6815941.14146  -5312512.96943  23047959.5164                   23047956.0084
 11  8 17 17 35 30.0000000  0  9G03G24G07G08G11G13G19G23G28
   9919829.50045   7709494.73442  23261932.6334   23261930.9774
                                  24176832.8674                   24176836.1374
  -6009501.41047  -4680656.65245  20758574.2274                   20758570.7664
  -8740032.34847  -6804961.39544  22109266.8364                   22109264.1724
  -9343803.15246  -7274069.61343  22690512.3754                   22690510.6054
   5220231.97747   4057999.00045  21064258.7194                   21064256.0354
   2285038.80147   1775069.30545  21438796.6094                   21438791.8914
  10686391.44546   8306114.54343  22785271.0004                   22785268.1254
  -6833710.89846  -5326359.50843  23044578.2274                   23044575.3594
 11  8 17 17 36  0.0000000  0  9G03G24G07G08G11G13G19G23G28
  10048511.62145   7809766.48442  23286419.4304   23286417.8244
  -3883764.01655  -3016104.82452  24167689.8134                   24167693.2074
  -6022807.98847  -4691025.42645  20756042.6564                   20756039.7894
  -8786292.67247  -6841008.39144  22100462.9924                   22100460.5824
  -9387321.77346  -7307980.14843  22682231.3364                   22682229.5434
   5322021.46147   4137315.42245  21083628.2894                   21083625.8834
   2365755.46947   1837965.39845  21454156.4614                   21454151.6454
  10819971.35946   8410202.60943  22810691.0394                   22810687.6564
  -6851305.68746  -5340069.69143  23041228.8914                   23041227.3954
 11  8 17 17 36 30.0000000  0  9G03G24G07G08G11G13G19G23G28
  10177389.31645   7910190.61742  23310945.0704   23310943.1024
  -3931857.13745  -3053579.93742  24158537.5084                   24158540.5984
  -6035895.22747  -4701223.27745  20753551.5394                   20753548.5944
  -8832520.75046  -6877030.26644  22091665.9454                   22091663.3014
  -9430607.65246  -7341709.34443  22673994.7664                   22673992.6644
   5424243.59847   4216968.99245  21103080.2734                   21103078.6174
   2446974.55547   1901252.98445  21469611.2894                   21469607.1024
  10953724.36346   8514425.53943  22836143.5704                   22836140.3834
  -6868729.89546  -5353647.00043  23037914.5474                   23037911.0394
 11  8 17 17 37  0.0000000  0  9G03G24G07G08G11G13G19G23G28
  10306460.32845   8010765.31642  23335505.4614   23335504.7424
  -3979991.67245  -3091087.20342  24149378.7034                   24149381.6254
  -6048760.36347  -4711248.05545  20751103.9064                   20751100.5824
  -8878713.71947  -6913024.75844  22082875.9614                   22082873.7544
  -9473656.78146  -7375254.05143  22665803.2114                   22665800.5124
   5526896.77347   4296958.43845  21122615.4224                   21122612.6604
   2528694.75047   1964931.03945  21485163.1644                   21485158.3364
  11087648.26646   8618781.66443  22861627.6564                   22861624.9414
  -6885983.34046  -5367091.18743  23034630.2274                   23034627.9224
 11  8 17 17 37 30.0000000  0  9G03G24G07G08G11G13G19G23G28
  10435726.08245   8111491.82842  23360103.7274   23360102.4104
  -4028161.31245  -3128621.87942  24140211.7344                   24140214.8134
  -6061397.78147  -4721095.40245  20748699.0784                   20748695.8134
  -8924866.75847  -6948988.15644  22074093.3594                   22074090.6764
  -9516462.32846  -7408608.94143  22657656.6954                   22657654.8594
   5629982.36747   4377284.81345  21142231.8284                   21142229.1914
   2610917.69547   2029000.83645  21500809.4844                   21500805.0474
  11221743.62946   8723271.39143  22887146.1884                   22887143.0944
  -6903063.12146  -5380400.08643  23031380.4534                   23031377.7814
 11  8 17 17 38  0.0000000  0  9G03G24G07G08G11G13G19G23G28
  10565174.75445   8212360.79342  23384738.3284   23384735.5704
  -4076371.73046  -3166188.30142  24131037.5314                   24131040.2504
  -6073814.52747  -4730770.77745  20746335.8984                   20746332.5664
  -8970986.85946  -6984925.87144  22065317.4454                   22065314.1564
  -9559030.05146  -7441778.53543  22649556.7424                   22649553.8914
   5733489.13347   4457939.39145  21161928.1954                   21161926.3284
   2693632.22347   2093453.69945  21516549.4064                   21516544.6174
  11355998.94946   8827885.77343  22912693.2344                   22912690.6294
  -6919978.73046  -5393581.03143  23028162.1414                   23028158.1454
 11  8 17 17 38 30.0000000  0  9G03G24G07G08G11G13G19G23G28
  10694809.90245   8313375.14842  23409406.9064   23409403.9104
  -4124613.75446  -3203779.34042  24121856.4454                   24121860.7304
  -6086002.18747  -4740267.66845  20744017.2274                   20744013.6054
  -9017065.83647  -7020831.55544  22056548.6254                   22056546.1884
  -9601350.34046  -7474755.31643  22641503.2034                   22641501.1254
   5837421.08647   4538925.27345  21181706.2424                   21181703.4614
   2776842.95347   2158293.21145  21532383.9774                   21532379.4304
  11490417.63746   8932627.37943  22938272.6174                   22938270.7194
  -6936724.10946  -5406629.33643  23024975.1484                   23024972.0274
 11  8 17 17 39  0.0000000  0  9G03G24G07G08G11G13G19G23G28
  10824630.81645   8414534.26642  23434111.1644   23434108.7424
  -4172882.62545  -3241391.32442  24112671.6174                   24112675.1564
  -6097956.99247  -4749583.10245  20741742.1094                   20741738.8554
  -9063100.21147  -7056702.48444  22047788.0314                   22047785.8954
  -9643418.61746  -7507535.71143  22633497.8204                   22633495.5744
   5941777.66847   4620242.03945  21201564.6254                   21201562.0864
   2860549.33647   2223518.94145  21548311.9694                   21548307.9224
  11624998.42246   9037495.31643  22963882.6954                   22963880.6054
  -6953298.78946  -5419544.65243  23021820.8914                   23021817.6024
 11  8 17 17 39 30.0000000  0  9G03G24G07G08G11G13G19G23G28
  10954632.47345   8515834.14842  23458848.4694   23458847.9344
  -4221177.53146  -3279023.54742  24103482.1644                   24103484.4064
  -6109678.98447  -4758717.12545  20739511.3984                   20739508.6414
  -9109090.24647  -7092538.86744  22039036.8364                   22039033.8674
  -9685233.77746  -7540118.87943  22625540.6334                   22625538.3594
   6046553.75847   4701885.69145  21221503.0004                   21221500.5314
   2944746.90647   2289127.40645  21564334.9064                   21564330.8054
  11759736.89546   9142486.16043  22989522.5864                   22989520.2624
  -6969705.30946  -5432328.91443  23018698.6564                   23018696.0234
 11  8 17 17 40  0.0000000  0  9G03G24G07G08G11G13G19G23G28
  11084810.54345   8617271.52742  23483621.5164   23483619.7814
  -4269497.18746  -3316675.01242  24094287.1644                   24094289.9454
  -6121167.91047  -4767669.53545  20737324.7734                   20737322.3204
  -9155035.94547  -7128340.70344  22030293.7274                   22030291.0044
  -9726794.20746  -7572503.59443  22617631.2344                   22617629.6844
   6151745.51247   4783853.24244  21241520.4384                   21241517.5784
   3029432.05547   2355115.80545  21580450.5394                   21580445.7074
  11894628.26646   9247596.13343  23015193.0164                   23015189.5514
  -6985946.12146  -5444984.05543  23015608.0314                   23015605.1914
 11  8 17 17 40 30.0000000  0  9G03G24G07G08G11G13G19G23G28
  11215164.79345   8718846.22342  23508427.7664   23508426.0664
  -4317836.27345  -3354341.68442  24085086.8364                   24085091.2424
  -6132419.47347  -4776436.98845  20735183.9064                   20735181.1644
  -9200933.07047  -7164104.68044  22021560.3444                   22021557.3164
  -9768094.71946  -7604685.74643  22609772.3524                   22609770.1174
   6257352.93847   4866144.70745  21261616.2974                   21261614.2774
   3114604.82847   2421484.18045  21596657.3134                   21596653.9104
  12029672.04346   9352824.80943  23040889.9224                   23040888.1564
  -7002019.35946  -5457508.62544  23012549.2194                   23012546.7854
 11  8 17 17 41  0.0000000  0  9G03G24G07G08G11G13G19G23G28
  11345691.11745   8820555.06342  23533265.9774   23533264.2384
  -4366193.10545  -3392022.15242  24075885.3054                   24075889.5474
  -6143432.75447  -4785018.76645  20733088.2114                   20733085.5984
  -9246781.49647  -7199830.72744  22012835.3674                   22012832.8794
  -9809133.46546  -7636663.97343  22601963.8054                   22601960.9144
   6363372.15247   4948757.02045  21281791.1954                   21281788.9734
   3200261.36347   2488229.50845  21612958.2034                   21612953.2344
  12164864.03546   9458169.04743  23066616.4924                   23066614.4734
  -7017927.29746  -5469904.37543  23009522.5474                   23009519.1764
 11  8 17 17 41 30.0000000  0  9G03G24G07G08G11G13G19G23G28
  11476381.12945   8922391.37942  23558135.6414   23558134.7154
  -4414570.05146  -3429718.27742  24066679.7344                   24066682.5664
  -6154211.64547  -4793417.91045  20731037.2034                   20731034.0434
  -9292584.41847  -7235521.30944  22004118.6414                   22004116.5204
  -9849912.60246  -7668439.85543  22594203.1724                   22594200.5354
   6469795.12147   5031683.95744  21302042.7894                   21302040.7544
   3286394.73847   2555346.39145  21629348.8054                   21629343.9224
  12300195.90646   9563622.23843  23092369.5944                   23092367.5234
  -7033676.02046  -5482176.05943  23006525.3754                   23006522.9924
 11  8 17 17 42  0.0000000  0  9G03G24G07G08G11G13G19G23G28
  11607235.92245   9024356.08242  23583035.4454   23583034.3364
  -4462960.72346  -3467425.05942  24057470.9694                   24057474.3754
  -6164750.53147  -4801630.03945  20729031.8204                   20729028.7624
  -9338336.91447  -7271172.58644  21995412.2894                   21995410.3914
  -9890425.61346  -7700008.39543  22586493.9144                   22586491.4344
   6576623.03547   5114926.44145  21322371.6094                   21322369.4494
   3373005.87547   2622835.57445  21645830.0474                   21645825.4184
  12435668.60946   9669185.16843  23118149.6644                   23118147.3054
  -7049262.74646  -5494321.52744  23003559.6334                   23003556.0634
 11  8 17 17 42 30.0000000  0  9G03G24G07G08G11G13G19G23G28
  11738248.28545   9126443.59042  23607966.3754   23607964.8014
  -4511367.10246  -3505144.14543  24048258.9924                   24048262.3634
  -6175052.28947  -4809657.37145  20727071.3204                   20727068.3794
  -9384041.72747  -7306786.71544  21986715.3524                   21986712.9804
  -9930674.44146  -7731371.06243  22578834.8204                   22578832.1524
   6683848.16447   5198478.43845  21342775.9224                   21342773.9494
   3460087.36747   2690691.26645  21662401.0394                   21662396.2624
  12571274.34846   9774851.77043  23143954.8054                   23143952.2774
  -7064693.01246  -5506345.07443  23000623.1414                   23000620.2584
 11  8 17 17 43  0.0000000  0  9G03G24G07G08G11G13G19G23G28
                                  23632926.789
  -4559786.64846  -3542873.46142  24039045.6724                   24039048.0124
  -6185115.60947  -4817498.93045  20725156.3754                   20725153.3594
  -9429698.17246  -7342363.15644  21978026.6094                   21978024.3524
  -9970656.72746  -7762526.05543  22571226.2664                   22571223.7074
   6791467.09047   5282337.27745  21363255.4304                   21363253.1024
   3547636.60247   2758911.43445  21679060.5234                   21679056.2034
  12707009.42246   9880619.17243  23169783.6254                   23169781.8674
  -7079968.32846  -5518247.86743  22997716.3284                   22997713.0394
 11  8 17 17 43 30.0000000  0  9G03G24G07G08G11G13G19G23G28
  12000733.043 5                  23657915.563
  -4608215.52346  -3580610.04342  24029829.7344                   24029832.5474
  -6194937.41047  -4825152.28545  20723287.4064                   20723284.1844
  -9475303.32447  -7377899.61344  21969348.7034                   21969346.2074
 -10010368.43746  -7793470.20343  22563669.1414                   22563667.3984
   6899478.69947   5366502.12144  21383809.5704                   21383807.2934
   3635652.34847   2827495.10545  21695809.7114                   21695805.5084
  12842872.01646   9986485.89143  23195638.3984                   23195635.6334
  -7095088.35546  -5530029.67243  22994839.5394                   22994835.8674
 11  8 17 17 44  0.0000000  0  9G03G24G07G08G11G13G19G23G28
  12132206.121 5                  23682935.172
  -4656645.67646  -3618347.62142  24020612.3834                   24020616.0124
  -6204510.63347  -4832611.94945  20721466.2584                   20721462.9224
  -9520850.07447  -7413390.59844  21960681.0164                   21960679.4534
 -10049801.15246  -7824196.94543  22556165.0634                   22556163.5634
   7007885.63747   5450975.00444  21404438.3284                   21404436.3204
   3724137.00447   2896444.16445  21712648.5394                   21712643.1134
  12978864.41446  10092453.77743  23221516.4304                   23221514.6644
  -7110048.85246  -5541687.16043  22991991.8754                   22991988.8284
 11  8 17 17 44 30.0000000  0  9G03G24G07G08G11G13G19G23G28
  12263826.488 5                  23707981.922
  -4705078.85546  -3656087.55543  24011397.1884                   24011399.7544
  -6213837.86747  -4839879.93045  20719690.6334                   20719687.6024
  -9566341.64147  -7448838.55944  21952024.6804                   21952022.7344
 -10088956.70746  -7854707.72744  22548714.1484                   22548712.1374
   7116680.13747   5535749.88745  21425141.8524                   21425139.5824
   3813083.62147   2965753.20745  21729573.6094                   21729569.4184
  13114979.08646  10198516.94543  23247419.2504                   23247416.8674
  -7124855.38746  -5553224.69943  22989173.9064                   22989171.3404
 11  8 17 17 45  0.0000000  0  9G03G24G07G08G11G13G19G23G28
  12395596.227 5                  23733057.086
  -4753507.34445  -3693823.84442  24002180.9614                   24002183.7894
  -6222912.91447  -4846951.39845  20717963.6254                   20717960.4694
  -9611771.36747  -7484238.33644  21943379.4924                   21943377.1644
 -10127827.53546  -7884996.64144  22541317.7664                   22541315.7154
   7225864.27047   5620828.37545  21445918.0944                   21445915.9614
   3902494.55947   3035424.03945  21746588.1024                   21746584.0594
  13251217.70346  10304676.69143  23273344.4384                   23273342.0864
  -7139503.70746  -5564638.93743  22986386.8984                   22986384.1414
 11  8 17 17 45 30.0000000  0  9G03G24G07G08G11G13G19G23G28
  12527509.08615                  23758158.531
  -4801931.12545  -3731556.46142  23992966.1804                   23992969.4384
  -6231736.64147  -4853827.03145  20716284.6954                   20716281.1334
  -9657140.79747  -7519591.12544  21934745.9144                   21934743.4304
 -10166413.80546  -7915063.83243  22533974.6884                   22533972.9104
   7335432.38747   5706206.07444  21466768.5704                   21466766.0634
   3992364.09047   3105452.22745  21763690.6334                   21763685.5824
  13387574.37146  10410928.39543  23299291.6564                   23299289.8754
  -7153998.08646  -5575933.23443  22983628.4454                   22983625.3524
 11  8 17 17 46  0.0000000  0  9G03G24G07G08G11G13G19G23G28
  12659574.480 5                  23783290.203
  -4850335.43445  -3769273.92642  23983754.1724                   23983758.3054
  -6240295.64147  -4860496.39845  20714655.6414                   20714652.6094
  -9702435.77747  -7554885.91844  21926127.0474                   21926124.8284
 -10204700.56646  -7944897.63743  22526688.7814                   22526687.3204
   7445393.64147   5791890.10545  21487693.9844                   21487691.0904
   4082702.55947   3175845.82045  21780880.7344                   21780877.0274
  13524058.18446  10517279.19943  23325264.4224                   23325262.0554
  -7168327.55946  -5587099.04343  22980902.5234                   22980898.4024
 11  8 17 17 46 30.0000000  0  9G03G24G07G08G11G13G19G23G28
  12791781.090 5                  23808447.695
  -4898726.64845  -3806981.17242  23974545.6954                   23974548.9534
  -6248596.83247  -4866964.86745  20713076.2814                   20713072.8404
  -9747663.95347  -7590128.62544  21917520.0394                   21917517.1454
 -10242693.78946  -7974502.69944  22519459.2114                   22519456.4614
   7555736.08647   5877871.18844  21508691.2664                   21508688.8554
   4173497.14147   3246594.82445  21798158.6024                   21798153.7734
  13660656.72346  10623719.37143  23351258.6564                   23351256.0704
  -7182502.05546  -5598144.07443  22978204.0784                   22978201.6454
 11  8 17 17 47  0.0000000  0  9G03G24G07G08G11G13G19G23G28
  12924121.184 5                  23833631.094
  -4947106.34846  -3844679.47342  23965340.4224                   23965342.2274
  -6256642.75447  -4873234.43445  20711544.9774                   20711541.4414
  -9792828.19547  -7625321.53944  21908925.7034                   21908922.9494
 -10280395.25846  -8003880.42644  22512284.8444                   22512282.3094
   7666452.52747   5964143.68444  21529760.8524                   21529757.7274
   4264741.42247   3317694.23845  21815521.2034                   21815517.2704
  13797362.99246  10730243.50043  23377274.0004                   23377271.3404
  -7196526.50046  -5609072.18743  22975535.6094                   22975532.4804
 11  8 17 17 47 30.0000000  0  9G03G24G07G08G11G13G19G23G28
  13056595.512 5                  23858840.352
  -4995468.19146  -3882363.86342  23956136.2584                   23956138.4614
  -6264428.34447  -4879301.13745  20710063.7114                   20710059.9024
  -9837923.34447  -7660460.59844  21900344.6564                   21900342.1994
 -10317799.04346  -8033026.16844  22505166.4774                   22505164.9304
   7777543.41047   6050707.94145  21550899.7974                   21550897.6484
   4356436.32847   3389144.79745  21832970.5784                   21832966.5634
  13934176.71146  10836851.37543  23403307.3914                   23403305.4224
  -7210399.19146  -5619882.05543  22972896.4614                   22972893.3164
 11  8 17 17 48  0.0000000  0  9G03G24G07G08G11G13G19G23G28
  13189200.297 5                  23884075.406
  -5043809.91845  -3920032.57042  23946936.8134                   23946939.6174
  -6271952.49647  -4885164.10945  20708631.7814                   20708628.6604
  -9882948.10947  -7695544.82444  21891777.0704                   21891774.1054
 -10354902.61346  -8061937.97743  22498105.7814                   22498104.0234
   7889005.37147   6137561.37545  21572110.6254                   21572108.3754
   4448578.30547   3460943.71545  21850504.6724                   21850500.1174
  14071094.83246  10943540.55543  23429362.8284                   23429360.6644
  -7224121.14846  -5630574.46143  22970284.3594                   22970281.3954
 11  8 17 17 48 30.0000000  0  9G03G24G07G08G11G13G19G23G28
  13321932.07015                  23909331.492
  -5092130.09446  -3957684.55942  23937742.5634                   23937744.7194
  -6279214.80147  -4890823.06645  20707249.8284                   20707246.6094
  -9927902.12147  -7730573.92244  21883222.3444                   21883219.9104
 -10391704.59446  -8090614.84043  22491103.0864                   22491100.8054
   8000833.88347   6224700.41845  21593390.2894                   21593388.2114
   4541163.69947   3533088.16045  21868122.4534                   21868118.6684
  14208112.68446  11050307.47743  23455436.9614                   23455434.9184
  -7237695.03146  -5641151.48044  22967701.6484                   22967698.2584
 11  8 17 17 49  0.0000000  0  9G03G24G07G08G11G13G19G23G28
  13454796.523 5                  23934615.727
  -5140416.68045  -3995310.31242  23928554.2584                   23928555.9574
  -6286204.12547  -4896269.28945  20705920.0314                   20705916.6054
  -9972774.50047  -7765539.39544  21874682.9064                   21874680.6604
 -10428192.93746  -8119047.27344  22484160.0474                   22484156.8324
   8113035.69147   6312130.33644  21614741.9614                   21614739.8954
   4634198.82447   3605583.03545  21885827.5164                   21885823.2034
  14345236.59046  11157157.04743  23481529.5554                   23481528.7704
  -7251112.53946  -5651606.65643  22965147.7814                   22965145.4734
 11  8 17 17 49 30.0000000  0  9G03G24G07G08G11G13G19G23G28
  13587784.387 5                  23959922.461
  -5188673.41046  -4032912.83642  23919370.5474                   23919372.6214
  -6292925.41447  -4901506.66445  20704641.2664                   20704637.6994
 -10017570.49247  -7800445.36344  21866158.9144                   21866155.7814
 -10464371.76646  -8147238.49643  22477274.9694                   22477272.7274
   8225601.13347   6399843.61344  21636162.5554                   21636160.2854
   4727674.40247   3678421.12544  21903614.1414                   21903610.5314
  14482456.88746  11264081.67643  23507642.9924                   23507641.8054
  -7264381.32046  -5661945.95743  22962622.8444                   22962619.8634
 11  8 17 17 50  0.0000000  0  9G03G24G07G08G11G13G19G23G28
  13720893.766 5                  23985252.758
  -5236896.77746  -4070489.36342  23910193.7194                   23910195.0944
  -6299376.27347  -4906533.30945  20703413.2814                   20703410.4654
 -10062287.43447  -7835289.72345  21857649.6484                   21857646.7974
 -10500237.40646  -8175185.72743  22470449.6884                   22470447.5514
   8338527.60547   6487838.20344  21657651.5784                   21657649.7074
   4821588.46547   3751600.87945  21921486.2114                   21921482.2734
  14619770.78946  11371079.23843  23533772.4924                   23533771.1564
  -7277501.94946  -5672169.79743  22960126.2034                   22960122.9774
 11  8 17 17 50 30.0000000  0  9G03G24G07G08G11G13G19G23G28
  13854117.980 5                  24010604.031
  -5285087.69546  -4108040.64542  23901024.2814                   23901025.2544
  -6305558.82447  -4911350.89145  20702236.9454                   20702233.2774
 -10106927.42247  -7870074.11744  21849154.7114                   21849152.1334
 -10535790.81246  -8202889.64144  22463684.9144                   22463682.1024
   8451808.52747   6576108.98844  21679209.0784                   21679205.8134
   4915934.47347   3825117.23044  21939439.6884                   21939435.0824
  14757172.09446  11478144.97343  23559919.2344                   23559917.9774
  -7290478.82047  -5682281.63344  22957657.1024                   22957654.4024
 11  8 17 17 51  0.0000000  0  9G03G24G07G08G11G13G19G23G28
  13987463.488 5                  24035979.352
  -5333233.92246  -4145557.12942  23891860.9224                   23891863.3204
  -6311461.69147  -4915950.54745  20701113.3054                   20701110.1484
 -10151479.38347  -7904789.91444  21840676.9454                   21840674.2234
 -10571020.49646  -8230341.28943  22456980.0944                   22456977.3444
   8565450.02047   6664660.74644  21700834.4224                   21700831.1134
   5010718.83247   3898975.14545  21957476.6884                   21957472.4224
  14894666.52046  11585283.18843  23586083.7344                   23586082.9534
  -7303303.88346  -5692275.15643  22955216.1724                   22955213.4574
 11  8 17 17 51 30.0000000  0  9G03G24G07G08G11G13G19G23G28
  14120917.598 5                  24061375.477
  -5381342.36646  -4183044.06442  23882706.7274                   23882708.3134
  -6317093.00447  -4920338.58645  20700041.6804                   20700038.8714
 -10195950.93447  -7939443.06244  21832213.4774                   21832211.4384
 -10605932.80546  -8257545.66044  22450336.6804                   22450334.2194
   8679439.82447   6753483.90644  21722525.8054                   21722522.6644
   5105929.51647   3973165.26645  21975594.1414                   21975590.5514
  15032241.55546  11692484.24243  23612264.2194                   23612262.6174
  -7315987.72746  -5702158.63744  22952803.3284                   22952799.7664
 11  8 17 17 52  0.0000000  0  9G03G24G07G08G11G13G19G23G28
  14254484.590 5                  24086791.844
  -5429403.12146  -4220493.86743  23873561.1024                   23873562.4774
  -6322444.04347  -4924508.23845  20699023.9304                   20699020.5904
 -10240333.58247  -7974026.94144  21823767.9304                   21823765.7934
 -10640518.17246  -8284495.25843  22443754.2734                   22443752.8134
   8793781.75447   6842581.44944  21744284.1724                   21744281.6294
   5201570.89547   4047690.99245  21993795.0704                   21993790.5594
  15169901.05545  11799751.08242  23638459.0704                   23638458.9304
  -7328524.68746  -5711927.68044  22950417.6334                   22950414.6254
 11  8 17 17 52 30.0000000  0  9G03G24G07G08G11G13G19G23G28
                                  24112229.500
  -5477413.35946  -4257904.37543  23864424.1884                   23864426.4884
  -6327512.61747  -4928457.77745  20698059.0004                   20698056.2344
 -10284625.64147  -8008540.22344  21815339.1954                   21815336.6954
 -10674773.73046  -8311187.85544  22437236.0004                   22437233.9924
   8908473.05947   6931951.23444  21766109.1724                   21766106.8634
   5297639.86347   4122549.89845  22012076.0164                   22012071.7194
  15307642.39846  11907081.73442  23664671.3364                   23664670.3204
  -7340915.19146  -5721582.60544  22948059.0234                   22948056.6564
 11  8 17 17 53  0.0000000  0  9G03G24G07G08G11G13G19G23G28
  12946529.33215                  23837897.094
  -7100793.87146  -5522876.07443  23555505.3594                   23555507.4144
  -7907719.44547  -6159787.78545  20397356.3204                   20397352.8284
 -11904248.71547  -9270584.16844  21507135.4454                   21507132.9924
 -12284120.26646  -9565224.07844  22130987.9844                   22130985.6804
   7448092.57847   5793992.36344  21488207.6484                   21488205.6334
   3818715.17647   2970141.03145  21730646.3364                   21730641.4104
  13870044.87146  10786875.57843  23391106.0474                   23391105.6254
  -8928583.04746  -6958726.36343  22645935.6804                   22645933.1374
 11  8 17 17 53 30.0000000  0  9G03G24G07G08G11G13G19G23G28
  13080413.19114                  23863372.180
  -7148700.32446  -5560205.61343  23546389.0704                   23546391.3714
  -7912224.18447  -6163297.97745  20396498.5314                   20396495.4804
 -11948359.79747  -9304956.43044  21498741.9144                   21498738.8094
 -12317714.52346  -9591401.37944  22124595.6174                   22124593.0314
   7563467.64147   5883894.92644  21510162.6484                   21510160.8324
   3915625.74647   3045655.73445  21749087.4384                   21749082.8634
  14007934.46946  10894321.77343  23417345.7344                   23417344.9344
  -8940690.22746  -6968160.50044  22643631.6094                   22643629.1804
 11  8 17 17 54  0.0000000  0  9G03G24G07G08G11G13G19G23G28
                                  23888870.258
  -7196545.82846  -5597487.72742  23537284.3054                   23537286.8364
  -7916439.84047  -6166582.91445  20395696.2894                   20395693.2194
 -11992373.04347  -9339252.44944  21490366.2194                   21490363.5514
 -12350969.25446  -9617314.12143  22118266.8204                   22118264.6094
   7679184.51247   5974063.85544  21532183.2034                   21532181.0554
   4012957.86347   3121498.92244  21767609.3834                   21767604.6214
  14145898.20746  11001825.72342  23443599.4384                   23443598.0904
  -8952652.71546  -6977481.91043  22641355.2814                   22641352.6884
 11  8 17 17 54 30.0000000  0  9G03G24G07G08G11G13G19G23G28
                                  23914386.180
  -7244332.65645  -5634724.05542  23528189.5474                   23528192.5004
  -7920369.70347  -6169645.15645  20394948.4064                   20394945.5634
 -12036291.76247  -9373474.82044  21482008.8054                   21482006.2384
 -12383886.78946  -9642964.12144  22112002.9534                   22112000.1214
   7795235.24247   6064492.92644  21554267.4844                   21554265.0704
   4110703.35947   3197664.21945  21786209.2344                   21786205.3134
  14283928.30146  11109381.35543  23469865.9064                   23469864.0004
  -8964476.52046  -6986695.23844  22639106.0944                   22639102.7234
 11  8 17 17 55  0.0000000  0  9G03G24G07G08G11G13G19G23G28
                                  23939921.227
  -7292054.33246  -5671909.62543  23519109.2504                   23519111.3794
  -7924008.57047  -6172480.64545  20394256.7114                   20394253.3984
 -12080110.60247  -9407619.35244  21473670.1564                   21473667.5514
 -12416461.04746  -9668346.61344  22105803.8754                   22105802.5744
   7911620.44547   6155182.60544  21576414.7034                   21576412.4574
   4208862.84447   3274152.09445  21804888.5704                   21804884.3914
  14422024.79346  11216988.71143  23496145.4924                   23496144.7194
  -8976159.25846  -6995798.63744  22636881.8524                   22636879.6764
 11  8 17 17 55 30.0000000  0  8G24G07G08G11G13G19G23G28
  -7339700.61346  -5709036.44943  23510042.0944                   23510044.6374
  -7927346.79747  -6175081.86745  20393620.9144                   20393617.7464
 -12123820.10547  -9441678.69544  21465352.0634                   21465350.2344
 -12448681.86346  -9693453.71544  22099672.4144                   22099671.4344
   8028343.96147   6246135.93044  21598626.6334                   21598624.1214
   4307441.22747   3350966.38345  21823647.5164                   21823644.1134
  14560192.45746  11324651.53143  23522437.1804                   23522437.3484
  -8987694.35546  -7004787.01243  22634687.7114                   22634684.2034
 11  8 17 17 56  0.0000000  0  8G24G07G08G11G13G19G23G28
  -7387275.71545  -5746107.75442  23500988.2664                   23500991.6174
  -7930390.54347  -6177453.62545  20393041.7274                   20393038.7154
 -12167425.98447  -9475657.28944  21457054.5474                   21457051.6134
 -12480554.00046  -9718289.11744  22093606.7034                   22093605.8594
   8145395.83247   6337345.09844  21620900.6724                   21620898.4574
   4406428.08247   3428098.96944  21842484.8914                   21842480.3984
  14698420.84046  11432361.69943  23548741.1334                   23548741.6484
  -8999090.13746  -7013666.82043  22632519.3134                   22632516.1054
 11  8 17 17 56 30.0000000  0  8G24G07G08G11G13G19G23G28
  -7434777.95746  -5783122.38743  23491950.2424                   23491951.9414
  -7933138.92247  -6179595.22745  20392518.8204                   20392515.0084
 -12210927.61747  -9509554.66045  21448776.6484                   21448773.6564
 -12512075.83246  -9742851.54744  22087609.3594                   22087606.8244
   8262772.07447   6428807.03544  21643236.9384                   21643234.6884
   4505819.81647   3505547.05544  21861397.9304                   21861392.8954
  14836705.37946  11540115.62543  23575057.0394                   23575056.5354
  -9010349.21546  -7022440.10944  22630376.1564                   22630372.8914
 11  8 17 17 57  0.0000000  0  8G24G07G08G11G13G19G23G28
  -7482209.89846  -5820082.18443  23482923.7664                   23482926.2384
  -7935595.25847  -6181509.26645  20392051.3524                   20392048.3754
 -12254328.09447  -9543373.20745  21440517.9774                   21440515.3284
 -12543250.08246  -9767143.13744  22081677.0314                   22081674.4024
   8380464.22747   6520515.13344  21665632.7424                   21665630.9304
   4605607.95347   3583304.01644  21880387.3524                   21880382.1054
  14975038.35245  11647907.23043  23601380.3054                   23601380.8674
  -9021477.73046  -7031111.64544  22628258.1094                   22628255.8984
 11  8 17 17 57 30.0000000  0  8G24G07G08G11G13G19G23G28
  -7529562.64546  -5856980.35243  23473912.8754                   23473914.5354
  -7937752.36347  -6183190.13345  20391640.9534                   20391637.4224
 -12297619.89147  -9577107.07845  21432279.8754                   21432276.7894
 -12574068.32046  -9791157.32444  22075811.7974                   22075809.2194
   8498474.96947   6612471.46544  21688089.0314                   21688087.1804
   4705795.54347   3661372.23445  21899452.0944                   21899447.4964
  15113422.54746  11755738.80143  23627714.7814                   23627714.5314
  -9032470.79746  -7039677.65644  22626166.5944                   22626163.5164
 11  8 17 17 58  0.0000000  0  8G24G07G08G11G13G19G23G28
  -7576837.57845  -5893817.80142  23464916.4774                   23464918.4534
  -7939612.43847  -6184639.55545  20391286.5864                   20391283.7384
 -12340805.18047  -9610757.94145  21424062.0784                   21424059.4924
 -12604532.13346  -9814895.34844  22070014.8284                   22070012.4774
   8616797.01247   6704670.38744  21710605.6484                   21710603.7464
   4806375.97347   3739746.57844  21918592.2664                   21918587.3444
  15251850.82445  11863604.64842  23654057.2194                   23654056.6884
  -9043333.52746  -7048142.11344  22624099.2274                   22624096.5984
 11  8 17 17 58 30.0000000  0  8G24G07G08G11G13G19G23G28
  -7624030.59046  -5930591.49643  23455935.9144                   23455937.2664
  -7941172.69947  -6185855.34845  20390990.3524                   20390986.8284
 -12383880.92647  -9644323.44944  21415864.5394                   21415862.6414
 -12634637.64546  -9838354.15644  22064287.5704                   22064284.6484
   8735428.52047   6797110.44144  21733180.3524                   21733178.5864
   4907347.41447   3818425.59045  21937805.4454                   21937802.0004
  15390321.06345  11971503.23842  23680407.0314                   23680407.0594
  -9054065.81246  -7056504.92644  22622057.6804                   22622054.0554
 11  8 17 17 59  0.0000000  0  8G24G07G08G11G13G19G23G28
  -7671131.83246  -5967293.60243  23446972.9224                   23446974.5634
  -7942424.32047  -6186830.64845  20390751.6414                   20390748.5164
 -12426838.17647  -9677796.62145  21407690.0554                   21407687.0044
 -12664375.36346  -9861526.36344  22058627.4384                   22058624.7814
   8854373.25446   6889794.57044  21755815.4224                   21755813.0164
   5008713.69147   3897412.27344  21957095.5394                   21957091.0554
  15528837.48046  12079437.78943  23706765.7814                   23706766.0164
  -9064662.16846  -7064761.79744  22620040.7344                   22620037.9414
 11  8 17 17 59 30.0000000  0  8G24G07G08G11G13G19G23G28
  -7718136.75446  -6003920.68443  23438027.7114                   23438029.1524
  -7943364.03147  -6187562.89845  20390573.1094                   20390569.8984
 -12469673.58647  -9711174.86345  21399539.3204                   21399536.1644
 -12693741.13346  -9884408.75044  22053039.0634                   22053037.1094
   8973629.66047   6982721.55944  21778508.5474                   21778507.0904
   5110473.78947   3976705.83244  21976460.0314                   21976455.0944
  15667398.34045  12187406.98442  23733133.9924                   23733133.8914
  -9075121.74646  -7072912.10544  22618050.1334                   22618047.7814
 11  8 17 18  0  0.0000000  0  8G24G07G08G11G13G19G23G28
  -7765043.12146  -6040470.95743  23429101.4924                   23429103.2464
  -7943990.64847  -6188051.18745  20390453.1024                   20390450.5864
 -12512386.03147  -9744457.28545  21391410.8284                   21391408.4844
 -12722733.02746  -9906999.80544  22047522.2424                   22047519.7344
   9093194.12147   7075888.59444  21801260.9534                   21801258.7304
   5212623.97746   4056303.34445  21995898.3914                   21995894.3754
  15806000.24645  12295408.15242  23759509.2194                   23759508.6054
  -9085446.22746  -7080957.11744  22616085.9384                   22616082.4774
 11  8 17 18  0 30.0000000  0  8G24G07G08G11G13G19G23G28
  -7811846.55546  -6076941.07843  23420194.9384                   23420196.2424
  -7944301.18847  -6188293.16845  20390394.6644                   20390391.3404
 -12554972.24247  -9777641.34044  21383307.0474                   21383304.1844
 -12751346.99246  -9929296.37544  22042076.9614                   22042074.9384
   9213064.90247   7169294.30544  21824071.7664                   21824069.2074
   5315163.06247   4136203.89844  22015410.8984                   22015406.6884
  15944641.56346  12403440.04742  23785892.5084                   23785891.0984
  -9095635.40246  -7088896.70744  22614147.3754                   22614143.6484
 11  8 17 18  1  0.0000000  0  8G24G07G08G11G13G19G23G28
  -7858547.99646  -6113331.70343  23411308.6254                   23411309.4454
  -7944297.92247  -6188290.63345  20390395.9614                   20390392.0234
 -12597434.03147  -9810728.43445  21375227.0084                   21375224.4344
 -12779584.73447  -9951299.75844  22036704.2194                   22036701.4924
   9333234.76647   7262933.09444  21846940.3054                   21846937.5394
   5418084.27747   4216402.21144  22034996.1094                   22034992.2424
  16083315.25846  12511497.14542  23812281.0234                   23812280.4774
  -9105694.39546  -7096734.87544  22612232.6094                   22612229.9264
 11  8 17 18  1 30.0000000  0  8G24G07G08G11G13G19G23G28
  -7905140.28946  -6149637.23842  23402441.5864                   23402442.6484
  -7943974.78147  -6188038.84045  20390457.2734                   20390453.6764
 -12639765.00847  -9843713.60245  21367171.7034                   21367168.6214
 -12807438.97747  -9973004.34844  22031403.2504                   22031401.3444
   9453705.21947   7356806.08643  21869864.0634                   21869861.9614
   5521388.88347   4296899.27044  22054654.2894                   22054650.0554
  16222022.91846  12619580.75442  23838677.1724                   23838675.4694
  -9115619.61346  -7104468.77744  22610344.1254                   22610340.5434
 11  8 17 18  2  0.0000000  0  8G24G07G08G11G13G19G23G28
  -7951626.77346  -6185860.31643  23393595.0554                   23393596.7304
  -7943336.35947  -6187541.39545  20390577.8914                   20390574.8554
 -12681969.77747  -9876600.43445  21359139.9454                   21359137.5944
 -12834913.70346  -9994413.18744  22026174.9534                   22026172.5474
   9574466.37147   7450905.59844  21892844.5164                   21892842.9924
   5625067.66447   4377687.89844  22074383.3444                   22074379.0944
  16360755.32446  12727683.59842  23865076.8834                   23865075.7154
  -9125418.41446  -7112104.18744  22608479.2814                   22608476.3324
 11  8 17 18  2 30.0000000  0  8G24G07G08G11G13G19G23G28
  -7997999.15646  -6221994.50043  23384770.9144                   23384772.1024
  -7942375.67647  -6186792.81245  20390761.5084                   20390757.6604
 -12724040.87147  -9909383.10245  21351134.0394                   21351131.9534
 -12862000.81646 -10015519.99244  22021019.7664                   22021017.9224
   9695520.86747   7545233.68444  21915880.4844                   21915878.7504
   5729122.91846   4458769.87944  22094184.6954                   22094180.8284
  16499514.50845  12835807.29342  23891482.0084                   23891480.8554
  -9135087.19146  -7119638.28144  22606639.4774                   22606636.5474
 11  8 17 18  3  0.0000000  0  9G17G24G07G08G11G13G19G23G28
  -4853468.73855  -3764939.85253  24575018.7504                   24575021.1764
  -8044254.08646  -6258037.16843  23375969.4844                   23375970.1214
  -7941090.25447  -6185791.19945  20391005.8284                   20391002.5594
 -12765975.96147  -9942059.78145  21343154.3834                   21343151.5044
 -12888697.71947 -10036322.74244  22015940.4694                   22015937.7624
   9816865.87947   7639788.14844  21938972.3444                   21938969.7584
   5833552.39847   4540143.47344  22114057.3914                   22114052.8594
  16638298.43445  12943950.21942  23917891.6724                   23917891.2464
  -9144625.98047  -7127071.07844  22604824.5084                   22604820.9774
 11  8 17 18  3 30.0000000  0  9G17G24G07G08G11G13G19G23G28
  -4933775.23446  -3827516.02742  24559736.6024                   24559739.2734
  -8090394.67246  -6293990.74243  23367188.6804                   23367189.6454
  -7939484.48847  -6184539.96145  20391311.3134                   20391308.2154
 -12807778.75847  -9974633.37945  21335199.8594                   21335196.7934
 -12915007.82047 -10056824.06244  22010933.4064                   22010930.7304
   9938492.48847   7734562.03944  21962116.3754                   21962114.5864
   5938347.09447   4621801.64144  22133998.8524                   22133994.7114
  16777097.91045  13052105.36742  23944305.3914                   23944304.8244
  -9154041.92646  -7134408.15644  22603031.7664                   22603029.0314
 11  8 17 18  4  0.0000000  0  9G17G24G07G08G11G13G19G23G28
  -5014002.49245  -3890030.46943  24544469.5474                   24544472.1914
  -8136426.59446  -6329859.65642  23358428.6644                   23358429.1764
  -7937565.32847  -6183044.52746  20391676.3284                   20391673.2424
 -12849455.87147 -10007109.04345  21327268.6644                   21327266.1134
 -12940937.30147 -10077028.84044  22006000.0634                   22005997.7074
  10060388.66446   7829545.99244  21985311.5944                   21985310.5864
   6043495.82047   4703735.68444  22154008.2504                   22154004.0394
  16915901.34445  13160263.50442  23970718.8914                   23970718.0044
  -9163344.87147  -7141657.17644  22601262.4694                   22601259.0314
 11  8 17 18  4 30.0000000  0  9G17G24G07G08G11G13G19G23G28
  -5094148.43045  -3952481.54742  24529217.7734                   24529221.1604
  -8182346.07846  -6365640.95742  23349690.9144                   23349691.5234
  -7935330.34047  -6181302.98846  20392102.1414                   20392098.5664
 -12891005.06647 -10039485.03545  21319361.8984                   21319359.9614
 -12966482.71546 -10096934.30544  22001138.0634                   22001135.7854
  10182551.99647   7924738.09844  22008560.1094                   22008558.2504
   6148996.07447   4785943.63744  22174084.0004                   22174079.7544
  17054706.31346  13268422.88342  23997133.0084                   23997132.5044
  -9172534.97746  -7148818.28544  22599513.0864                   22599509.8014
 11  8 17 18  5  0.0000000  0  9G17G24G07G08G11G13G19G23G28
  -5174201.24645  -4014860.14542  24513984.8524                   24513986.6484
  -8228141.22346  -6401325.34443  23340974.7194                   23340977.1644
  -7932768.70347  -6179306.92645  20392589.7424                   20392586.2894
 -12932414.89147 -10071752.41845  21311482.0944                   21311479.3204
 -12991632.64847 -10116531.62944  21996352.5864                   21996349.6644
  10304988.39546   8020142.99644  22031857.6094                   22031856.6764
   6254854.00047   4868430.28144  22194228.0474                   22194224.2584
  17193519.18445  13376588.42642  24023548.2584                   24023548.9384
  -9181604.10946  -7155885.11744  22597786.7344                   22597784.1954
 11  8 17 18  5 30.0000000  0  9G17G24G07G08G11G13G19G23G28
  -5254165.21545  -4077169.43042  24498767.5634                   24498770.1174
  -8273814.66846  -6436914.85542  23332284.4064                   23332286.1454
  -7929884.62547  -6177059.59845  20393138.3674                   20393135.2814
 -12973689.04747 -10103914.08645  21303628.2424                   21303625.2624
 -13016390.34047 -10135823.28544  21991641.1484                   21991638.4924
  10427689.10547   8115753.86744  22055208.0164                   22055206.2034
   6361061.12546   4951189.03544  22214438.6564                   22214434.9304
  17332331.32045  13484753.32442  24049963.3524                   24049964.5124
  -9190559.26647  -7162863.12944  22596082.9774                   22596080.1954
 11  8 17 18  6  0.0000000  0  9G17G24G07G08G11G13G19G23G28
  -5334030.89845  -4139402.11742  24483569.5164                   24483571.3834
  -8319356.03946  -6472401.52742  23323618.1414                   23323619.8524
  -7926668.87147  -6174553.83245  20393750.3674                   20393747.3524
 -13014818.15647 -10135962.74645  21295800.8524                   21295799.2304
 -13040745.99247 -10154801.69544  21987006.3674                   21987003.1844
  10550658.28546   8211573.88744  22078607.9384                   22078606.8204
   6467621.90246   5034223.37544  22234716.1804                   22234712.4534
  17471147.20345  13592921.18442  24076379.6024                   24076380.5124
  -9199394.07847  -7169747.37544  22594402.0864                   22594399.3134
 11  8 17 18  6 30.0000000  0  9G17G24G07G08G11G13G19G23G28
  -5413796.19945  -4201556.64142  24468389.7034                   24468391.1954
  -8364762.54346  -6507783.07442  23314977.1484                   23314978.9774
  -7923119.90247  -6171788.42246  20394425.1174                   20394421.9614
 -13055800.46547 -10167897.00845  21288002.6334                   21288000.1414
 -13064697.27747 -10173465.00044  21982448.4774                   21982445.7584
  10673892.56346   8307600.51244  22102058.7894                   22102056.8524
   6574533.09046   5117530.75844  22255061.7344                   22255057.6294
  17609963.87545  13701089.59042  24102795.3284                   24102796.2584
  -9208109.69547  -7176538.75044  22592743.5784                   22592740.2274
 11  8 17 18  7  0.0000000  0  9G17G24G07G08G11G13G19G23G28
  -5493457.05946  -4263629.82042  24453231.2894                   24453233.1524
  -8410029.09446  -6543055.53943  23306363.5634                   23306363.8134
  -7919233.77747  -6168760.27745  20395164.8594                   20395161.8094
 -13096631.35547 -10199713.28945  21280232.3134                   21280229.6764
 -13088239.62147 -10191809.64144  21977967.7734                   21977966.1174
  10797391.27746   8403833.18844  22125559.5784                   22125558.1644
   6681794.27046   5201110.85544  22275472.5864                   22275468.4064
  17748780.57846  13809258.03142  24129212.5234                   24129213.0824
  -9216704.80147  -7183236.21944  22591107.7034                   22591104.9104
 11  8 17 18  7 30.0000000  0  9G17G24G07G08G11G13G19G23G28
  -5573012.75446  -4325620.99243  24438092.1094                   24438093.2734
  -8455153.93746  -6578217.60543  23297776.6334                   23297777.2624
  -7915010.25447  -6165469.23445  20395968.5004                   20395965.4694
 -13137310.34047 -10231411.18745  21272491.8674                   21272489.0314
 -13111371.87546 -10209834.73044  21973566.5784                   21973563.5314
  10921149.68846   8500268.21143  22149110.5634                   22149108.9184
   6789400.90247   5284960.15644  22295948.8834                   22295945.3634
  17887592.94546  13917423.18042  24155627.1254                   24155627.8984
  -9225181.84846  -7189841.68744  22589494.5084                   22589491.4734
 11  8 17 18  8  0.0000000  0  9G17G24G07G08G11G13G19G23G28
  -5652458.00445  -4387526.12943  24422974.0164                   24422976.7544
  -8500130.66446  -6613264.23043  23289217.7974                   23289218.0634
  -7910443.91447  -6161911.05145  20396837.2664                   20396834.6484
 -13177831.71947 -10262986.29345  21264780.8054                   21264777.8954
 -13134088.02347 -10227535.59844  21969244.0704                   21969240.9454
  11045168.41046   8596906.08244  22172710.4224                   22172708.8284
   6897353.83646   5369079.28944  22316492.0784                   22316488.4884
  18026402.06346  14025585.77743  24182042.0634                   24182042.4454
  -9233538.48046  -7196353.33644  22587904.5554                   22587901.0274
 11  8 17 18  8 30.0000000  0  9G17G24G07G08G11G13G19G23G28
  -5731796.20345  -4449347.82442  24407874.2344                   24407878.8444
  -8544961.41446  -6648197.15243  23280686.2584                   23280686.8874
  -7905538.50047  -6158088.66445  20397771.0394                   20397767.9804
 -13218198.92247 -10294441.25845  21257099.1334                   21257096.1604
 -13156391.09847 -10244914.56644  21964999.4844                   21964996.7074
  11169438.92246   8693740.14544  22196358.7274                   22196357.1054
   7005644.49646   5453461.57044  22337098.9924                   22337095.2034
  18165199.21146  14133739.01243  24208454.5864                   24208455.7814
  -9241781.13346  -7202776.15644  22586335.6094                   22586333.0514
 11  8 17 18  9  0.0000000  0  9G17G24G07G08G11G13G19G23G28
  -5811023.17245  -4511082.84842  24392798.4534                   24392802.3284
  -8589641.37246  -6683012.55843  23272184.3674                   23272185.4614
  -7900290.30947  -6153999.16445  20398769.6724                   20398766.5594
 -13258407.57847 -10325772.68745  21249447.9614                   21249444.9534
 -13178276.91847 -10261968.41844  21960835.1414                   21960832.5004
  11293959.60546   8790769.14144  22220054.5314                   22220052.2774
   7114272.21146   5538106.50844  22357771.4304                   22357766.5704
  18303983.60945  14241882.28542  24234864.9064                   24234865.8444
  -9249908.90247  -7209109.47344  22584789.2504                   22584786.0864
 11  8 17 18  9 30.0000000  0  9G17G24G07G08G11G13G19G23G28
  -5890136.42245  -4572729.25842  24377743.6174                   24377746.7194
  -8634167.37446  -6717708.03743  23263710.9384                   23263712.0204
  -7894697.23847  -6149640.94946  20399833.6094                   20399830.9614
 -13298455.02047 -10356978.48445  21241826.4774                   21241823.8204
 -13199742.82447 -10278695.05544  21956749.7974                   21956747.7544
  11418727.99646   8887991.16843  22243796.2974                   22243795.3054
   7223234.26246   5623011.97744  22378505.1564                   22378501.1644
  18442752.99645  14350013.79742  24261271.1644                   24261273.2424
  -9257922.09847  -7215353.49644  22583264.0944                   22583260.7894
 11  8 17 18 10  0.0000000  0  9G17G24G07G08G11G13G19G23G28
  -5969137.55145  -4634288.31642  24362710.8674                   24362712.1094
  -8678539.30146  -6752283.42243  23255267.0704                   23255268.0634
  -7888760.85247  -6145015.20345  20400963.8054                   20400960.7504
 -13338342.53547 -10388059.66445  21234236.4774                   21234234.2304
 -13220789.13347 -10295094.73044  21952745.1644                   21952742.8674
  11543737.81646   8985401.32044  22267585.5784                   22267583.6764
   7332524.77346   5708173.38744  22399302.5234                   22399297.9884
  18581501.27345  14458128.91442  24287674.1174                   24287676.6024
  -9265825.25446  -7221511.78944  22581760.4924                   22581757.3404
 11  8 17 18 10 30.0000000  0  9G17G24G07G08G11G13G19G23G28
  -6048022.84846  -4695757.16843  24347699.5474                   24347700.9574
  -8722752.42646  -6786735.07843  23246853.4064                   23246854.5434
  -7882477.50047  -6140119.09845  20402159.5554                   20402156.2894
 -13378066.24247 -10419013.19545  21226677.3754                   21226675.1334
 -13241411.81647 -10311164.31644  21948820.1414                   21948817.3324
  11668987.51646   9082998.38744  22291420.5164                   22291418.1524
   7442142.57046   5793589.82844  22420162.4774                   22420158.0824
  18720227.35245  14566226.74242  24314074.3834                   24314075.4534
  -9273617.47747  -7227583.62144  22580278.0944                   22580274.4104
 11  8 17 18 11  0.0000000  0  9G17G24G07G08G11G13G19G23G28
  -6126797.00045  -4757139.35542  24332708.4844                   24332710.3834
  -8766810.59446  -6821065.99243  23238469.5634                   23238470.4734
  -7875852.98447  -6134957.15245  20403419.8444                   20403416.5004
 -13417630.84047 -10449842.75445  21219148.4384                   21219145.9734
 -13261615.62547 -10326907.48444  21944975.7894                   21944972.6214
  11794467.00046   9180774.50843  22315297.8204                   22315295.9804
   7552077.75846   5879253.57444  22441082.3134                   22441077.6174
  18858921.44145  14674299.64142  24340467.4064                   24340469.0044
  -9281306.72347  -7233575.22744  22578813.9384                   22578811.5314
 11  8 17 18 11 30.0000000  0  9G17G24G07G08G11G13G19G23G28
  -6205450.48046  -4818427.57443  24317742.0784                   24317742.2734
  -8810703.44946  -6855268.04743  23230116.3204                   23230116.6414
  -7868877.77347  -6129521.91846  20404747.3134                   20404744.4304
 -13457026.64547 -10480540.78545  21211651.4614                   21211648.8484
 -13281390.80947 -10342316.66044  21941212.6884                   21941210.1414
  11920180.91046   9278733.28144  22339220.5164                   22339218.6684
   7662334.86346   5965168.16444  22462062.9304                   22462059.8094
  18997588.29346  14782351.29342  24366854.9844                   24366856.6564
  -9288886.66846  -7239481.68444  22577372.1174                   22577368.6134
 11  8 17 18 12  0.0000000  0  9G17G24G07G08G11G13G19G23G28
  -6283978.50046  -4879618.05542  24302798.2194                   24302800.0004
  -8854424.73046  -6889336.50043  23221797.0474                   23221797.2424
  -7861546.76647  -6123809.46146  20406142.5394                   20406139.2034
 -13496248.27347 -10511103.08245  21204187.8364                   21204185.1254
 -13300731.77347 -10357387.50444  21937532.8834                   21937529.5744
  12046129.31346   9376874.78443  22363187.9144                   22363186.0044
   7772914.20346   6051333.85244  22483105.8204                   22483101.7424
  19136228.12945  14890381.96942  24393237.6174                   24393239.9884
  -9296354.96547  -7245301.11344  22575950.5704                   22575947.3954
 11  8 17 18 12 30.0000000  0  9G17G24G07G08G11G13G19G23G28
  -6362385.26245  -4940713.93743  24287877.5004                   24287879.0784
  -8897978.43746  -6923274.32443  23213509.6564                   23213509.1564
  -7853865.53947  -6117824.10245  20407604.1644                   20407601.1914
 -13535300.45747 -10541533.34045  21196756.8674                   21196753.7624
 -13319642.93747 -10372123.43444  21933933.9614                   21933931.6524
  12172301.75446   9475190.87143  22387197.7034                   22387196.2584
   7883806.16446   6137743.13344  22504208.0394                   22504203.9144
  19274831.63745  14998384.19542  24419613.5234                   24419615.4804
  -9303719.38346  -7251039.59844  22574548.8204                   22574546.5634
 11  8 17 18 13  0.0000000  0  9G17G24G07G08G11G13G19G23G28
  -6440666.10545  -5001711.73843  24272979.7894                   24272982.3554
  -8941358.12946  -6957076.57043  23205254.8674                   23205254.6214
  -7845829.01647  -6111561.87946  20409133.5554                   20409130.1884
 -13574177.74647 -10571827.34045  21189358.4224                   21189355.6914
 -13338119.05947 -10386520.36344  21930417.7974                   21930415.3954
  12298698.50446   9573681.72343  22411249.7344                   22411248.5274
   7995010.90246   6224396.14844  22525368.8134                   22525365.3524
  19413399.18046  15106358.50042  24445982.2194                   24445984.8874
  -9310977.66447  -7256695.38744  22573168.5314                   22573164.7274
 11  8 17 18 13 30.0000000  0  9G17G24G07G08G11G13G19G23G28
  -6518819.23845  -5062609.99242  24258107.9144                   24258110.1484
  -8984560.75446  -6990740.83643  23197032.1804                   23197033.0124
  -7837435.56347  -6105021.54346  20410730.1414                   20410727.1484
 -13612877.84047 -10601983.24645  21181994.3984                   21181991.5904
 -13356157.68747 -10400576.37944  21926984.9614                   21926981.8984
  12425316.57046   9672345.02743  22435345.1254                   22435343.8714
   8106525.54346   6311290.63344  22546589.7734                   22546585.9264
  19551927.87146  15214302.54342  24472344.0864                   24472346.9654
  -9318131.14146  -7262269.50044  22571806.8674                   22571803.6764
 11  8 17 18 14  0.0000000  0  9G17G24G07G08G11G13G19G23G28
  -6596847.46546  -5123410.92243  24243260.7424                   24243262.0044
  -9027588.24646  -7024268.63743  23188843.5164                   23188845.1134
  -7828688.24247  -6098205.46146  20412395.2894                   20412391.8054
 -13651403.69947 -10632003.39845  21174662.8524                   21174660.3834
 -13373761.40647 -10414293.52744  21923634.6024                   21923632.2774
  12552147.93846   9771174.55543  22459480.1484                   22459478.9304
   8218342.14146   6398420.41044  22567868.0394                   22567864.4064
  19690409.93846  15322210.16842  24498696.5314                   24498698.4344
  -9325185.70746  -7267766.55544  22570464.3834                   22570461.4574
 11  8 17 18 14 30.0000000  0  8G17G24G07G08G11G13G19G28
  -6674743.71946  -5184109.05543  24228437.6254                   24228438.7974
  -9070433.19146  -7057654.16443  23180690.2974                   23180692.1294
  -7819581.05947  -6091108.97345  20414128.3284                   20414125.0204
 -13689748.02047 -10661882.07845  21167366.0704                   21167363.6764
 -13390923.39847 -10427666.48044  21920368.7894                   21920366.5394
  12679193.89146   9870171.29343  22483656.1024                   22483654.6484
   8330462.26646   6485786.71144  22589204.2194                   22589200.3914
  -9332137.45346  -7273183.50444  22569141.3594                   22569138.6764
 11  8 17 18 15  0.0000000  0  8G17G24G07G08G11G13G19G28
  -6752504.39846  -5244701.54743  24213639.7734                   24213640.4734
  -9113090.62946  -7090893.62943  23172573.4384                   23172574.4884
  -7810110.26247  -6083729.14545  20415930.6024                   20415927.1914
 -13727907.05147 -10691616.38745  21160104.5554                   21160102.5474
 -13407639.55947 -10440692.04744  21917188.2034                   21917185.7704
  12806453.43446   9969334.44943  22507873.3914                   22507871.9144
   8442885.11746   6573388.91044  22610597.0394                   22610593.5084
  -9338985.72346  -7278519.78944  22567838.1564                   22567835.4844
 11  8 17 18 15 30.0000000  0  8G17G24G07G08G11G13G19G28
  -6830130.15246  -5305188.95743  24198867.9694                   24198868.3134
  -9155559.86346  -7123986.46943  23164492.2664                   23164491.9614
  -7800276.63347  -6076066.59445  20417802.0394                   20417798.7034
 -13765880.82447 -10721206.33245  21152878.1094                   21152876.3364
 -13423910.02047 -10453370.29344  21914091.7584                   21914089.5744
  12933920.79746  10068659.52744  22532129.3284                   22532128.1454
   8555605.82046   6661223.18444  22632047.2114                   22632043.2774
  -9345733.58646  -7283777.86344  22566554.4534                   22566550.9304
 11  8 17 18 16  0.0000000  0  8G17G24G07G08G11G13G19G28
  -6907608.37146  -5365561.43443  24184123.8914                   24184124.5514
  -9197827.28146  -7156922.03543  23156447.8594                   23156449.2774
  -7790067.94147  -6068111.77746  20419744.7194                   20419741.1454
 -13803656.47347 -10750641.90245  21145690.5234                   21145687.4884
 -13439721.98047 -10465691.27044  21911083.2344                   21911080.6254
  13061603.21946  10168152.22743  22556427.0784                   22556425.0664
   8668631.60546   6749295.18044  22653555.5314                   22653551.6024
  -9352371.59046  -7288950.30144  22565291.3914                   22565287.5474
 11  8 17 18 16 30.0000000  0  8G17G24G07G08G11G13G19G28
  -6984941.17245  -5425820.55942  24169408.2424                   24169408.3014
  -9239894.00446  -7189701.17643  23148443.1884                   23148443.8794
  -7779486.87947  -6059866.80946  20421758.3914                   20421755.0784
 -13841235.74647 -10779924.45745  21138539.1024                   21138536.4694
 -13455077.58247 -10477656.64144  21908160.6024                   21908158.8204
  13189493.66446  10267806.99243  22580763.9224                   22580761.9844
   8781955.24646   6837599.27744  22675120.5864                   22675116.4264
  -9358905.03147  -7294041.27344  22564048.4534                   22564044.7304
 11  8 17 18 17  0.0000000  0  8G17G24G07G08G11G13G19G28
  -7062128.19945  -5485966.16842  24154719.9694                   24154719.5704
  -9281758.55546  -7222322.83643  23140477.0314                   23140477.3754
  -7768533.41847  -6051331.66045  20423842.6024                   20423839.2624
 -13878618.10547 -10809053.56645  21131425.7114                   21131422.9104
 -13469976.24247 -10489265.99644  21905326.0004                   21905323.2074
  13317587.41847  10367620.16443  22605139.5944                   22605137.7234
   8895572.26246   6926131.98844  22696740.7194                   22696736.7704
  -9365336.49247  -7299052.77344  22562823.9304                   22562821.1334
 11  8 17 18 17 30.0000000  0  9G17G24G07G08G26G11G13G19G28
  -7139167.08245  -5545996.27342  24140060.1484                   24140059.6724
  -9323417.49646  -7254784.25043  23132549.3914                   23132550.1804
  -7757205.19147  -6042504.48846  20425998.4304                   20425995.0554
 -13915800.93747 -10838027.19945  21124349.9774                   21124347.2734
  -4828873.36715                  24307310.523
 -13484415.02347 -10500516.97344  21902578.2034                   21902575.5124
  13445881.92646  10467589.79343  22629552.9304                   22629551.8094
   9009480.42646   7014891.56644  22718417.7584                   22718413.1994
  -9371666.38346  -7303985.14544  22561619.2034                   22561616.2584
 11  8 17 18 18  0.0000000  0  9G17G24G07G08G26G11G13G19G28
  -7216065.23045  -5605916.68042  24125424.6484                   24125426.1024
  -9364877.27746  -7287090.49643  23124658.5944                   23124660.8244
  -7745510.38747  -6033391.67245  20428223.6644                   20428220.3874
 -13952791.34047 -10866850.87945  21117310.9614                   21117308.2624
  -4892609.695 5                  24295181.000
 -13498401.30547 -10511415.37144  21899917.1174                   21899914.2544
  13574364.12546  10567705.65243  22654002.5004                   22654001.1334
   9123667.63746   7103868.59044  22740146.3834                   22740141.6724
  -9377904.68747  -7308846.13744  22560432.2814                   22560428.9024
 11  8 17 18 18 30.0000000  0  9G17G24G07G08G26G11G13G19G28
  -7292826.27345  -5665730.28943  24110819.1644                   24110819.8674
  -9406140.09846  -7319243.25843  23116807.8914                   23116808.3054
  -7733452.52047  -6023995.94946  20430518.4614                   20430515.1054
 -13989592.19547 -10895526.88345  21110307.5394                   21110305.4024
  -4955987.793 5                  24283120.836
 -13511938.73447 -10521963.99644  21897340.8984                   21897337.9884
  13703025.92646  10667961.47343  22678485.8364                   22678484.6334
   9238125.34846   7193056.37944  22761926.3054                   22761922.6564
  -9384058.36347  -7313641.20344  22559261.4694                   22559257.5664
 11  8 17 18 19  0.0000000  0  9G17G24G07G08G26G11G13G19G28
  -7369450.58646  -5725437.32843  24096237.4454                   24096238.4494
  -9447205.90246  -7351242.49643  23108992.6954                   23108993.4774
  -7721032.78947  -6014318.25445  20432881.5314                   20432877.9844
 -14026204.10547 -10924055.63745  21103340.3054                   21103338.2034
  -5019007.230 5                  24271128.867
 -13525027.37547 -10532162.93444  21894850.0004                   21894847.3054
  13831861.23846  10768352.49243  22703002.5634                   22703001.5634
   9352848.02346   7282450.62144  22783757.3984                   22783754.0554
  -9390130.96146  -7318373.08644  22558105.5004                   22558102.0314
 11  8 17 18 19 30.0000000  0  9G17G24G07G08G26G11G13G19G28
  -7445930.75446  -5785032.07843  24081683.9534                   24081684.7344
  -9488065.77746  -7383081.27043  23101218.1564                   23101218.2854
  -7708243.87947  -6004352.89146  20435315.2424                   20435312.1334
 -14062619.03147 -10952430.89845  21096411.1564                   21096408.3324
  -5081659.973 5                  24259206.820
 -13537659.58247 -10542006.18444  21892445.9774                   21892443.1884
  13960872.76646  10868880.79343  22727552.8914                   22727552.0314
   9467838.22346   7372053.35244  22805639.8444                   22805635.6414
  -9396117.75847  -7323038.11344  22556966.6954                   22556963.3164
 11  8 17 18 20  0.0000000  0  9G17G24G07G08G26G11G13G19G28
  -7522261.14546  -5844510.12143  24067157.7584                   24067159.2894
  -9528713.05146  -7414754.39543  23093482.5234                   23093483.3674
  -7695080.49247  -5994095.71546  20437820.1724                   20437817.1454
 -14098830.60547 -10980647.72345  21089520.8524                   21089517.6844
  -5143939.516 5                  24247355.953
 -13549829.72347 -10551489.39144  21890130.6484                   21890127.3484
  14090060.78946  10969546.64143  22752136.8134                   22752135.8054
   9583097.01646   7461865.36744  22827573.5164                   22827568.7774
  -9402015.93746  -7327634.08644  22555843.8834                   22555840.6294
 11  8 17 18 20 30.0000000  0  9G17G24G07G08G26G11G13G19G28
  -7598442.19546  -5903871.82843  24052661.6644                   24052661.9534
  -9569147.17246  -7446261.44143  23085788.1954                   23085788.8674
  -7681543.35947  -5983547.31645  20440396.0784                   20440393.1414
 -14134839.25847 -11008706.40645  21082668.4454                   21082665.5044
  -5205845.242 5                  24235575.328
 -13561538.11747 -10560612.80144  21887902.4694                   21887899.3594
  14219420.17246  11070346.02043  22776752.8594                   22776752.1134
   9698619.29346   7551882.68443  22849555.9454                   22849551.2544
  -9407828.66847  -7332163.49244  22554737.2734                   22554734.2384
 11  8 17 18 21  0.0000000  0  9G17G24G07G08G26G11G13G19G28
  -7674478.37146  -5963120.64843  24038192.5634                   24038192.8874
  -9609371.53146  -7477604.99643  23078133.7734                   23078134.3094
  -7667637.37147  -5972711.49646  20443042.3444                   20443039.3954
 -14170648.85947 -11036609.99645  21075853.6414                   21075851.6884
  -5267381.336 5                  24223865.391
 -13572788.88747 -10569379.61344  21885761.1414                   21885758.4534
  14348941.30146  11171271.42643  22801400.0474                   22801400.1054
   9814395.13346   7642097.58244  22871587.1334                   22871582.8794
  -9413563.41447  -7336632.11744  22553646.0234                   22553642.6174
 11  8 17 18 21 30.0000000  0  9G17G24G07G08G26G11G13G19G28
  -7750355.13346  -6022245.25043  24023754.1804                   24023753.2504
  -9649370.60246  -7508772.99643  23070522.0394                   23070522.7584
  -7653348.38747  -5961577.23846  20445761.9144                   20445758.5434
 -14206244.41447 -11064346.79345  21069080.2584                   21069077.8714
  -5328532.211 5                  24212228.055
 -13583567.50847 -10577778.53144  21883709.6804                   21883708.0824
  14478633.75046  11272330.31643  22826080.1724                   22826079.1214
   9930434.71146   7732517.98044  22893669.3054                   22893665.1024
  -9419208.46147  -7341030.85544  22552572.1804                   22552569.4184
 11  8 17 18 22  0.0000000  0  9G17G24G07G08G26G11G13G19G28
  -7826072.86745  -6081245.89542  24009344.0234                   24009344.0864
  -9689143.38746  -7539764.70743  23062953.2974                   23062954.0354
  -7638677.10247  -5950145.08246  20448553.4694                   20448550.2344
 -14241626.07047 -11091916.91445  21062346.8594                   21062345.2424
  -5389297.52746  -4175609.01252  24200663.8524                   24200663.4104
 -13593874.27047 -10585809.75444  21881749.0394                   21881746.0824
  14608491.66446  11373518.12943  22850791.1804                   22850790.7194
  10046732.77046   7823139.82044  22915798.8284                   22915795.6644
  -9424767.29346  -7345362.41444  22551514.6644                   22551511.2704
 11  8 17 18 22 30.0000000  0  9G17G24G07G08G26G11G13G19G28
  -7901626.60545  -6140118.82442  23994966.6884                   23994966.2234
  -9728683.92646  -7570575.43043  23055429.1174                   23055430.0004
  -7623619.13747  -5938411.60946  20451418.5704                   20451415.4574
 -14276788.69947 -11119316.37145  21055655.9614                   21055653.5984
  -5449671.75445  -4222653.86342  24189175.3364                   24189174.8404
 -13603704.59047 -10593469.72344  21879877.7424                   21879875.7114
  14738515.16046  11474834.98043  22875533.3444                   22875532.6134
  10163289.41046   7913963.13344  22937979.4224                   22937975.8484
  -9430238.03147  -7349625.34044  22550473.7274                   22550470.5784
 11  8 17 18 23  0.0000000  0  9G17G24G07G08G26G11G13G19G28
  -7977012.09046  -6198860.66042  23980620.2274                   23980621.1994
  -9767986.55146  -7601200.76643  23047949.3444                   23047950.4494
  -7608170.31347  -5926373.57845  20454358.6174                   20454355.9384
 -14311727.24647 -11146541.20745  21049007.6724                   21049005.1564
  -5509649.51245  -4269389.76642  24177761.8914                   24177760.6914
 -13613053.28547 -10600754.40644  21878099.4064                   21878096.2934
  14868703.90246  11576280.62543  22900307.8834                   22900307.1804
  10280104.25446   8004987.64544  22960209.2504                   22960205.1374
  -9435618.71146  -7353818.06644  22549449.6334                   22549446.4344
 11  8 17 18 23 30.0000000  0  9G17G24G07G08G26G11G13G19G28
  -8052233.80546  -6257474.82443  23966306.8284                   23966307.2894
  -9807054.87146  -7631643.50443  23040515.4774                   23040516.1764
  -7592335.34447  -5914034.66445  20457372.3284                   20457369.1644
 -14346445.38347 -11173594.32045  21042400.8444                   21042398.5274
  -5569234.46145  -4315819.51642  24166423.8444                   24166422.4344
 -13621924.84447 -10607667.28544  21876410.3444                   21876407.7544
  14999048.03146  11677847.30143  22925111.3444                   22925111.1994
  10397168.27746   8096206.30944  22982485.0394                   22982481.8244
  -9440916.62146  -7357946.30144  22548441.7114                   22548438.4454
 11  8 17 18 24  0.0000000  0  9G17G24G07G08G26G11G13G19G28
  -8127281.66846  -6315953.55543  23952024.9454                   23952025.8134
  -9845878.28146  -7661895.42643  23033127.9224                   23033127.5084
  -7576105.00847  -5901387.65245  20460460.4614                   20460457.5004
 -14380933.17247 -11200467.90645  21035837.8674                   21035835.6604
  -5628416.47345  -4361935.37542  24155162.2344                   24155160.4614
 -13630309.76247 -10614200.96144  21874815.5084                   21874812.5204
  15129552.22746  11779538.70743  22949946.1484                   22949945.6914
  10514486.26246   8187622.87544  23004810.2504                   23004807.5904
  -9446124.70746  -7362004.54344  22547450.3594                   22547446.7114
 11  8 17 18 24 30.0000000  0  9G17G24G07G08G26G11G13G19G28
  -8202160.42246  -6374300.48043  23937776.5784                   23937777.3714
  -9884459.96946  -7691958.95743  23025785.1094                   23025785.8594
  -7559484.43047  -5888436.57046  20463623.6954                   20463620.0004
 -14415194.55147 -11227165.08645  21029318.2274                   21029315.6174
  -5687199.12555  -4407739.94552  24143976.7194                   24143974.6564
 -13638212.53147 -10620358.94544  21873311.4224                   21873308.5314
  15260207.17646  11881347.58643  22974809.3674                   22974808.3954
  10632048.70746   8279229.92644  23027181.0474                   23027178.6684
  -9451250.54347  -7365998.69144  22546475.2034                   22546471.5824
 11  8 17 18 25  0.0000000  0  9G17G24G07G08G26G11G13G19G28
  -8276867.14846  -6432513.36343  23923559.4924                   23923561.3674
  -9922795.73446  -7721830.88743  23018490.1724                   23018491.0744
  -7542470.65647  -5875179.09446  20466860.4304                   20466857.7774
 -14449226.10247 -11253683.18045  21022842.5394                   21022839.7584
  -5745578.44545  -4453230.24243  24132866.0394                   24132865.2934
 -13645630.24247 -10626138.96544  21871899.7504                   21871896.9654
  15391010.76246  11983272.31643  22999700.4534                   22999699.4804
  10749854.05946   8371026.27344  23049599.2114                   23049595.3794
  -9456293.94147  -7369928.60944  22545515.3204                   22545512.1884
 11  8 17 18 25 30.0000000  0  9G17G24G07G08G26G11G13G19G28
  -9926822.78946  -7718192.91443  23609584.0474                   23609584.1804
 -11536304.32046  -8979110.20343  22711449.6024                   22711450.5084
  -9100482.19547  -7089214.07445  20170381.0944                   20170378.2424
 -16058446.95747 -12507621.50445  20716617.5234                   20716614.8554
  -7378974.61746  -5726006.44942  23822041.7894                   23822040.2034
 -15227981.57447 -11859139.98844  21570788.2504                   21570785.9574
  13946543.73046  10857713.42243  22724827.5944                   22724826.4344
   9292482.94546   7235412.37944  22772270.6094                   22772266.8984
 -11036676.68046  -8601395.66844  22244778.2584                   22244774.7194
 11  8 17 18 26  0.0000000  0  9G17G24G07G08G26G11G13G19G28
 -10001176.35546  -7776130.63343  23595434.5234                   23595435.6524
 -11574136.31646  -9008589.59443  22704250.2424                   22704251.0904
  -9082674.76647  -7075338.16046  20173769.5234                   20173766.5084
 -16092008.42647 -12533773.29745  20710231.2814                   20710228.6134
  -7436536.96546  -5770860.21142  23811087.5164                   23811086.7974
 -15234419.90647 -11864156.85544  21569563.3594                   21569560.3794
  14077638.08646  10959864.69943  22749774.1094                   22749773.4494
   9410768.68846   7327583.03944  22794780.5554                   22794775.6724
 -11041555.07847  -8605197.01244  22243849.9534                   22243847.0474
 11  8 17 18 26 30.0000000  0  9G17G24G07G08G26G11G13G19G28
 -10075349.08246  -7833927.42643  23581319.8284                   23581320.4384
 -11611710.36346  -9037867.94143  22697100.4224                   22697100.8714
  -9064466.69547  -7061150.07046  20177234.8914                   20177231.8834
 -16125329.84047 -12559738.04345  20703890.4064                   20703887.6844
  -7493685.30545  -5815391.31642  23800213.1414                   23800211.4264
 -15240364.49247 -11868788.98044  21568432.2034                   21568429.4344
  14208874.76646  11062126.86743  22774747.3594                   22774747.2704
   9529291.66046   7419938.55143  22817334.6024                   22817330.4844
 -11046350.65246  -8608933.80944  22242936.8204                   22242934.2584
 11  8 17 18 27  0.0000000  0  9G17G24G07G08G26G11G13G19G28
 -10149338.10946  -7891581.05943  23567240.2344                   23567240.6054
 -11649022.87946  -9066942.53543  22689999.3054                   22690000.2304
  -9045855.91847  -7046648.17646  20180776.1954                   20180773.3834
 -16158408.03547 -12585513.25045  20697595.5234                   20697593.2384
  -7550416.29745  -5859597.19542  23789417.2664                   23789415.6764
 -15245812.76647 -11873034.36744  21567395.3984                   21567392.9654
  14340251.58646  11164498.25843  22799748.1954                   22799747.1334
   9648050.03546   7512477.49644  22839933.5944                   22839928.7194
 -11051063.66047  -8612606.26644  22242040.5004                   22242037.3094
 11  8 17 18 27 30.0000000  0  9G17G24G07G08G26G11G13G19G28
 -10223134.18746  -7949084.36343  23553198.4694                   23553197.5234
 -11686063.18446  -9095805.01643  22682951.7584                   22682951.8484
  -9026833.15247  -7031825.24246  20184395.9614                   20184393.0664
 -16191233.13347 -12611091.25045  20691349.7194                   20691346.3594
  -7606719.68745  -5903469.91042  23778703.8444                   23778701.1804
 -15250754.85547 -11876885.33644  21566454.3364                   21566451.7194
  14471773.06646  11266982.33243  22824775.8754                   22824775.4184
   9767048.40246   7605203.46143  22862577.5234                   22862573.3204
 -11055687.26647  -8616209.07044  22241160.8444                   22241157.4964
 11  8 17 18 28  0.0000000  0  9G17G24G07G08G26G11G13G19G28
 -10296735.13346  -8006435.61743  23539191.3914                   23539192.1484
 -11722827.99646  -9124452.85243  22675954.9774                   22675955.0274
  -9007396.89547  -7016680.12146  20188094.9614                   20188091.9454
 -16223802.01647 -12636469.58245  20685151.9614                   20685149.9104
  -7662592.82445  -5947007.36342  23768069.6174                   23768068.4574
 -15255188.94947 -11880340.45744  21565610.6254                   21565608.0394
  14603436.35946  11369576.91043  22849830.6884                   22849830.1764
   9886284.38746   7698114.57443  22885269.5944                   22885263.4884
 -11060222.43447  -8619742.97344  22240298.0084                   22240294.6764
 11  8 17 18 28 30.0000000  0  9G17G24G07G08G26G11G13G19G28
 -10370136.21546  -8063631.11743  23525223.4694                   23525224.6134
 -11759311.97746  -9152881.83243  22669012.4694                   22669012.1254
  -8987542.78947  -7001209.40646  20191872.6644                   20191869.5864
 -16256109.92647 -12661644.58645  20679003.8134                   20679001.2544
  -7718030.33245  -5990205.35942  23757520.4614                   23757519.3634
 -15259110.50946 -11883396.18744  21564864.4614                   21564861.5824
  14735240.62946  11472281.34043  22874913.0314                   22874912.1644
  10005757.76246   7791210.64144  22908003.3754                   22907999.6294
 -11064666.96147  -8623206.22744  22239452.0944                   22239448.7814
 11  8 17 18 29  0.0000000  0  9G17G24G07G08G26G11G13G19G28
 -10443339.09046  -8120672.15643  23511293.1024                   23511293.8594
 -11795514.89846  -9181091.79343  22662122.5394                   22662122.8754
  -8967272.61747  -6985414.48446  20195730.3444                   20195727.2074
 -16288157.32447 -12686616.58645  20672905.1414                   20672903.0634
  -7773032.92245  -6033064.48042  23747054.3754                   23747052.7074
 -15262521.14847 -11886053.82444  21564215.8134                   21564212.7194
  14867180.20346  11575091.21543  22900019.6804                   22900019.3284
  10125462.48446   7884487.01443  22930782.2894                   22930777.9224
 -11069024.81247  -8626601.95344  22238622.8444                   22238619.4734
 11  8 17 18 29 30.0000000  0  9G17G24G07G08G26G11G13G19G28
 -10516332.32846  -8177549.82043  23497402.8204                   23497403.6884
 -11831424.46946  -9209073.19943  22655290.2894                   22655289.1414
  -8946575.68047  -6969287.01646  20199668.9534                   20199665.5594
 -16319932.34447 -12711376.34045  20666858.8524                   20666856.4774
  -7827588.48845  -6075575.21942  23736672.6884                   23736671.5944
 -15265409.71547 -11888304.64844  21563665.8834                   21563663.3984
  14999261.15646  11678011.25443  22925153.9694                   22925153.1844
  10245405.28546   7977948.89544  22953605.7194                   22953602.5434
 -11073287.93747  -8629923.85244  22237811.0634                   22237808.5864
 11  8 17 18 30  0.0000000  0  9G17G24G07G08G26G11G13G19G28
 -10589113.21946  -8234262.02343  23483553.0394                   23483553.3834
 -11867037.06246  -9236823.16843  22648512.8674                   22648513.2974
  -8925449.56647  -6952825.11746  20203688.8444                   20203685.9264
 -16351431.84447 -12735921.40645  20660865.1724                   20660862.2304
  -7881693.80546  -6117735.14842  23726377.0474                   23726375.3914
 -15267773.48447 -11890146.53944  21563216.1564                   21563213.3874
  15131481.24246  11781039.70243  22950314.6954                   22950314.9264
  10365583.87146   8071594.50444  22976475.1414                   22976471.7624
 -11077456.26247  -8633171.89844  22237018.5864                   22237014.9924
 11  8 17 18 30 30.0000000  0  9G17G24G07G08G26G11G13G19G28
 -10661690.13346  -8290815.29743  23469742.4534                   23469742.3674
 -11902360.37946  -9264347.74243  22641790.5004                   22641791.0204
  -8903903.73047  -6936036.16446  20207789.3834                   20207785.5124
 -16382664.00047 -12760258.14545  20654921.5474                   20654918.7304
  -7935356.90645  -6159550.55542  23716165.0554                   23716163.2304
 -15269621.31247 -11891586.38344  21562864.7194                   21562861.5514
  15263826.73846  11884165.88743  22975499.6174                   22975498.8444
  10485985.10246   8165413.57844  22999387.6884                   22999383.6094
 -11081540.89847  -8636354.71544  22236240.9694                   22236237.6764
 11  8 17 18 31  0.0000000  0  9G17G24G07G08G26G11G13G19G28
 -10734058.71146  -8347206.28543  23455971.1644                   23455970.5824
 -11937388.47346  -9291642.25043  22635124.5704                   22635124.8874
  -8881933.93747  -6918916.85946  20211969.7034                   20211966.5744
 -16413623.80147 -12784382.66445  20649029.9064                   20649026.6764
  -7988572.59045  -6201017.24242  23706038.0784                   23706036.6804
 -15270948.87947 -11892620.83644  21562611.3284                   21562609.0044
  15396297.40646  11987389.56343  23000708.1884                   23000707.2464
  10606608.80146   8259406.02344  23022341.3754                   23022338.4064
 -11085540.12947  -8639470.99244  22235479.6724                   22235476.2934
 11  8 17 18 31 30.0000000  0  9G17G24G07G08G26G11G13G19G28
 -10806221.93446  -8403437.26243  23442239.4534                   23442238.5004
 -11972123.09446  -9318708.10243  22628515.3284                   22628515.5314
  -8859543.17247  -6901469.52746  20216230.5474                   20216226.8674
 -16444312.64547 -12808296.05545  20643190.2344                   20643187.0744
  -8041342.81645  -6242136.87542  23695997.0004                   23695994.1054
 -15271759.12147 -11893252.18744  21562457.6024                   21562454.9734
  15528885.51246  12090704.80143  23025938.7664                   23025938.0314
  10727447.40646   8353565.94144  23045336.7894                   23045332.5234
 -11089459.48047  -8642525.02744  22234734.1334                   22234731.0864
 11  8 17 18 32  0.0000000  0  9G17G24G07G08G26G11G13G19G28
 -10878170.16046  -8459500.69143  23428547.2734                   23428546.6564
 -12006553.48446  -9345536.90243  22621964.0784                   22621963.6414
  -8836722.60947  -6883687.28946  20220572.9924                   20220569.8014
 -16474720.77347 -12831990.69945  20637403.4844                   20637401.3754
  -8093657.46146  -6282901.48042  23686040.9694                   23686039.3984
 -15272042.74247 -11893473.16444  21562402.2114                   21562400.0004
  15661595.89546  12194115.29343  23051193.3594                   23051192.1134
  10848505.89846   8447897.20744  23068372.5474                   23068369.5044
 -11093291.88747  -8645511.30544  22234004.7424                   22234002.5514
 11  8 17 18 32 30.0000000  0  9G17G24G07G08G26G11G13G19G28
 -10949898.67646  -8515392.86743  23414897.8524                   23414897.3364
 -12040674.24246  -9372124.43043  22615470.6724                   22615470.5234
  -8813467.97347  -6865566.81246  20224998.1094                   20224995.2584
 -16504843.47347 -12855462.93445  20631671.2114                   20631668.8134
  -8145511.32846  -6323307.04342  23676174.2664                   23676172.1174
 -15271795.04347 -11893280.12544  21562450.5474                   21562448.0664
  15794428.02746  12297620.62943  23076470.5704                   23076469.6844
  10969784.68446   8542400.10543  23091451.1484                   23091448.1954
 -11097035.78947  -8648428.62144  22233292.4384                   22233289.1484
 11  8 17 18 33  0.0000000  0  9G17G24G07G08G26G11G13G19G28
 -11021408.75146  -8571114.87843  23401289.3054                   23401289.1684
 -12074485.09846  -9398470.48443  22609036.1644                   22609036.2304
  -8789780.96947  -6847109.42646  20229505.7734                   20229502.8014
 -16534680.57847 -12878712.62545  20625994.3524                   20625991.4344
  -8196904.69946  -6363353.78942  23666393.7664                   23666391.9304
 -15271017.62147 -11892674.33644  21562598.2194                   21562596.1054
  15927376.14846  12401216.32443  23101769.1954                   23101769.2504
  11091277.75446   8637069.96943  23114570.3594                   23114567.1524
 -11100694.81647  -8651279.80944  22232595.9064                   22232592.7194
 11  8 17 18 33 30.0000000  0  9G17G24G07G08G26G11G13G19G28
 -11092694.18046  -8626661.79743  23387724.3284                   23387724.1604
 -12107978.78546  -9424569.38343  22602662.7814                   22602662.0744
  -8765655.68447  -6828310.52045  20234097.1884                   20234093.6684
 -16564225.34447 -12901734.52345  20620371.2114                   20620368.7774
  -8247831.19546  -6403036.78142  23656702.7114                   23656700.6214
 -15269704.39847 -11891651.05544  21562848.5944                   21562846.0314
  16060441.26646  12504903.26643  23127090.8204                   23127090.7304
  11212986.57446   8731907.97743  23137731.4534                   23137727.6884
 -11104265.35547  -8654062.04344  22231917.0554                   22231913.5704
 11  8 17 18 34  0.0000000  0  9G17G24G07G08G26G11G13G19G28
 -11163754.50046  -8682033.29343  23374201.5164                   23374202.0824
 -12141153.82046  -9450419.96143  22596350.0784                   22596349.5394
  -8741092.21947  -6809170.18745  20238771.4534                   20238768.3714
 -16593477.09847 -12924528.09845  20614804.8524                   20614802.8324
  -8298289.47745  -6442354.85942  23647100.7274                   23647099.6374
 -15267855.43447 -11890210.27044  21563200.5004                   21563197.7624
  16193618.98046  12608677.89143  23152434.0234                   23152434.1954
  11334907.07046   8826910.93043  23160931.8834                   23160928.9144
 -11107749.51247  -8656776.95744  22231253.1414                   22231250.1174
 11  8 17 18 34 30.0000000  0  9G17G24G07G08G26G11G13G19G28
 -11234588.86746  -8737228.78543  23360722.0704                   23360721.8954
 -12174008.98846  -9476021.34443  22590097.5314                   22590097.1214
  -8716090.89547  -6789688.65246  20243528.7274                   20243525.3954
 -16622434.81247 -12947092.55145  20609294.3524                   20609292.1454
  -8348278.68046  -6481307.47343  23637588.0164                   23637587.1484
 -15265470.38347 -11888351.77744  21563654.2504                   21563651.1884
  16326904.84046  12712536.77043  23177797.9454                   23177797.7464
  11457035.26246   8922075.69543  23184172.1484                   23184168.8954
 -11111149.59847  -8659426.36744  22230606.6334                   22230603.6564
 11  8 17 18 35  0.0000000  0  9G17G24G07G08G26G11G13G19G28
 -11305196.91046  -8792247.92243  23347285.2194                   23347286.0084
 -12206541.94946  -9501371.65643  22583906.6094                   22583907.2034
  -8690651.32047  -6769865.62946  20248369.5704                   20248366.2814
 -16651096.58647 -12969426.39545  20603840.3364                   20603838.0594
  -8397797.18446  -6519893.28143  23628164.9304                   23628163.6174
 -15262548.86347 -11886075.25044  21564210.0864                   21564207.2034
  16460295.11346  12816477.00043  23203181.4694                   23203180.9734
  11579367.31646   9017399.30943  23207451.6254                   23207447.8594
 -11114467.67647  -8662011.87544  22229975.0704                   22229972.0944
 11  8 17 18 35 30.0000000  0  9G17G24G07G08G26G11G13G19G28
 -11375572.73846  -8847086.09843  23333893.4304                   23333893.1254
 -12238745.79346  -9526465.50043  22577778.6094                   22577778.1254
  -8664768.00847  -6749696.83246  20253295.1254                   20253292.0824
 -16679455.62947 -12991524.35245  20598443.3834                   20598441.3094
  -8446838.42646  -6558107.20343  23618832.5554                   23618831.8364
 -15259084.87147 -11883376.03144  21564868.9224                   21564866.6414
  16593790.79346  12920499.41443  23228585.1954                   23228585.3674
  11701904.58246   9112882.84443  23230769.6094                   23230765.9694
 -11117700.09447  -8664530.64144  22229359.9844                   22229356.7624
 11  8 17 18 36  0.0000000  0  9G17G24G07G08G26G11G13G19G28
 -11445713.43446  -8901741.10943  23320546.3204                   23320546.3204
 -12270616.80146  -9551300.00843  22571714.0234                   22571713.8164
  -8638438.60547  -6729180.43445  20258304.9924                   20258302.6914
 -16707508.73447 -13013383.90645  20593105.0784                   20593102.8914
  -8495399.29346  -6595946.75843  23609592.6954                   23609590.6294
 -15255075.99647 -11880252.19944  21565631.8364                   21565629.5124
  16727389.48046  13024602.06643  23254009.0004                   23254008.1254
  11824644.99246   9208524.68043  23254126.1174                   23254122.0784
 -11120846.74247  -8666982.57844  22228761.0314                   22228757.9384
 11  8 17 18 36 30.0000000  0  9G17G24G07G08G26G11G13G19G28
 -11515618.89146  -8956212.75443  23307243.2584                   23307243.3674
 -12302153.40646  -9575873.94143  22565712.7114                   22565712.1994
  -8611663.71147  -6708316.89146  20263400.5164                   20263397.6804
 -16735255.12547 -13035004.47745  20587825.2344                   20587822.7074
  -8543478.73046  -6633411.24243  23600443.4924                   23600441.4024
 -15250522.98047 -11876704.38744  21566498.8134                   21566495.5354
  16861087.04346  13128781.75043  23279450.5864                   23279449.9534
  11947584.65246   9304321.78543  23277521.1644                   23277516.5824
 -11123910.16047  -8669369.66444  22228178.1334                   22228174.7274
 11  8 17 18 37  0.0000000  0  9G17G24G07G08G26G11G13G19G28
 -11585286.46546  -9010499.08643  23293985.5314                   23293985.2734
 -12333352.00046  -9600184.47343  22559776.0004                   22559774.7934
  -8584441.14547  -6687104.52746  20268580.7424                   20268578.1174
 -16762691.15647 -13056383.19945  20582604.9774                   20582602.4024
  -8591073.66845  -6670498.16842  23591384.7894                   23591384.0274
 -15245423.25447 -11872730.54744  21567469.2194                   21567466.4774
  16994881.05146  13233036.60943  23304910.2664                   23304910.7854
  12070721.41046   9400272.45343  23300953.6334                   23300949.2584
 -11126890.06247  -8671691.65244  22227611.0634                   22227608.2774
 11  8 17 18 37 30.0000000  0  9G17G24G07G08G26G11G13G19G28
 -11654714.94946  -9064599.09443  23280773.9304                   23280774.0664
 -12364210.32446  -9624229.87143  22553903.9304                   22553902.7814
  -8556770.09047  -6665542.68045  20273846.3914                   20273843.2854
 -16789814.85247 -13077518.55145  20577442.9384                   20577440.5314
  -8638182.47346  -6707206.26642  23582422.1884                   23582420.0084
 -15239775.93447 -11868330.03144  21568543.8984                   21568540.6214
  17128767.99646  13337363.85543  23330387.6804                   23330388.8284
  12194051.83246   9496374.03543  23324422.5234                   23324419.0204
 -11129788.15647  -8673949.89544  22227059.2974                   22227056.5944
 11  8 17 18 38  0.0000000  0  9G17G24G07G08G26G11G13G19G28
 -11723901.63346  -9118510.68743  23267608.7664                   23267608.4104
 -12394724.41846  -9648007.04343  22548096.1954                   22548096.5314
  -8528648.42647  -6643629.71546  20279197.9694                   20279195.1684
 -16816623.00047 -13098408.02345  20572341.8674                   20572339.3954
  -8684801.77746  -6743532.98042  23573549.9304                   23573547.7854
 -15233578.93447 -11863501.17644  21569722.3524                   21569720.0824
  17262745.87546  13441762.00043  23355883.6094                   23355884.6454
  12317574.32046   9592625.28543  23347927.7664                   23347924.4804
 -11132604.31247  -8676144.31244  22226523.5474                   22226520.5664
 11  8 17 18 38 30.0000000  0  9G17G24G07G08G26G11G13G19G28
 -11792856.55946  -9172241.70344  23254487.3444                   23254486.4224
 -12424903.40246  -9671523.03943  22542353.3674                   22542353.3914
  -8500086.71947  -6621373.85546  20284632.7584                   20284629.8324
 -16843124.93047 -13119058.88345  20567298.7344                   20567295.8554
  -8730941.13346  -6779485.69542  23564770.0864                   23564768.3164
 -15226842.18047 -11858251.75844  21571004.0314                   21571001.8284
  17396799.79746  13546219.32843  23381393.0784                   23381394.3014
  12441274.21546   9689014.77743  23371466.9614                   23371463.2154
 -11135351.07847  -8678284.62544  22226000.7194                   22225997.9884
 11  8 17 18 39  0.0000000  0  9G17G24G07G08G26G11G13G19G28
 -11861578.03546  -9225790.80144  23241410.0084                   23241409.4064
 -12454744.55146  -9694775.85243  22536675.2974                   22536674.4924
  -8471083.80547  -6598774.19546  20290151.5004                   20290149.4534
 -16869318.24647 -13139469.26245  20562314.2894                   20562311.7274
  -8776598.13746  -6815062.58642  23556081.4384                   23556080.1294
 -15219564.35247 -11852580.71144  21572389.7344                   21572386.8404
  17530926.80546  13650733.63342  23406916.2194                   23406917.9734
  12565148.95346   9785540.47343  23395039.5944                   23395034.9964
 -11138028.78547  -8680371.14544  22225491.2814                   22225488.5904
 11  8 17 18 39 30.0000000  0  9G17G24G07G08G26G11G13G19G28
 -11930062.76246  -9279155.41843  23228377.5474                   23228376.9224
 -12484243.45346  -9717761.95743  22531062.0554                   22531061.5784
  -8441636.89547  -6575828.57846  20295756.0234                   20295752.7304
 -16895199.02047 -13159636.09445  20557388.8524                   20557386.7504
  -8821769.21946  -6850260.78143  23547487.1414                   23547483.5984
 -15211743.11347 -11846486.22344  21573877.3674                   21573875.1644
  17665125.36346  13755303.66442  23432455.0084                   23432454.6994
  12689197.20746   9882201.40643  23418644.6024                   23418640.6644
 -11140636.79747  -8682403.36744  22224995.3444                   22224992.3754
 11  8 17 18 40  0.0000000  0  9G17G24G07G08G26G11G13G19G28
 -11998307.43046  -9332332.95343  23215391.2194                   23215389.8954
 -12513395.52046  -9740477.80143  22525513.6484                   22525513.5704
  -8411743.63347  -6552535.14845  20301444.8674                   20301441.1724
 -16920762.77747 -13179555.90245  20552524.6094                   20552521.8674
  -8866450.25846  -6885077.16843  23538983.2274                   23538980.7544
 -15203375.30547 -11839965.85944  21575470.5084                   21575467.3834
  17799394.13346  13859928.43442  23458005.1254                   23458005.2074
  12813417.94946   9978996.74643  23442283.8284                   23442279.2194
 -11143174.47347  -8684380.76244  22224512.6804                   22224508.8674
 11  8 17 18 40 30.0000000  0  9G17G24G07G08G26G11G13G19G28
 -12066314.25846  -9385325.20743  23202449.0474                   23202448.9064
 -12542202.27746  -9762924.55543  22520032.6254                   22520031.8444
  -8381406.47747  -6528895.82046  20307217.4144                   20307214.1134
 -16946011.52047 -13199230.23845  20547720.2114                   20547717.8164
  -8910643.14146  -6919513.14143  23530574.2424                   23530571.5084
 -15194463.88347 -11833021.87944  21577165.9774                   21577163.3674
  17933725.94946  13964602.31643  23483567.9534                   23483568.8444
  12937804.54746  10075921.28543  23465953.5944                   23465950.0044
 -11145646.78947  -8686307.24244  22224041.9144                   22224038.5274
 11  8 17 18 41  0.0000000  0  9G17G24G07G08G26G11G13G19G28
 -12134084.43446  -9438133.02343  23189553.6414                   23189552.9224
 -12570663.55146  -9785102.13743  22514616.0164                   22514616.2464
  -8350627.23047  -6504912.02045  20313074.2814                   20313071.5394
 -16970945.22747 -13218659.10545  20542975.1954                   20542972.3164
  -8954348.48045  -6953569.22742  23522257.1644                   23522254.2304
 -15185010.29747 -11825655.44544  21578964.8444                   21578962.6844
  18068115.10546  14069320.82842  23509140.7814                   23509141.9304
  13062351.66846  10172970.94143  23489654.4614                   23489649.7424
 -11148057.19147  -8688185.46944  22223583.4144                   22223580.2894
 11  8 17 18 41 30.0000000  0  9G17G24G07G08G26G11G13G19G28
 -12201618.46146  -9490756.87544  23176701.7344                   23176701.4694
 -12598778.78146  -9807010.05543  22509265.5554                   22509265.4844
  -8319407.39847  -6480584.89846  20319015.0704                   20319012.5984
 -16995563.62547 -13237842.27345  20538290.7034                   20538287.4924
  -8997566.36346  -6987245.46942  23514032.1644                   23514030.5514
 -15175015.49647 -11817867.29344  21580867.0474                   21580863.8874
  18202556.26646  14174079.93442  23534724.7274                   23534725.8244
  13187054.05146  10270141.55944  23513383.5394                   23513380.5084
 -11150408.83247  -8690017.90244  22223135.4844                   22223131.8014
 11  8 17 18 42  0.0000000  0  9G17G24G07G08G26G11G13G19G28
 -12268910.78946  -9543192.35243  23163895.6254                   23163895.3244
 -12626541.15246  -9828643.03943  22503982.6804                   22503982.3984
  -8287741.41447  -6455910.13746  20325040.9774                   20325038.2234
 -17019860.27747 -13256774.73445  20533666.9694                   20533664.3714
  -9040290.48446  -7020536.94943  23505902.9694                   23505900.8444
 -15164474.26247 -11809653.34444  21582872.7114                   21582870.0204
  18337050.53146  14278880.39543  23560318.6024                   23560318.9924
  13311913.04346  10367434.22343  23537143.3524                   23537140.5824
 -11152698.12947  -8691801.75844  22222699.8204                   22222696.4454
 11  8 17 18 42 30.0000000  0  9G17G24G07G08G26G11G13G19G28
 -12335960.90646  -9595439.09843  23151136.5084                   23151136.4924
 -12653949.12546  -9849999.84843  22498767.8674                   22498767.0044
  -8255629.47347  -6430887.85946  20331151.7274                   20331149.1054
 -17043834.01647 -13275455.57045  20529104.8834                   20529102.3834
  -9082520.20746  -7053443.22343  23497866.8674                   23497865.1094
 -15153386.84847 -11801013.80144  21584982.8984                   21584980.3014
  18471593.68846  14383718.93042  23585921.2734                   23585923.1374
  13436924.76646  10464845.89843  23560933.8364                   23560929.5704
 -11154927.36347  -8693538.81644  22222275.7814                   22222272.4614
 11  8 17 18 43  0.0000000  0  9G17G24G07G08G26G11G13G19G28
 -12402761.95746  -9647491.77043  23138424.5004                   23138425.3054
 -12680995.22346  -9871074.67643  22493620.6724                   22493620.4104
  -8223065.58247  -6405513.41846  20337348.2974                   20337345.6214
 -17067477.32447 -13293878.92245  20524605.8444                   20524603.5004
  -9124248.31246  -7085958.56642  23489926.2734                   23489924.0084
 -15141747.17647 -11791943.92244  21587197.9384                   21587195.3444
  18606187.61346  14488597.03543  23611533.9924                   23611535.2774
  13562091.35246  10562378.24243  23584752.0234                   23584747.7464
 -11157092.22747  -8695225.72344  22221864.1484                   22221860.5904
 11  8 17 18 43 30.0000000  0  9G17G24G07G08G26G11G13G19G28
 -12469319.54746  -9699354.72343  23125759.7974                   23125758.8364
 -12707683.27346  -9891870.52043  22488541.7034                   22488541.8874
  -8190055.74647  -6379791.50046  20343629.6644                   20343627.2464
 -17090794.62147 -13312048.25445  20520168.2274                   20520166.3834
  -9165479.47746  -7118086.71943  23482080.0704                   23482077.9574
 -15129561.03947 -11782448.22344  21589517.0314                   21589514.0234
  18740822.36746  14593506.89543  23637153.4454                   23637156.2504
  13687403.34446  10660023.89143  23608598.4304                   23608594.2114
 -11159200.27047  -8696868.32444  22221462.9224                   22221459.1054
 11  8 17 18 44  0.0000000  0  9G17G24G07G08G26G11G13G19G28
 -12535632.84846  -9751027.33644  23113139.9924                   23113140.1374
 -12734011.89146  -9912386.28543  22483532.0944                   22483531.4264
  -8156600.03947  -6353722.14846  20349996.7974                   20349993.6054
 -17113784.50047 -13329962.44545  20515793.7664                   20515791.4024
  -9206212.84446  -7149826.98043  23474328.6334                   23474327.5864
 -15116828.18747 -11772526.52744  21591939.7344                   21591936.7234
  18875494.51646  14698445.94142  23662781.2344                   23662784.1054
  13812856.78546  10757779.75043  23632471.8984                   23632466.8714
 -11161253.61747  -8698468.33244  22221071.2974                   22221068.3984
 11  8 17 18 44 30.0000000  0  9G17G24G07G08G26G11G13G19G28
 -12601701.07846  -9802508.98444  23100567.5554                   23100567.0354
 -12759979.12546  -9932620.44143  22478590.6334                   22478590.6374
  -8122698.22747  -6327305.17245  20356447.5784                   20356444.8094
 -17136445.16847 -13347620.11745  20511481.6724                   20511478.9064
  -9246446.99646  -7181178.24643  23466671.8054                   23466670.3054
 -15103548.75847 -11762178.91044  21594466.3444                   21594463.7344
  19010199.52346  14803410.58642  23688415.2734                   23688417.1524
  13938448.61746  10855643.47343  23656371.0004                   23656366.9344
 -11163253.53947  -8700026.70344  22220691.1884                   22220688.2344
 11  8 17 18 45  0.0000000  0  9G17G24G07G08G26G11G13G19G28
 -12667527.89346  -9853802.51744  23088041.4694                   23088041.0394
 -12785587.51246  -9952575.00844  22473717.3984                   22473716.4614
  -8088354.17647  -6300543.59846  20362983.5004                   20362980.4614
 -17158779.61747 -13365023.58645  20507230.9304                   20507228.9694
  -9286184.98446  -7212142.86343  23459110.0944                   23459108.5234
 -15089726.44947 -11751408.26644  21597096.5864                   21597094.0514
  19144929.65246  14908394.80942  23714054.4844                   23714056.0664
  14064170.87546  10953608.84043  23680294.0004                   23680291.0984
 -11165206.23047  -8701548.26644  22220319.6564                   22220316.1454
 11  8 17 18 45 30.0000000  0  9G17G24G07G08G26G11G13G19G28
 -12733110.72346  -9904905.93744  23075561.3284                   23075560.2344
 -12810833.63746  -9972247.25843  22468913.1724                   22468913.0784
  -8053566.35547  -6273436.24246  20369603.0164                   20369600.5594
 -17180784.52347 -13382170.27345  20503044.0554                   20503041.6954
  -9325424.27046  -7242718.87543  23451643.2034                   23451642.0204
 -15075359.94147 -11740213.57844  21599830.8914                   21599827.6764
  19279682.29346  15013396.54342  23739697.4844                   23739698.6024
  14190021.41046  11051674.12543  23704242.6644                   23704239.6214
 -11167111.16847  -8703032.63744  22219956.8054                   22219954.0354
 11  8 17 18 46  0.0000000  0  9G17G24G07G08G26G11G13G19G28
 -12798449.32446  -9955819.03144  23063128.3834                   23063127.2424
 -12835715.79746  -9991635.92644  22464178.3204                   22464178.3404
  -8018335.07047  -6245983.30946  20376307.2974                   20376304.4224
 -17202458.64547 -13399059.20745  20498919.9384                   20498916.9024
  -9364163.85246  -7272905.53143  23444272.1564                   23444269.4224
 -15060449.11747 -11728594.74644  21602668.3444                   21602665.2704
  19414453.64846  15118412.89542  23765342.6954                   23765345.5164
  14315996.80146  11149836.69543  23728214.8444                   23728212.2384
 -11168970.28147  -8704481.28144  22219603.7584                   22219600.6764
 11  8 17 18 46 30.0000000  0  9G17G24G07G08G26G11G13G19G28
 -12863542.27746 -10006540.69944  23050741.2814                   23050740.5744
 -12860231.77346 -10010739.23044  22459512.3134                   22459512.7624
  -7982659.54747  -6218184.21945  20383096.1094                   20383093.5274
 -17223799.70347 -13415688.60545  20494858.6564                   20494856.3054
  -9402401.98446  -7302701.47343  23436994.8984                   23436993.1604
 -15044993.05147 -11716551.06644  21605609.8134                   21605606.7584
  19549240.55545  15223441.30942  23790992.1024                   23790994.8794
  14442093.87546  11248094.09043  23752210.6884                   23752207.4924
 -11170784.86347  -8705895.22744  22219258.0554                   22219254.6564
 11  8 17 18 47  0.0000000  0  9G17G24G07G08G26G11G13G19G28
 -12928387.14146 -10057069.05944  23038401.2664                   23038401.1804
 -12884377.99646 -10029554.43444  22454917.5394                   22454917.8984
  -7946537.95747  -6190037.55146  20389969.6724                   20389967.3094
 -17244804.41047 -13432055.93445  20490861.5164                   20490859.3674
  -9440135.62546  -7332104.27043  23429814.9454                   23429813.6484
 -15028990.21547 -11704081.30544  21608654.6024                   21608651.2974
  19684040.94546  15328480.22742  23816644.8594                   23816646.4614
  14568311.07046  11346445.09443  23776229.7894                   23776226.0394
 -11172554.55547  -8707274.20344  22218921.4224                   22218918.3054
 11  8 17 18 47 30.0000000  0  9G17G24G07G08G26G11G13G19G28
 -12992981.18046 -10107401.96144  23026109.9144                   23026109.3524
 -12908151.09446 -10048078.89844  22450393.8524                   22450393.5984
  -7909968.49647  -6161541.89546  20396929.0084                   20396926.2584
 -17265469.52747 -13448158.62945  20486928.8984                   20486926.5234
  -9477362.23846  -7361111.97743  23422730.5234                   23422729.2034
 -15012439.08247 -11691184.31244  21611804.4064                   21611801.4884
  19818852.76646  15433528.13742  23842297.4694                   23842300.3874
  14694646.07846  11444887.91043  23800269.7974                   23800266.6174
 -11174279.90247  -8708618.62544  22218593.2664                   22218589.5784
 11  8 17 18 48  0.0000000  0  9G17G24G07G08G26G11G13G19G28
 -13057328.94146 -10157542.99244  23013864.0234                   23013863.6724
 -12931554.00846 -10066314.89144  22445940.9384                   22445940.6914
  -7872956.10947  -6132701.10245  20403972.0704                   20403969.5394
 -17285798.20747 -13463999.16845  20483060.7664                   20483058.1914
  -9514085.58246  -7389727.56243  23415743.3524                   23415739.5984
 -14995344.15647 -11677863.58244  21615057.3984                   21615054.4494
  19953667.14545  15538577.99642  23867953.1174                   23867955.8134
  14821091.09446  11543416.42642  23824331.5944                   23824328.9144
 -11175966.73847  -8709933.03544  22218272.0864                   22218268.0594
 11  8 17 18 48 30.0000000  0  9G17G24G07G08G26G11G13G19G28
 -13121424.03946 -10207487.12544  23001667.4844                   23001666.5744
 -12954579.28946 -10084256.64844  22441559.1024                   22441558.4534
  -7835494.64547  -6103510.37145  20411100.8134                   20411098.1174
 -17305783.29747 -13479571.97745  20479257.7664                   20479255.1134
  -9550298.75446  -7417945.59443  23408851.0474                   23408849.5084
 -14977700.25047 -11664115.07844  21618414.9614                   21618411.9694
  20088486.11345  15643631.39142  23893608.2114                   23893610.9064
  14947648.42246  11642032.50043  23848415.2424                   23848411.3204
 -11177610.90647  -8711214.21544  22217959.5084                   22217955.7974
 11  8 17 18 49  0.0000000  0  9G17G24G07G08G26G11G13G19G28
 -13185264.69146 -10257232.99244  22989519.1724                   22989517.8444
 -12977224.39546 -10101902.16443  22437249.8444                   22437249.4844
  -7797583.77747  -6073969.45745  20418315.1724                   20418312.3714
 -17325422.26647 -13494875.08245  20475520.5784                   20475517.8484
  -9585999.80946  -7445764.60543  23402057.0474                   23402056.0044
 -14959505.95347 -11649937.69944  21621877.0784                   21621873.9574
  20223306.63745  15748685.99642  23919264.1024                   23919266.3874
  15074315.07846  11740733.71143  23872519.5164                   23872514.4184
 -11179213.12547  -8712462.69744  22217654.4694                   22217651.1914
 11  8 17 18 49 30.0000000  0  9G17G24G07G08G26G11G13G19G28
 -13248853.71546 -10306782.79743  22977417.8834                   22977417.0274
 -12999491.18446 -10119252.87944  22433013.1724                   22433012.3134
  -7759226.93047  -6044081.03545  20425614.5084                   20425611.2814
 -17344716.87547 -13509909.85245  20471848.5944                   20471846.3204
  -9621191.32846  -7473186.54743  23395359.7504                   23395358.8484
 -14940765.08247 -11635334.41844  21625443.8594                   21625440.6484
  20358121.51646  15853736.19942  23944919.0784                   23944920.6914
  15201084.27746  11839514.82843  23896642.4614                   23896638.4924
 -11180778.37147  -8713682.36744  22217356.3364                   22217353.0084
 11  8 17 18 50  0.0000000  0  9G17G24G07G08G26G11G13G19G28
 -13312190.26646 -10356135.87544  22965365.2034                   22965364.7664
 -13021377.63346 -10136307.23044  22428847.4774                   22428847.5864
  -7720423.69947  -6013844.78145  20432998.4454                   20432995.4304
 -17363665.09447 -13524674.70345  20468243.3204                   20468240.7274
  -9655872.14546  -7500210.52743  23388761.0944                   23388759.6644
 -14921477.38347 -11620305.03144  21629114.1564                   21629110.6644
  20492927.34846  15958779.37542  23970572.0164                   23970573.5634
  15327953.00046  11938373.52043  23920784.5864                   23920780.1374
 -11182307.84847  -8714874.16844  22217065.5634                   22217061.8914
 11  8 17 18 50 30.0000000  0  9G17G24G07G08G26G11G13G19G28
 -13375271.16046 -10405289.74244  22953362.3524                   22953360.9734
 -13042879.63746 -10153062.00844  22424756.5234                   22424755.7624
  -7681171.77347  -5983258.89546  20440468.1804                   20440465.1174
 -17382263.28547 -13539166.80945  20464704.0634                   20464701.1684
  -9690038.62946  -7526833.71943  23382258.7274                   23382257.3284
 -14901640.93447 -11604848.04744  21632888.8754                   21632885.7584
  20627722.68845  16063814.33242  23996223.2504                   23996225.2464
  15454920.05546  12037308.80943  23944945.7114                   23944941.2154
 -11183800.71547  -8716037.43744  22216781.4224                   22216778.1334
 11  8 17 18 51  0.0000000  0  9G17G24G07G08G26G11G13G19G28
 -13438103.55546 -10454249.95744  22941405.1484                   22941404.1954
 -13064003.00046 -10169521.74243  22420736.2344                   22420735.5594
  -7641479.12947  -5952329.57845  20448021.3134                   20448018.1374
 -17400517.54347 -13553390.91045  20461230.3204                   20461227.8324
  -9723697.69546  -7553061.55942  23375854.1334                   23375851.8134
 -14881263.12547 -11588969.22344  21636766.2974                   21636763.3094
  20762496.07445  16168832.19142  24021869.4224                   24021871.6174
  15581974.45746  12136312.20743  23969123.5554                   23969120.1374
 -11185266.61347  -8717179.69544  22216502.1334                   22216498.8204
 11  8 17 18 51 30.0000000  0  9G17G24G07G08G26G11G13G19G28
 -13500682.32446 -10503012.55944  22929496.0554                   22929495.3874
 -13084741.52046 -10185681.58644  22416790.1024                   22416789.6804
  -7601340.59447  -5921052.82045  20455659.3134                   20455656.3524
 -17418421.84847 -13567342.31645  20457823.3444                   20457820.8244
  -9756843.65646  -7578889.54743  23369545.3834                   23369544.8984
 -14860339.51247 -11572665.09444  21640747.6724                   21640744.8674
  20897248.61345  16273833.80142  24047511.3834                   24047514.6414
  15709117.39545  12235384.57843  23993318.1804                   23993314.3444
 -11186702.16047  -8718298.30144  22216229.4774                   22216225.4614
 11  8 17 18 52  0.0000000  0  9G17G24G07G08G26G11G13G19G28
 -13563001.70346 -10551573.02744  22917637.8834                   22917637.2584
 -13105088.84046 -10201536.61743  22412917.2814                   22412917.2544
  -7560752.05547  -5889425.41846  20463382.7734                   20463380.3054
 -17435970.00447 -13581016.21945  20454483.8914                   20454481.5514
  -9789470.84046  -7604313.32042  23363338.6564                   23363336.6254
 -14838865.71147 -11555932.25444  21644833.9694                   21644831.6644
  21031980.91846  16378819.64142  24073152.0084                   24073154.1994
  15836349.79346  12334526.64143  24017529.6024                   24017526.0514
 -11188104.10947  -8719390.74244  22215962.5234                   22215959.5164
 11  8 17 18 52 30.0000000  0  9G17G24G07G08G26G11G13G19G28
 -13625063.62146 -10599932.89544  22905827.9384                   22905826.4264
 -13125045.68046 -10217087.35243  22409119.9924                   22409119.6374
  -7519716.07447  -5857449.35245  20471191.3754                   20471189.2464
 -17453162.43047 -13594412.91445  20451212.0704                   20451209.5664
  -9821580.71946  -7629333.95743  23357227.2344                   23357225.6054
 -14816843.98447 -11538772.45745  21649024.7424                   21649022.3094
  21166687.16045  16483785.19942  24098786.0234                   24098788.6724
  15963666.28946  12433734.22343  24041757.3204                   24041754.2544
 -11189476.41447  -8720460.05944  22215701.6094                   22215697.6684
 11  8 17 18 53  0.0000000  0  9G17G24G07G08G26G11G13G19G28
 -13686869.90646 -10648093.56244  22894065.6644                   22894065.2464
 -13144612.99646 -10232334.58644  22405396.6334                   22405396.2544
  -7478234.80947  -5825126.31245  20479085.0634                   20479082.8874
 -17469999.96547 -13607533.08245  20448008.1884                   20448005.9454
  -9853175.03946  -7653952.88743  23351215.3054                   23351213.2974
 -14794277.24247 -11521187.98444  21653319.3284                   21653316.4414
  21301361.18845  16588725.59442  24124413.2034                   24124416.5084
  16091061.13345  12533002.85243  24065999.2034                   24065996.2074
 -11190823.07047  -8721509.40244  22215444.5634                   22215441.7814
 11  8 17 18 53 30.0000000  0  9G17G24G07G08G26G11G13G19G28
 -13748411.36746 -10696047.87144  22882355.0004                   22882353.8244
 -13163780.49246 -10247270.27044  22401749.2974                   22401749.2114
  -7436299.71947  -5792449.65646  20487065.9304                   20487062.7584
 -17486472.55147 -13620368.86745  20444873.7274                   20444871.0784
  -9884244.09846  -7678162.50443  23345302.8444                   23345300.8484
 -14771157.23847 -11503172.37545  21657719.0554                   21657716.1954
  21436008.13345  16693644.89842  24150037.0474                   24150039.4414
  16218539.25845  12632336.40243  24090258.6414                   24090254.8554
 -11192136.35547  -8722532.74244  22215195.1174                   22215191.8524
 11  8 17 18 54  0.0000000  0  9G17G24G07G08G26G11G13G19G28
 -13809696.06246 -10743802.10244  22870692.7274                   22870692.0474
 -13182555.51246 -10261900.12544  22398176.4844                   22398175.5234
  -7393920.30547  -5759426.75445  20495129.9614                   20495127.4224
 -17502587.84447 -13632926.25045  20441807.5704                   20441804.4534
  -9914796.18746  -7701969.31643  23339488.4694                   23339486.9694
 -14747492.94946 -11484732.67244  21662221.7424                   21662219.3674
  21570614.75046  16798532.82442  24175650.6174                   24175653.5594
  16346088.48845  12731725.36343  24114530.5474                   24114526.7234
 -11193427.14847  -8723538.55544  22214949.0784                   22214946.0824
 11  8 17 18 54 30.0000000  0  9G17G24G07G08G26G11G13G19G28
 -13870718.71946 -10791352.12944  22859080.7814                   22859079.9574
 -13200931.29346 -10276218.90244  22394679.0784                   22394678.9694
  -7351091.65247  -5726053.81645  20503280.2274                   20503277.3204
 -17518338.81647 -13645199.75445  20438809.9304                   20438807.7624
  -9944825.05946  -7725368.40243  23333775.7114                   23333773.0354
 -14723279.77747 -11465865.25444  21666829.8364                   21666826.9884
  21705182.67246  16903390.56642  24201258.8984                   24201262.0554
  16473710.05545  12831170.62543  24138814.8524                   24138812.9884
 -11194692.03147  -8724524.16844  22214708.8444                   22214705.4304
 11  8 17 18 55  0.0000000  0  9G17G24G07G08G26G11G13G19G28
 -13931467.79346 -10838689.00044  22847520.8524                   22847519.0984
 -13218895.37146 -10290216.87144  22391260.5554                   22391261.1134
  -7307803.14547  -5692322.53545  20511517.3204                   20511514.5234
 -17533713.27347 -13657179.84845  20435884.1564                   20435881.8714
  -9974319.48446  -7748351.02043  23328161.3204                   23328161.1254
 -14698507.47347 -11446562.14544  21671543.1094                   21671540.5784
  21839719.20345  17008223.79742  24226861.0234                   24226863.8364
  16601411.91445  12930678.45742  24163115.8834                   24163113.3874
 -11195921.64147  -8725482.30944  22214474.7814                   22214471.0474
 11  8 17 18 55 30.0000000  0  9G17G24G07G08G26G11G13G19G28
 -13991957.34046 -10885823.65644  22836009.2194                   22836008.4454
 -13236460.82846 -10303904.19144  22387918.1414                   22387918.5594
  -7264069.33647  -5658244.26645  20519840.4454                   20519837.2734
 -17548724.40647 -13668876.84045  20433027.7664                   20433025.1954
 -10003293.09446  -7770927.86743  23322649.0314                   23322646.9494
 -14673190.41847 -11426834.56644  21676361.2504                   21676357.5904
  21974205.75045  17113018.13342  24252453.5084                   24252456.2664
  16729176.70345  13030235.36742  24187429.1804                   24187426.1954
 -11197131.67647  -8726425.18744  22214244.7894                   22214241.0164
 11  8 17 18 56  0.0000000  0  9G17G24G07G08G26G11G13G19G28
 -14052180.55146 -10932750.73444  22824550.0004                   22824548.6024
 -13253619.99646 -10317274.93044  22384652.7424                   22384653.5984
  -7219884.26247  -5623814.36745  20528247.5864                   20528245.1094
 -17563364.25047 -13680284.52745  20430241.7664                   20430239.0664
 -10031739.09446  -7793093.53143  23317236.1564                   23317234.2074
 -14647323.13747 -11406678.23844  21681283.1484                   21681280.2854
  22108644.96945  17217775.51642  24278037.1724                   24278039.6454
  16857006.55945  13129843.02742  24211754.2194                   24211751.5784
 -11198317.50847  -8727349.21944  22214018.5944                   22214015.4654
 11  8 17 18 56 30.0000000  0  9G17G24G07G08G26G11G13G19G28
 -14112135.31646 -10979468.66844  22813141.1484                   22813138.9264
 -13270369.99246 -10330326.84444  22381465.4224                   22381465.4964
  -7175246.93447  -5589032.07045  20536742.2974                   20536739.3794
 -17577629.79347 -13691400.54745  20427527.2034                   20427524.9804
 -10059655.23446  -7814846.35543  23311923.3914                   23311921.6764
 -14620904.21947 -11386092.05544  21686310.7664                   21686307.7774
  22243034.35245  17322494.12942  24303610.5944                   24303613.9344
  16984899.66445  13229499.87542  24236092.0314                   24236088.5124
 -11199479.34447  -8728254.53144  22213797.7274                   22213794.4344
 11  8 17 18 57  0.0000000  0  9G17G24G07G08G26G11G13G19G28
 -14171827.92246 -11025982.31644  22801780.4304                   22801780.0124
 -13286715.57446 -10343063.64844  22378355.5234                   22378354.7734
  -7130163.99647  -5553902.54745  20545320.9064                   20545318.7504
 -17591526.23447 -13702228.96145  20424882.2424                   20424880.4884
 -10087047.32046  -7836190.80543  23306709.9304                   23306709.5784
 -14593941.38347 -11365082.06244  21691441.3834                   21691438.8054
  22377363.89145  17427165.98442  24329172.4844                   24329176.4694
  17112846.04346  13329198.32042  24260440.0314                   24260435.9144
 -11200625.21947  -8729147.41844  22213579.5314                   22213576.3244
 11  8 17 18 57 30.0000000  0  9G17G24G07G08G26G11G13G19G28
 -14231255.77046 -11072289.66444  22790472.2504                   22790471.4694
 -13302653.98046 -10355483.15244  22375322.5864                   22375321.8674
  -7084634.26647  -5518424.86745  20553984.8914                   20553982.8444
 -17605050.71147 -13712767.53145  20422309.3834                   20422306.5234
 -10113913.00446  -7857125.10243  23301598.3674                   23301596.7934
 -14566433.06647 -11343647.00444  21696676.7974                   21696673.3284
  22511631.70745  17531789.83642  24354723.6024                   24354726.9344
  17240843.94946  13428936.85542  24284797.0164                   24284792.2974
 -11201754.90247  -8730027.69144  22213364.6484                   22213360.9304
 11  8 17 18 58  0.0000000  0  9G17G24G07G08G26G11G13G19G28
 -14290415.48046 -11118388.06644  22779214.1414                   22779213.3984
 -13318180.18446 -10367581.46144  22372367.2894                   22372367.1454
  -7038654.62147  -5482596.61345  20562734.9614                   20562732.0164
 -17618197.93747 -13723012.13745  20419807.3834                   20419804.5744
 -10140248.32446  -7877646.13343  23296587.4694                   23296584.9344
 -14538376.34847 -11321784.62144  21702015.2504                   21702012.8134
  22645837.33245  17636365.31342  24380262.3524                   24380265.1954
  17368893.48045  13528715.66042  24309164.5944                   24309158.9494
 -11202866.49647  -8730893.85244  22213153.3524                   22213149.5354
 11  8 17 18 58 30.0000000  0  9G17G24G07G08G26G11G13G19G28
 -14349302.25846 -11164273.78944  22768009.0864                   22768007.3714
 -13333288.51246 -10379354.15244  22369492.5164                   22369491.9734
  -6992221.16047  -5446414.72745  20571571.0704                   20571568.1804
 -17630962.20347 -13732958.32445  20417378.5004                   20417376.3324
 -10166048.44146  -7897750.13343  23291677.9304                   23291675.9184
 -14509767.67247 -11299492.14544  21707458.7344                   21707456.6254
  22779981.39845  17740892.70342  24405789.1564                   24405792.5044
  17496995.69545  13628535.45342  24333540.9774                   24333537.1174
 -11203957.05547  -8731743.64144  22212945.9844                   22212941.5394
 11  8 17 18 59  0.0000000  0  9G17G24G07G08G26G11G13G19G28
 -15983342.64146 -12437551.94944  22457060.4614                   22457059.8404
 -14923403.19946 -11618404.53144  22066903.7344                   22066903.2704
  -8520757.92247  -6637482.37946  20280700.5314                   20280697.3674
 -19218768.02047 -14970209.62145  20115229.1094                   20115226.4304
 -11766738.95646  -9145041.40943  22987075.9304                   22987074.5084
 -16056031.73047 -12504373.21544  21413214.5944                   21413212.3484
  21338639.44545  16617768.72342  24131511.6564                   24131514.5004
  16049726.24645  12500792.99242  24058133.8054                   24058131.1024
 -12780453.30547  -9960182.27044  21912948.9144                   21912945.1024
 11  8 17 18 59 30.0000000  0  9G17G24G07G08G26G11G13G19G28
 -16041688.51246 -12483016.20744  22445958.5164                   22445957.7114
 -14937678.30946 -11629527.96144  22064187.4924                   22064186.5594
  -8473424.45747  -6600599.19545  20289707.7734                   20289704.6294
 -19230769.17647 -14979561.18045  20112944.8594                   20112943.0474
 -11791473.42246  -9164315.01243  22982369.4224                   22982367.2934
 -16026327.48047 -12481227.04344  21418867.2504                   21418864.8284
  21472642.61345  16722186.31642  24157009.8054                   24157015.6994
  16177917.28945  12600682.05942  24082527.9224                   24082525.4384
 -12781512.87947  -9961007.89544  21912746.6884                   21912743.2154
 11  8 17 19  0  0.0000000  0  9G17G24G07G08G26G11G13G19G28
 -16099765.87946 -12528271.21944  22434906.0004                   22434905.2584
 -14951537.26246 -11640327.10244  22061550.1024                   22061549.8364
  -8425644.17247  -6563367.84045  20298799.6724                   20298797.2854
 -19242388.96547 -14988615.57445  20110733.6414                   20110731.3554
 -11815677.13346  -9183175.05143  22977763.7504                   22977761.3984
 -15996078.97747 -12457656.76644  21424623.5554                   21424621.1844
  21606567.30545  16826542.76242  24182496.2424                   24182501.1524
  16306144.91045  12700599.55542  24106929.2114                   24106926.3954
 -12782561.62547  -9961825.08644  21912546.8834                   21912543.6484
 11  8 17 19  0 30.0000000  0  9G17G24G07G08G26G11G13G19G28
 -16157565.71546 -12573309.98844  22423907.5004                   22423906.4694
 -14964970.11347 -11650794.21144  22058994.0004                   22058992.8054
  -8377409.17647  -6525782.18045  20307978.2274                   20307975.9774
 -19253617.60247 -14997365.17245  20108597.0944                   20108595.3094
 -11839340.68446  -9201614.18443  22973260.5394                   22973259.0664
 -15965278.15247 -12433656.12944  21430484.5234                   21430482.1644
  21740418.38745  16930841.81342  24207969.6094                   24207972.4964
  16434414.81345  12800550.04742  24131338.9384                   24131334.7854
 -12783592.36347  -9962628.25044  21912350.7034                   21912347.8444
 11  8 17 19  1  0.0000000  0  9G17G24G07G08G26G11G13G19G28
 -16215088.97746 -12618133.25444  22412960.8834                   22412959.8754
 -14977977.22346 -11660929.59044  22056518.0084                   22056517.8244
  -8328721.08247  -6487843.44145  20317243.6254                   20317240.9224
 -19264454.80547 -15005809.74645  20106535.2344                   20106532.4414
 -11862465.03146  -9219633.16443  22968860.5004                   22968858.6454
 -15933926.96547 -12409226.64144  21436450.9144                   21436448.3014
  21874190.84445  17035079.70742  24233425.5004                   24233428.8284
  16562722.30145  12900529.84442  24155755.3594                   24155751.3634
 -12784608.16047  -9963419.77344  21912157.2734                   21912153.9774
 11  8 17 19  1 30.0000000  0  9G17G24G07G08G26G11G13G19G28
 -16272323.96946 -12662731.88344  22402069.2194                   22402068.2854
 -14990545.64846 -11670723.14144  22054126.5864                   22054126.5554
  -8279568.99647  -6449543.16046  20326597.0704                   20326594.5514
 -19274887.85947 -15013939.40645  20104550.0164                   20104547.6174
 -11885038.39546  -9237222.75843  22964564.4304                   22964562.3874
 -15902015.13347 -12384360.27344  21442523.7424                   21442520.6884
  22007892.34446  17139262.21942  24258868.3834                   24258871.2894
  16691074.93845  13000544.81642  24180179.2814                   24180176.1374
 -12785599.04747  -9964191.88744  21911969.0704                   21911965.5204
 11  8 17 19  2  0.0000000  0  9G17G24G07G08G26G11G13G19G28
 -16329278.62146 -12707112.09044  22391231.3594                   22391230.3914
 -15002682.30946 -11680180.23844  22051817.0004                   22051816.6604
  -8229961.77047  -6410888.21545  20336036.8594                   20336034.5004
 -19284924.30547 -15021760.02045  20102640.0004                   20102637.1484
 -11907068.69946  -9254389.24643  22960372.2034                   22960371.0124
 -15869551.59847 -12359063.98844  21448701.5704                   21448697.6954
  22141510.75846  17243380.04342  24284295.0864                   24284299.1414
  16819461.53545  13100586.25842  24204611.6954                   24204607.1564
 -12786574.59447  -9964952.05144  21911783.9774                   21911780.2464
 11  8 17 19  2 30.0000000  0  9G17G24G07G08G26G11G13G19G28
 -16385951.87146 -12751273.02044  22380446.2034                   22380445.6294
 -15014385.33246 -11689299.44144  22049590.5314                   22049589.4224
  -8179899.49247  -6371878.68745  20345563.8364                   20345560.1844
 -19294561.58247 -15029269.58646  20100805.7194                   20100803.0124
 -11928554.80146  -9271131.66443  22956283.6414                   22956282.1374
 -15836536.47747 -12333337.93744  21454983.6414                   21454980.7974
  22275043.58646  17347431.19142  24309705.7194                   24309710.5554
  16947879.32445  13200651.95742  24229047.2664                   24229045.3874
 -12787535.56647  -9965700.84044  21911600.1954                   21911597.2504
 11  8 17 19  3  0.0000000  0  9G17G24G07G08G26G11G13G19G28
 -16442341.41446 -12795212.87544  22369716.6954                   22369714.7704
 -15025651.73446 -11698078.42244  22047446.0394                   22047446.0944
  -8129380.58247  -6332513.34845  20355177.2734                   20355174.5124
 -19303796.34447 -15036465.52345  20099048.4694                   20099046.2274
 -11949494.43746  -9287448.24243  22952299.1564                   22952297.5084
 -15802968.40247 -12307180.99244  21461371.4454                   21461368.6094
  22408488.80945  17451414.04342  24335099.5164                   24335105.3134
  17076326.97745  13300740.97742  24253491.1484                   24253488.1214
 -12788481.39847  -9966437.85244  21911420.8594                   21911417.4414
 11  8 17 19  3 30.0000000  0  9G17G24G07G08G26G11G13G19G28
 -16498442.59447 -12838928.02044  22359040.6884                   22359039.1484
 -15036475.55146 -11706512.52344  22045386.1804                   22045385.4774
  -8078400.86347  -6292788.92645  20364878.0234                   20364875.6724
 -19312622.93047 -15043343.39545  20097368.7504                   20097366.6334
 -11969882.80546  -9303335.27743  22948419.0474                   22948417.3404
 -15768844.03947 -12280590.57844  21467864.5164                   21467862.2894
  22541847.52345  17555329.47742  24360477.1804                   24360482.8204
  17204805.85945  13400854.31642  24277939.4924                   24277936.7854
 -12789409.11347  -9967160.73445  21911243.6954                   21911240.6524
 11  8 17 19  4  0.0000000  0  9G17G24G07G08G26G11G13G19G28
 -16554253.16446 -12882416.73044  22348420.4144                   22348419.3134
 -15046854.02746 -11714599.60944  22043411.8984                   22043410.9614
  -8026959.09047  -6252704.46145  20374667.4694                   20374664.5664
 -19321038.31247 -15049900.85545  20095767.6094                   20095765.3554
 -11989717.78546  -9318791.07443  22944643.7424                   22944643.0984
 -15734162.48847 -12253565.99644  21474464.2814                   21474461.6134
  22675117.781 5                  24385837.500
  17333314.30145  13500990.68442  24302394.0234                   24302390.9344
 -12790318.67647  -9967869.48044  21911070.5944                   21911067.8094
 11  8 17 19  4 30.0000000  0  9G17G24G07G08G26G11G13G19G28
 -16609773.64546 -12925679.39144  22337854.6804                   22337853.6644
 -15056786.89146 -11722339.45344  22041520.7504                   22041520.6524
  -7975057.64147  -6212261.80945  20384543.2344                   20384541.2814
 -19329042.05147 -15056137.53545  20094244.1024                   20094241.9224
 -12009000.33646  -9333816.44543  22940974.8284                   22940973.5514
 -15698925.44947 -12226108.55944  21481170.1414                   21481167.5634
  22808294.953 5                  24411180.203
  17461848.25845  13601146.99242  24326853.0864                   24326849.9344
 -12791212.30547  -9968565.81644  21910901.0234                   21910897.8714
 11  8 17 19  5  0.0000000  0  9G17G24G07G08G26G11G13G19G28
 -16665003.33646 -12968715.46544  22327344.3984                   22327343.8054
 -15066272.16446 -11729730.55544  22039716.5634                   22039715.7424
  -7922695.72747  -6171460.35545  20394508.1174                   20394505.1994
 -19336631.96147 -15062051.77045  20092800.3364                   20092798.2384
 -12027729.10946  -9348410.31243  22937411.1724                   22937409.4534
 -15663133.17247 -12198218.48044  21487981.2974                   21487978.2304
  22941375.652 5                  24436505.531
  17590405.20745  13701321.19942  24351316.7664                   24351313.6024
 -12792090.16047  -9969249.84444  21910733.6414                   21910730.4924
 11  8 17 19  5 30.0000000  0  9G17G24G07G08G26G11G13G19G28
 -16719943.97346 -13011526.29744  22316890.2034                   22316889.0164
 -15075310.85246 -11736773.62544  22037996.2894                   22037995.8594
  -7869876.21147  -6130302.32445  20404559.0554                   20404556.4964
 -19343808.94547 -15067644.23845  20091434.5004                   20091431.8674
 -12045906.23846  -9362574.30143  22933952.4694                   22933950.8444
 -15626788.94547 -12169898.29344  21494896.8984                   21494894.2384
  23074354.488 6                  24461810.961
  17718979.72345  13801509.01642  24375784.5944                   24375780.8754
 -12792956.23447  -9969924.71144  21910568.9844                   21910565.8984
 11  8 17 19  6  0.0000000  0  9G17G24G07G08G26G11G13G19G28
 -16774590.89146 -13054108.24644  22306490.7034                   22306489.9734
 -15083897.44946 -11743464.41844  22036362.2034                   22036361.4924
  -7816595.78947  -6088785.16045  20414698.9924                   20414695.2154
 -19350567.19547 -15072910.41445  20090148.3594                   20090145.9384
 -12063527.28546  -9376304.98043  22930598.9694                   22930597.3674
 -15589889.15647 -12141145.20344  21501919.6094                   21501915.6454
  23207232.156 5                  24487096.398
  17847572.79345  13901711.29342  24400254.1024                   24400250.2734
 -12793807.33647  -9970587.89844  21910407.1024                   21910403.9774
 11  8 17 19  6 30.0000000  0  9G17G24G07G08G26G11G13G19G28
 -16828946.79346 -13096463.45344  22296146.2974                   22296146.2384
 -15092033.91046 -11749804.48443  22034813.5944                   22034812.7734
  -7762857.77347  -6046911.41045  20424924.7504                   20424921.7114
 -19356908.37147 -15077851.60245  20088941.9064                   20088939.5514
 -12080594.48846  -9389604.08243  22927351.2274                   22927349.4304
 -15552437.57447 -12111962.15244  21509045.7114                   21509042.9534
  23340002.238 5                  24512363.805
  17976178.44945  14001923.42642  24424727.0944                   24424723.5664
 -12794647.89847  -9971242.88745  21910247.0634                   21910243.8094
 11  8 17 19  7  0.0000000  0  9G17G24G07G08G26G11G13G19G28
 -16883006.53546 -13138587.89144  22285860.1724                   22285858.9064
 -15099714.27046 -11755789.13744  22033352.0554                   22033351.1954
  -7708657.92647  -6004677.79745  20435238.0944                   20435235.4384
 -19362826.39847 -15082463.07045  20087815.7344                   20087812.9844
 -12097103.07446  -9402467.92243  22924209.5394                   22924208.4694
 -15514430.63747 -12082346.37144  21516278.7034                   21516275.8164
  23472666.133 5                  24537609.039
  18104798.12945  14102146.46542  24449201.8984                   24449199.3094
 -12795474.45747  -9971886.96145  21910089.3674                   21910086.2894
 11  8 17 19  7 30.0000000  0  9G17G24G07G08G26G11G13G19G28
 -16936763.79346 -13180476.62544  22275630.6954                   22275629.5354
 -15106931.36746 -11761412.80544  22031978.5084                   22031978.3634
  -7653990.77747  -5962080.05545  20445641.4774                   20445638.7544
 -19368313.90247 -15086739.05545  20086771.2424                   20086769.3054
 -12113046.92646  -9414891.68043  22921175.8204                   22921173.2274
 -15475863.23847 -12052293.84844  21523617.4774                   21523614.6644
  23605226.227 5                  24562832.492
  18233435.05545  14202382.97742  24473681.5314                   24473678.2304
 -12796282.22747  -9972516.37544  21909935.7034                   21909932.4024
 11  8 17 19  8  0.0000000  0  9G17G24G07G08G26G11G13G19G28
 -16990221.97747 -13222132.29744  22265458.0004                   22265456.3014
 -15113687.73446 -11766677.48444  22030692.4614                   22030692.4924
  -7598860.91847  -5919121.75845  20456131.9454                   20456129.0944
 -19373373.50047 -15090681.60545  20085808.5004                   20085806.0864
 -12128429.52346  -9426878.12143  22918248.0164                   22918246.8954
 -15436740.07447 -12021808.27344  21531062.1644                   21531059.4844
  23737675.223 5                  24588039.125
  18362082.21545  14302627.44942  24498161.6644                   24498159.0164
 -12797076.00047  -9973134.90644  21909785.4454                   21909782.2194
 11  8 17 19  8 30.0000000  0  8G17G24G07G08G26G11G19G28
 -17043382.91447 -13263556.35944  22255340.7734                   22255340.0984
 -15119984.44946 -11771583.96944  22029494.9614                   22029494.1954
  -7543271.32847  -5875805.22745  20466710.3674                   20466707.5904
 -19378005.87947 -15094291.26245  20084927.1564                   20084924.9384
 -12143252.93046  -9438428.81243  22915428.2114                   22915425.0514
 -15397064.37547 -11990892.13744  21538612.1094                   21538609.2544
  18490734.38345  14402875.79342  24522643.5164                   24522640.9184
 -12797859.41447  -9973745.36344  21909635.4534                   21909632.9734
 11  8 17 19  9  0.0000000  0  8G17G24G07G08G26G11G19G28
 -17096237.59847 -13304741.78544  22245283.8054                   22245282.3444
 -15125811.74646 -11776124.66844  22028385.7034                   22028385.3914
  -7487213.98447  -5832124.20745  20477377.2894                   20477374.9694
 -19382201.08647 -15097560.26245  20084128.3674                   20084126.3204
 -12157508.27046  -9449536.87543  22912714.7504                   22912712.9844
 -15356828.77347 -11959539.74244  21546268.6484                   21546266.4494
  18619397.10545  14503132.46142  24547127.5784                   24547124.9144
 -12798625.05147  -9974341.95745  21909490.7504                   21909487.2304
 11  8 17 19  9 30.0000000  0  8G17G24G07G08G26G11G19G28
 -17148777.32846 -13345681.79344  22235285.3444                   22235284.2624
 -15131160.15246 -11780292.22344  22027368.2814                   22027367.8364
  -7430681.19147  -5788072.71545  20488135.3594                   20488132.8404
 -19385949.27747 -15100480.94945  20083415.2664                   20083413.3914
 -12171187.10246  -9460195.68443  22910112.6024                   22910109.9384
 -15316025.66447 -11927745.11744  21554034.2424                   21554030.9064
  18748075.46145  14603401.21142  24571614.8524                   24571611.4734
 -12799365.98447  -9974919.30545  21909349.5234                   21909346.2624
 11  8 17 19 10  0.0000000  0  8G17G24G07G08G26G11G19G28
 -17200993.39547 -13386369.59844  22225348.8594                   22225347.6994
 -15136019.80246 -11784078.90244  22026443.2664                   22026442.4024
  -7373664.78547  -5743644.38345  20498985.4144                   20498982.1914
 -19389240.70347 -15103045.70745  20082789.0394                   20082786.4224
 -12184280.68446  -9470398.50843  22907620.5704                   22907619.1844
 -15274647.19547 -11895502.15244  21561907.4304                   21561905.3914
  18876775.29345  14703686.71142  24596105.6884                   24596102.0704
 -12800074.53947  -9975471.41445  21909214.8054                   21909210.9024
 11  8 17 19 10 30.0000000  0  8G17G24G07G08G26G11G19G28
 -17252886.76247 -13426805.94944  22215473.6024                   22215472.5274
 -15140390.91046 -11787484.93444  22025610.8594                   22025610.7464
  -7316166.84447  -5698840.82845  20509926.9844                   20509924.2544
 -19392075.03147 -15105254.27345  20082249.8594                   20082247.1054
 -12196789.92246  -9480145.95743  22905240.1174                   22905238.5274
 -15232696.05547 -11862812.96544  21569890.8524                   21569887.3204
  19005493.03915                  24620598.883
 -12800752.74647  -9975999.89545  21909085.3754                   21909082.3164
 11  8 17 19 11  0.0000000  0  8G17G24G07G08G26G11G19G28
 -17304447.33647 -13466982.97344  22205662.2344                   22205661.3554
 -15144262.90646 -11790502.04744  22024874.5084                   22024874.4804
  -7258178.41447  -5653655.07845  20520961.9454                   20520959.2504
 -19394441.30147 -15107098.13345  20081799.7114                   20081797.1414
 -12208704.95346  -9489430.41843  22902972.3364                   22902971.4184
 -15190163.32847 -11829670.57844  21577984.6724                   21577982.0434
                                  24645098.844
 -12801392.29347  -9976498.22745  21908963.3754                   21908960.8014
 11  8 17 19 11 30.0000000  0  8G17G24G07G08G26G11G19G28
 -17355673.65647 -13506899.53944  22195914.3444                   22195913.0354
 -15147633.53146 -11793128.46144  22024233.3524                   22024232.4384
  -7199699.27047  -5608086.94545  20532089.8284                   20532087.2734
 -19396337.00047 -15108575.31245  20081438.1954                   20081436.4884
 -12220025.02746  -9498251.24243  22900819.0234                   22900816.5354
 -15147049.04747 -11796075.05544  21586188.4774                   21586186.1454
                                  24669603.430
 -12801993.35547  -9976966.59045  21908849.5784                   21908845.6054
 11  8 17 19 12  0.0000000  0  7G17G24G07G08G26G11G28
 -17406574.73847 -13546562.68045  22186228.3754                   22186226.8674
 -15150511.18046 -11795370.72744  22023685.8754                   22023684.6524
  -7140739.35547  -5562144.19545  20543309.8524                   20543306.8594
 -19397770.27747 -15109692.16045  20081165.9064                   20081163.5514
 -12230759.18446  -9506615.49243  22898776.0864                   22898773.7704
 -15103364.22347 -11762034.94944  21594501.3524                   21594498.9734
 -12802566.72747  -9977413.36345  21908740.0164                   21908737.2344
 11  8 17 19 12 30.0000000  0  7G17G24G07G08G26G11G28
 -17457146.65247 -13585969.31244  22176604.3834                   22176603.1524
 -15152890.94546 -11797225.05544  22023233.1884                   22023231.4534
  -7081295.05947  -5515823.99645  20554621.6954                   20554619.0314
 -19398735.93747 -15110444.63745  20080982.0634                   20080979.8874
 -12240903.63746  -9514520.28543  22896844.8754                   22896843.8954
 -15059105.90247 -11727547.94144  21602923.3984                   21602920.8324
 -12803109.01247  -9977835.90245  21908636.7344                   21908633.8674
 11  8 17 19 13  0.0000000  0  7G17G24G07G08G26G11G28
 -17507382.67247 -13625114.22344  22167045.0004                   22167043.8134
 -15154765.34446 -11798685.59844  22022876.3204                   22022875.3444
  -7021361.59047  -5469122.63345  20566026.7584                   20566023.9534
 -19399226.66047 -15110827.02745  20080888.7274                   20080886.3954
 -12250452.02746  -9521960.57043  22895028.8914                   22895026.9384
 -15014268.75047 -11692609.92244  21611456.2974                   21611452.9614
 -12803615.50846  -9978230.56645  21908540.6564                   21908537.9144
 11  8 17 19 13 30.0000000  0  7G17G24G07G08G26G11G28
 -17557292.05947 -13664004.58644  22157547.3914                   22157546.0744
 -15156142.83246 -11799758.93044  22022614.4304                   22022612.7464
  -6960949.24647  -5422048.11745  20577523.3204                   20577520.2974
 -19399250.25047 -15110845.43045  20080884.2504                   20080882.2464
 -12259413.77746  -9528943.73043  22893323.5944                   22893321.1684
 -14968863.30547 -11657229.06644  21620096.4064                   21620093.5944
 -12804096.72746  -9978605.53144  21908448.7894                   21908445.5204
 11  8 17 19 14  0.0000000  0  7G17G24G07G08G26G11G28
 -17606878.24647 -13702643.13344  22148111.2114                   22148109.8834
 -15157026.31246 -11800447.32044  22022445.2974                   22022445.0394
  -6900062.12947  -5374603.65245  20589109.1954                   20589106.6564
 -19398809.30947 -15110501.85246  20080968.1024                   20080966.0004
 -12267792.66046  -9535472.75443  22891728.9924                   22891726.8594
 -14922894.93447 -11621409.56244  21628843.5864                   21628840.8714
 -12804557.16447  -9978964.31245  21908361.5234                   21908358.1524
 11  8 17 19 14 30.0000000  0  7G17G24G07G08G26G11G28
 -17656145.35247 -13741033.03944  22138736.1254                   22138735.1724
 -15157419.06646 -11800753.34843  22022370.7274                   22022370.0354
  -6838705.32047  -5326793.19145  20600784.3594                   20600782.7894
 -19397906.90247 -15109798.68445  20081140.4844                   20081137.4024
 -12275593.18746  -9541551.05943  22890243.9224                   22890242.9384
 -14876368.83647 -11585155.44944  21637697.7344                   21637694.4024
 -12805002.35247  -9979311.20745  21908276.9924                   21908273.5044
 11  8 17 19 15  0.0000000  0  7G17G24G07G08G26G11G28
 -17705092.00847 -13779173.24244  22129422.1414                   22129420.8204
 -15157318.95746 -11800675.30144  22022390.3444                   22022388.6174
  -6776878.97747  -5278616.85945  20612550.5164                   20612548.1294
 -19396540.44547 -15108733.92245  20081400.5004                   20081397.7234
 -12282814.01646  -9547177.68443  22888869.9304                   22888868.1454
 -14829285.35247 -11548467.03544  21646657.3834                   21646654.8634
 -12805432.01647  -9979646.00045  21908194.7974                   21908191.7544
 11  8 17 19 15 30.0000000  0  7G17G24G07G08G26G11G28
 -17753712.20347 -13817059.08644  22120169.9304                   22120168.5944
 -15156719.32046 -11800208.01644  22022504.2274                   22022503.3094
  -6714578.00047  -5230070.69145  20624405.9144                   20624403.5124
 -19394703.07847 -15107302.22345  20081749.9924                   20081747.4344
 -12289449.83646  -9552348.43443  22887607.1094                   22887606.0984
 -14781639.90247 -11511340.73444  21655723.8134                   21655721.2704
 -12805841.97347  -9979965.43745  21908116.8834                   21908113.6454
 11  8 17 19 16  0.0000000  0  7G17G24G07G08G26G11G28
 -17802000.95747 -13854686.66045  22110980.6564                   22110979.3134
 -15155614.52346 -11799347.10944  22022714.2664                   22022714.6884
  -6651798.10547  -5181151.33245  20636352.2894                   20636349.7274
 -19392388.63747 -15105498.77045  20082190.6884                   20082187.8324
 -12295495.80146  -9557059.57043  22886456.8914                   22886455.3524
 -14733428.79347 -11473773.62944  21664898.2894                   21664895.6334
 -12806228.18047  -9980266.38345  21908043.6334                   21908040.2194
 11  8 17 19 16 30.0000000  0  7G17G24G07G08G26G11G28
 -17849959.85547 -13892057.18745  22101854.6254                   22101853.2234
 -15154005.64146 -11798093.41444  22023020.7114                   22023019.7464
  -6588542.48847  -5131861.29345  20648389.1564                   20648387.1094
 -19389597.77047 -15103324.07045  20082721.2274                   20082719.4104
 -12300954.01246  -9561312.71943  22885418.4064                   22885416.6334
 -14684655.41847 -11435768.42244  21674178.9614                   21674176.7154
 -12806593.37947  -9980550.93745  21907973.7814                   21907970.9104
 11  8 17 19 17  0.0000000  0  7G17G24G07G08G26G11G28
 -17897589.14147 -13929170.88745  22092790.7194                   22092789.6254
 -15151892.28947 -11796446.61744  22023422.4924                   22023421.2194
  -6524812.24247  -5082201.40645  20660516.9774                   20660514.5474
 -19386329.85247 -15100777.65245  20083343.3754                   20083340.5274
 -12305824.92246  -9565108.25043  22884491.0944                   22884489.0664
 -14635321.52347 -11397326.42644  21683567.2344                   21683564.1214
 -12806938.98047  -9980820.23845  21907908.1174                   21907904.5164
 11  8 17 19 17 30.0000000  0  7G17G24G07G08G26G11G28
 -17944891.44147 -13966029.77745  22083789.2194                   22083788.4454
 -15149276.19147 -11794408.06644  22023920.1024                   22023920.0664
  -6460611.12547  -5032174.60245  20672734.2974                   20672731.5744
 -19382586.46547 -15097860.74645  20084055.2584                   20084052.8874
 -12310111.71146  -9568448.59843  22883675.8914                   22883674.4804
 -14585431.41047 -11358451.02044  21693061.4224                   21693058.1564
 -12807268.77347  -9981077.21545  21907845.6024                   21907842.0784
 11  8 17 19 18  0.0000000  0  7G17G24G07G08G26G11G28
 -17991865.31247 -14002632.76245  22074850.3754                   22074848.8444
 -15146154.98446 -11791975.95344  22024514.3054                   22024513.6334
  -6395938.77347  -4981780.60245  20685041.0004                   20685038.7974
 -19378364.80947 -15094571.15645  20084859.0234                   20084856.7034
 -12313812.96546  -9571332.71143  22882971.1254                   22882969.5824
 -14534984.64547 -11319141.85944  21702660.7114                   21702657.7234
 -12807582.45747  -9981321.63345  21907785.4144                   21907782.0354
 11  8 17 19 18 30.0000000  0  7G17G24G07G08G26G11G28
 -18038515.18047 -14038983.28145  22065973.4224                   22065971.7234
 -15142532.89546 -11789153.53144  22025203.0864                   22025202.1764
  -6330800.58647  -4931023.61745  20697436.4224                   20697433.8444
 -19373668.55947 -15090911.75045  20085752.5704                   20085749.7664
 -12316934.09846  -9573764.77344  22882377.6724                   22882376.0944
 -14483987.80147 -11279404.06244  21712365.0634                   21712362.7734
 -12807886.02047  -9981558.16845  21907728.0944                   21907724.6724
 11  8 17 19 19  0.0000000  0  7G17G24G07G08G26G11G28
 -18084841.67247 -14075081.79745  22057157.2274                   22057155.8524
 -15138409.77346 -11785940.67244  22025988.0634                   22025987.0554
  -6265198.52347  -4879905.17245  20709920.1884                   20709917.7774
 -19368497.18447 -15086882.11745  20086736.4614                   20086734.4694
 -12319475.72746  -9575745.27743  22881893.8364                   22881892.6884
 -14432442.78946 -11239239.11344  21722173.7114                   21722171.0984
 -12808180.85547  -9981787.91444  21907672.0084                   21907668.6024
 11  8 17 19 19 30.0000000  0  7G17G24G07G08G26G11G28
 -18130843.62147 -14110927.42245  22048403.9144                   22048402.6294
 -15133783.81647 -11782336.00844  22026868.5474                   22026867.4414
  -6199132.96947  -4828425.56245  20722492.3594                   20722489.6524
 -19362848.94947 -15082480.90645  20087811.5004                   20087809.4694
 -12321437.64546  -9577274.04343  22881520.1174                   22881519.0314
 -14380350.41447 -11198647.64544  21732086.9144                   21732084.0354
 -12808467.02747  -9982010.90245  21907617.0314                   21907613.9264
 11  8 17 19 20  0.0000000  0  7G17G24G07G08G26G11G28
 -18176519.50847 -14146518.97345  22039711.8134                   22039710.5354
 -15128652.55946 -11778337.60944  22027844.5554                   22027844.4734
  -6132603.05147  -4776584.10545  20735152.1334                   20735149.4774
 -19356720.72347 -15077705.67645  20088977.5634                   20088975.4414
 -12322818.16046  -9578349.76643  22881257.0554                   22881255.5434
 -14327710.34847 -11157629.41844  21742103.6174                   21742100.7774
 -12808743.67647  -9982226.47345  21907565.3284                   21907562.0314
 11  8 17 19 20 30.0000000  0  7G17G24G07G08G26G11G28
 -18221870.12547 -14181857.07045  22031082.2344                   22031080.6844
 -15123016.55946 -11773945.91844  22028917.4534                   22028916.4534
  -6065610.37147  -4724382.05545  20747899.9534                   20747898.3914
 -19350112.43747 -15072556.37145  20090234.9614                   20090233.0354
 -12323618.55146  -9578973.48443  22881105.2814                   22881103.8674
 -14274524.99247 -11116186.29744  21752224.2114                   21752221.8054
 -12809012.80947  -9982436.18445  21907513.6644                   21907510.5204
 11  8 17 19 21  0.0000000  0  7G17G24G07G08G26G11G28
 -18266901.41447 -14216946.34045  22022512.7114                   22022511.2664
 -15116881.18447 -11769165.07044  22030084.8054                   22030084.1254
  -5998162.30947  -4671825.17245  20760735.0554                   20760733.3054
 -19343029.34047 -15067037.10545  20091583.3754                   20091580.6294
 -12323845.42246  -9579150.27343  22881062.2734                   22881061.0634
 -14220802.07447 -11074324.30144  21762447.8444                   21762445.0044
 -12809281.56647  -9982645.60545  21907462.3444                   21907459.4804
 11  8 17 19 21 30.0000000  0  7G17G24G07G08G26G11G28
 -18311604.07847 -14251779.52745  22014005.6174                   22014004.6884
 -15110236.46947 -11763987.37144  22031349.7114                   22031348.3054
  -5930250.95347  -4618907.27745  20773658.8204                   20773656.5514
 -19335460.58647 -15061139.37945  20093023.3444                   20093021.0634
 -12323490.28146  -9578873.52743  22881130.3524                   22881128.3794
 -14166533.87547 -11032037.39844  21772774.3054                   21772771.9734
 -12809541.64847  -9982848.26245  21907413.0314                   21907409.3284
 11  8 17 19 22  0.0000000  0  7G17G24G07G08G26G11G28
 -18355986.54747 -14286363.22345  22005560.2974                   22005558.9224
 -15103090.41847 -11758419.02344  22032709.3284                   22032708.2854
  -5861885.57047  -4565635.59045  20786667.5634                   20786666.3204
 -19327414.14547 -15054869.44545  20094554.6024                   20094552.1804
 -12322561.98046  -9578150.20743  22881306.5474                   22881304.9144
 -14111730.77347 -10989333.69144  21783202.9844                   21783200.4534
 -12809802.38747  -9983051.43745  21907363.3364                   21907360.0434
 11  8 17 19 22 30.0000000  0  7G17G24G07G08G26G11G28
 -18400049.54747 -14320697.96145  21997175.4924                   21997174.0824
 -15095443.23446 -11752460.13744  22034164.6094                   22034163.5124
  -5793068.43047  -4512011.89145  20799763.5004                   20799761.4344
 -19318889.49647 -15048226.87145  20096176.4614                   20096174.5314
 -12321061.71146  -9576981.16443  22881592.3204                   22881590.4454
 -14056394.88747 -10946214.82844  21793733.7814                   21793730.1724
 -12810065.55947  -9983256.50045  21907312.8914                   21907309.8714
 11  8 17 19 23  0.0000000  0  7G17G24G07G08G26G11G28
 -18443786.58647 -14354778.74245  21988852.6484                   21988851.0634
 -15087287.90646 -11746105.32844  22035716.6254                   22035715.4534
  -5723794.25447  -4458032.06645  20812946.6254                   20812943.9344
 -19309879.47747 -15041206.09045  20097891.6174                   20097889.0514
 -12318983.57846  -9575361.82043  22881986.6954                   22881986.1134
 -14000521.62547 -10902677.22344  21804365.9064                   21804363.1644
 -12810325.91447  -9983459.37945  21907263.7734                   21907260.8404
 11  8 17 19 23 30.0000000  0  7G17G24G07G08G26G11G28
 -18487202.45347 -14388609.22745  21980590.6254                   21980588.8554
 -15078628.46547 -11739357.69944  22037364.4534                   22037363.1024
  -5654068.92647  -4403700.68445  20826214.4064                   20826212.1724
 -19300387.78147 -15033809.97745  20099697.9144                   20099695.2624
 -12316333.17646  -9573296.62543  22882491.8054                   22882489.9494
 -13944117.34047 -10858725.85244  21815098.6094                   21815096.3014
 -12810588.87547  -9983664.28545  21907213.3134                   21907210.2894
 11  8 17 19 24  0.0000000  0  7G17G24G07G08G26G11G28
 -18530300.45347 -14422192.03144  21972389.4224                   21972387.8284
 -15069467.31047 -11732219.11644  22039107.7344                   22039107.2234
  -5583896.22347  -4349020.70345  20839567.9694                   20839565.3834
 -19290416.48847 -15026040.14545  20101595.7114                   20101592.7854
 -12313113.64846  -9570787.88343  22883104.3364                   22883103.1604
 -13887186.47347 -10814364.15244  21825932.8204                   21825929.6454
 -12810858.01247  -9983874.00445  21907162.1804                   21907158.9614
 11  8 17 19 24 30.0000000  0  7G17G24G07G08G26G11G28
 -18573075.41447 -14455523.12145  21964249.2344                   21964248.0164
 -15059799.33246 -11724685.64544  22040947.0394                   22040946.0004
  -5513272.93847  -4293989.61745  20853007.6484                   20853004.5394
 -19279959.52747 -15017891.87545  20103585.1094                   20103582.7814
 -12309320.78146  -9567832.43443  22883826.1094                   22883824.4804
 -13829726.02047 -10769589.77044  21836866.7194                   21836863.8754
 -12811129.82447  -9984085.78945  21907110.8674                   21907106.9344
 11  8 17 19 25  0.0000000  0  7G17G24G07G08G26G11G28
 -18615526.89547 -14488602.14845  21956171.4304                   21956169.7814
 -15049623.43447 -11716756.35944  22042884.1884                   22042883.0124
  -5442199.43047  -4238607.70745  20866531.8834                   20866529.7584
 -19269015.35247 -15009363.96145  20105667.5474                   20105665.4964
 -12304954.70346  -9564430.30143  22884657.2504                   22884655.1684
 -13771737.39847 -10724403.84444  21847901.7814                   21847899.1024
 -12811404.53147  -9984299.84444  21907057.6804                   21907054.8134
 11  8 17 19 25 30.0000000  0  7G17G24G07G08G26G11G28
 -18657649.41847 -14521424.84845  21948155.2664                   21948153.9884
 -15038933.60246 -11708426.60544  22044917.6644                   22044916.9884
  -5370671.60547  -4182871.79345  20880143.5314                   20880140.8714
 -19257577.62947 -15000451.46145  20107843.5864                   20107841.8554
 -12300010.77046  -9560577.91043  22885597.9924                   22885596.3594
 -13713216.47747 -10678803.14544  21859038.6174                   21859035.4964
 -12811677.12947  -9984512.25445  21907006.3754                   21907003.6764
 11  8 17 19 26  0.0000000  0  7G17G24G07G08G26G11G28
 -18699442.98447 -14553991.21545  21940202.3444                   21940200.8324
 -15027729.48847 -11699696.13344  22047049.5394                   22047048.9104
  -5298690.86347  -4126782.93445  20893840.9614                   20893839.1454
 -19245645.48047 -14991153.69945  20110114.7504                   20110112.5634
 -12294489.55146  -9556275.69543  22886648.9614                   22886646.7584
 -13654165.25847 -10632789.21544  21870275.4454                   21870272.7504
 -12811948.84847  -9984723.96945  21906954.4534                   21906951.9964
 11  8 17 19 26 30.0000000  0  7G17G24G07G08G26G11G28
 -18740913.60247 -14586305.92645  21932310.7034                   21932308.9884
 -15016016.62547 -11690569.21544  22049278.9384                   22049278.3244
  -5226264.47347  -4070346.83645  20907623.0474                   20907620.3984
 -19233223.87147 -14981474.54345  20112478.6484                   20112476.3834
 -12288397.73246  -9551528.83243  22887808.2584                   22887805.6644
 -13594591.59047 -10586368.19544  21881612.3364                   21881609.1884
 -12812226.37147  -9984940.21945  21906901.4844                   21906898.8524
 11  8 17 19 27  0.0000000  0  7G17G24G07G08G26G11G28
 -18782054.69547 -14618363.86745  21924481.8594                   21924480.4534
 -15003787.59047 -11681040.07044  22051605.3284                   22051604.7114
  -5153386.64147  -4013558.96145  20921491.4144                   20921488.7734
 -19220305.10947 -14971407.99645  20114937.4144                   20114934.9024
 -12281729.16046  -9546332.54343  22889076.7974                   22889075.2974
 -13534490.38747 -10539536.09044  21893048.2584                   21893045.7704
 -12812503.69947  -9985156.30945  21906848.2424                   21906845.9344
 11  8 17 19 27 30.0000000  0  7G17G24G07G08G26G11G28
 -18822868.60547 -14650166.87545  21916714.9844                   21916714.1024
 -14991044.60547 -11671110.46944  22054030.8594                   22054030.0664
  -5080061.32447  -3956422.40245  20935445.0554                   20935442.4384
 -19206890.84447 -14960955.33645  20117489.7584                   20117487.4964
 -12274487.19946  -9540689.48043  22890454.7584                   22890453.3014
 -13473865.85546 -10492296.20344  21904584.7664                   21904581.4304
 -12812784.35547  -9985374.98845  21906795.7894                   21906791.8524
 11  8 17 19 28  0.0000000  0  7G17G24G07G08G26G11G28
 -18863354.43047 -14681714.21945  21909010.4924                   21909009.2194
 -14977786.28947 -11660779.29344  22056553.7344                   22056553.1454
  -5006288.78147  -3898937.34845  20949483.0944                   20949480.7814
 -19192979.32847 -14950115.20745  20120136.3754                   20120134.6294
 -12266671.68446  -9534599.48443  22891941.4694                   22891939.8164
 -13412718.90647 -10444649.26644  21916221.4844                   21916217.8874
 -12813067.86747  -9985595.90645  21906741.5314                   21906738.8134
 11  8 17 19 28 30.0000000  0  7G17G24G07G08G26G11G28
 -18903510.79747 -14713004.84445  21901369.2974                   21901367.6684
 -14964010.60947 -11650045.00044  22059175.0704                   22059174.2854
  -4932068.37947  -3841103.31245  20963607.4304                   20963605.2074
 -19178567.84447 -14938885.49645  20122879.3524                   20122876.8054
 -12258281.47346  -9528061.68443  22893539.4534                   22893537.0434
 -13351049.54747 -10396595.21544  21927956.5554                   21927953.3984
 -12813353.30147  -9985818.32845  21906687.5314                   21906683.9654
 11  8 17 19 29  0.0000000  0  7G17G24G07G08G26G11G28
 -18943341.44947 -14744041.68045  21893789.7034                   21893788.2194
 -14949720.96947 -11638910.20344  22061894.4534                   22061893.7664
  -4857405.45747  -3782924.46145  20977815.2194                   20977812.4144
 -19163659.29747 -14927268.47745  20125715.9694                   20125714.1174
 -12249321.14546  -9521079.63743  22895243.6644                   22895242.0234
 -13288863.85547 -10348138.84444  21939789.7814                   21939787.0784
 -12813645.46947  -9986045.98845  21906631.7424                   21906628.8634
 11  8 17 19 29 30.0000000  0  7G17G24G07G08G26G11G28
 -18982843.03147 -14774822.09045  21886272.9384                   21886271.2304
 -14934913.89547 -11627372.20344  22064711.9774                   22064710.4614
  -4782298.35947  -3724399.49645  20992107.4844                   20992105.5124
 -19148249.71147 -14915261.01645  20128648.8054                   20128646.3054
 -12239788.62146  -9513651.70743  22897057.6254                   22897056.1604
 -13226160.27747 -10299278.93444  21951721.9694                   21951718.6884
 -12813941.44147  -9986276.62145  21906575.7034                   21906572.3164
 11  8 17 19 30  0.0000000  0  7G17G24G07G08G26G11G28
 -19022016.83647 -14805347.07845  21878818.3134                   21878816.5084
 -14919590.03147 -11615431.50844  22067628.3444                   22067627.1644
  -4706749.02047  -3665529.92645  21006483.8834                   21006481.4024
 -19132339.45747 -14902863.44145  20131675.6884                   20131673.8834
 -12229685.55946  -9505779.22743  22898980.7274                   22898978.6994
 -13162941.05947 -10250017.21544  21963752.3834                   21963749.0864
 -12814243.17247  -9986511.71545  21906517.9304                   21906514.4384
 11  8 17 19 30 30.0000000  0  7G17G24G07G08G26G11G28
 -19060860.58247 -14835614.90645  21871426.9694                   21871425.2774
 -14903746.72347 -11603086.07444  22070643.0314                   22070641.8634
  -4630756.59447  -3606315.09045  21020944.8134                   21020943.0354
 -19115925.14147 -14890073.07845  20134799.9694                   20134797.7584
 -12219010.36746  -9497460.89543  22901012.0084                   22901010.1804
 -13099206.56247 -10200353.98044  21975880.4454                   21975877.7194
 -12814548.87547  -9986749.93045  21906460.7814                   21906456.4774
 11  8 17 19 31  0.0000000  0  7G17G24G07G08G26G11G28
 -19099377.48447 -14865628.03545  21864097.4304                   21864095.2664
 -14887387.00447 -11590338.21944  22073756.8444                   22073755.3244
  -4554325.62147  -3546758.54745  21035489.0784                   21035487.1374
 -19099008.70347 -14876891.46545  20138018.7504                   20138016.4844
 -12207767.09846  -9488699.93043  22903151.2114                   22903149.7584
 -13034962.05947 -10150293.34444  21988105.4534                   21988103.2814
 -12814862.44547  -9986994.26645  21906400.5784                   21906396.9844
 11  8 17 19 31 30.0000000  0  7G17G24G07G08G26G11G28
 -19137561.70747 -14895381.92645  21856830.9844                   21856829.4024
 -14870504.88346 -11577183.30944  22076968.1094                   22076967.5904
  -4477451.95347  -3486857.03145  21050117.8834                   21050115.6684
 -19081584.35947 -14863314.06645  20141334.7664                   20141332.1564
 -12195951.21946  -9479492.78543  22905400.0634                   22905398.3634
 -12970203.37547 -10099832.03944  22000428.7424                   22000426.1684
 -12815178.91447  -9987240.87145  21906340.0234                   21906336.7624
 11  8 17 19 32  0.0000000  0  7G17G24G07G08G26G11G28
 -19175415.68747 -14924878.51245  21849627.8834                   21849625.8014
 -14853101.66847 -11563622.35244  22080280.0944                   22080279.8754
  -4400138.61347  -3426612.92645  21064830.1414                   21064827.8554
 -19063652.55547 -14849341.24645  20144747.5704                   20144745.1684
 -12183565.27746  -9469841.38343  22907756.5394                   22907755.7194
 -12904933.68447 -10048972.56644  22012849.3754                   22012846.9574
 -12815500.54347  -9987491.49645  21906278.9844                   21906275.8634
 11  8 17 19 32 30.0000000  0  7G17G24G07G08G26G11G28
 -19212934.64847 -14954114.03145  21842488.2504                   21842485.9734
 -14835172.59046 -11549651.62144  22083692.0864                   22083691.0554
  -4322382.53547  -3366023.82045  21079626.0474                   21079624.6564
 -19045208.24247 -14834969.07045  20148256.4924                   20148254.8164
 -12170605.43446  -9459742.85943  22910223.1414                   22910221.6914
 -12839150.96547  -9997713.31644  22025367.3364                   22025364.8404
 -12815823.73447  -9987743.33245  21906217.3754                   21906213.9494
 11  8 17 19 33  0.0000000  0  7G17G24G07G08G26G11G28
 -19250119.16047 -14983088.94945  21835411.6414                   21835410.0594
 -14816717.73846 -11535271.20744  22087203.9534                   22087202.6524
  -4244185.12947  -3305090.82045  21094507.4924                   21094504.9224
 -19026250.74647 -14820197.02045  20151864.2734                   20151862.1994
 -12157073.26646  -9449198.32443  22912797.5704                   22912796.4064
 -12772857.24647  -9946055.90244  22037982.9774                   22037980.0354
 -12816149.06247  -9987996.83645  21906155.6024                   21906151.9844
 11  8 17 19 33 30.0000000  0  7G17G24G07G08G26G11G28
 -19286972.06247 -15011805.46545  21828399.0944                   21828396.9414
 -14797739.70346 -11520483.12544  22090815.7894                   22090814.5434
  -4165550.83647  -3243817.40245  21109470.6644                   21109468.2774
 -19006782.45747 -14805026.94145  20155569.2814                   20155566.5044
 -12142972.51246  -9438210.74643  22915481.3984                   22915479.3444
 -12706057.76647  -9894004.34444  22050694.0784                   22050691.3014
 -12816480.13347  -9988254.80145  21906092.5394                   21906089.1914
 11  8 17 19 34  0.0000000  0  7G17G24G07G08G26G11G28
 -19323491.66447 -15040262.27345  21821449.7034                   21821447.5514
 -14778236.47347 -11505285.78944  22094526.8364                   22094525.8284
  -4086479.52347  -3182203.45745  21124517.8284                   21124515.5044
 -18986800.64847 -14789456.72345  20159371.4534                   20159369.3634
 -12128302.28146  -9426779.42243  22918273.0004                   22918271.4224
 -12638752.34447  -9841558.58644  22063502.5004                   22063499.7464
 -12816815.38347  -9988516.03945  21906028.5084                   21906025.0084
 11  8 17 19 34 30.0000000  0  7G17G24G07G08G26G11G28
 -20935102.63747 -16296062.99645  21514770.4144                   21514768.3984
 -16333630.73846 -12717281.30144  21798545.3204                   21798543.8164
  -5582393.33247  -4347850.62945  20839854.5164                   20839852.8484
 -20541727.39547 -16001087.97345  19863478.5314                   19863476.1914
 -13688486.63746 -10642507.52043  22621380.0784                   22621378.8134
 -14146364.35547 -11016321.21144  21776613.0704                   21776609.8984
 -14392579.17647 -11216383.92645  21606171.2584                   21606167.8524
 11  8 17 19 35  0.0000000  0  7G17G24G07G08G26G11G28
 -20970957.40247 -16324001.74245  21507946.7894                   21507944.7814
 -16313078.28146 -12701266.40244  21802456.3054                   21802455.4454
  -5502453.15647  -4285559.63745  20855066.6804                   20855064.7464
 -20520717.72747 -15984716.82045  19867476.7424                   19867474.5744
 -13672681.96546 -10630192.21943  22624387.0634                   22624385.9344
 -14078054.82047 -10963093.01244  21789612.7504                   21789609.3164
 -14392926.29747 -11216654.40245  21606104.4614                   21606101.3874
 11  8 17 19 35 30.0000000  0  7G17G24G07G08G26G11G28
 -21006475.63347 -16351678.27045  21501187.9534                   21501186.2854
 -16291996.65246 -12684839.13744  21806467.3984                   21806466.4614
  -5422076.35947  -4222928.43445  20870362.0704                   20870359.4734
 -20499188.58647 -15967940.87945  19871573.5634                   19871571.5204
 -13656307.35246 -10617432.79343  22627503.6254                   22627501.9144
 -14009241.67647 -10909472.39144  21802706.4844                   21802703.9964
 -14393275.56647 -11216926.56245  21606037.1024                   21606034.5434
 11  8 17 19 36  0.0000000  0  7G17G24G07G08G26G11G28
 -21041660.47347 -16379095.00045  21494493.1884                   21494491.1844
 -16270388.98046 -12668001.98444  21810578.9384                   21810578.9144
  -5341267.50847  -4159960.54345  20885739.0944                   20885737.8554
 -20477142.43747 -15950762.09045  19875768.9304                   19875766.7154
 -13639366.71146 -10604232.30543  22630727.6094                   22630725.4964
 -13939929.78147 -10855463.12944  21815896.1644                   21815893.4494
 -14393630.64847 -11217203.23845  21605970.8674                   21605967.3794
 11  8 17 19 36 30.0000000  0  7G17G24G07G08G26G11G28
 -21076501.37947 -16406243.71545  21487862.3834                   21487860.8914
 -16248244.36746 -12650746.43444  21814793.2974                   21814792.3714
  -5260017.60547  -4096648.98045  20901200.9614                   20901199.1094
 -20454567.93047 -15933171.58245  19880064.8204                   19880062.3674
 -13621850.86346 -10590583.65643  22634060.6334                   22634059.1174
 -13870111.25847 -10801059.09844  21829181.6954                   21829179.8484
 -14393981.63347 -11217476.73045  21605904.1024                   21605900.3594
 11  8 17 19 37  0.0000000  0  7G17G24G07G08G26G11G28
 -21110995.72347 -16433122.39545  21481298.5394                   21481297.0164
 -16225560.01246 -12633070.29744  21819109.8754                   21819109.1254
  -5178325.39847  -4032992.78145  20916746.4384                   20916744.3594
 -20431461.98447 -15915166.96945  19884461.6724                   19884459.4804
 -13603758.18046 -10576485.48043  22637503.4304                   22637501.6484
 -13799785.37147 -10746259.70344  21842565.6804                   21842561.5784
 -14394326.13747 -11217745.16845  21605838.3594                   21605834.9884
 11  8 17 19 37 30.0000000  0  7G17G24G07G08G26G11G28
 -21145144.00847 -16459731.39845  21474800.4844                   21474798.5394
 -16202335.55546 -12614973.32444  21823528.8834                   21823529.0004
  -5096191.85947  -3968992.66845  20932376.0704                   20932373.4694
 -20407823.45347 -15896747.34845  19888959.8754                   19888958.0164
 -13585089.12146 -10561938.20743  22641056.1724                   22641054.3164
 -13728953.57447 -10691066.12144  21856044.1724                   21856040.7934
 -14394664.13347 -11218008.53945  21605773.8984                   21605770.1214
 11  8 17 19 38  0.0000000  0  7G17G24G07G08G26G11G28
 -21178941.25447 -16486066.87145  21468368.8204                   21468367.1914
 -16178566.07446 -12596451.63744  21828052.3444                   21828051.5084
  -5013613.96547  -3904646.29745  20948090.5784                   20948087.9804
 -20383646.97347 -15877908.56245  19893560.7504                   19893558.1484
 -13565840.41046 -10546939.23043  22644718.4534                   22644717.5204
 -13657613.21947 -10635476.22744  21869619.5394                   21869616.2854
 -14394991.41847 -11218263.56645  21605711.5084                   21605707.8484
 11  8 17 19 38 30.0000000  0  7G17G24G07G08G26G11G28
 -21212374.23047 -16512118.50045  21462007.0704                   21462004.9384
 -16154238.47746 -12577495.05944  21832682.0234                   21832680.9804
  -4930579.88347  -3839944.47345  20963890.6644                   20963888.7584
 -20358918.48447 -15858639.61745  19898266.1644                   19898263.8954
 -13546000.08646 -10531479.28143  22648494.2734                   22648492.9184
 -13585753.26247 -10579481.46944  21883294.0474                   21883290.8914
 -14395295.07047 -11218500.16845  21605653.6564                   21605650.6524
 11  8 17 19 39  0.0000000  0  7G17G24G07G08G26G11G28
 -21245433.94547 -16537879.26645  21455716.1954                   21455713.6564
 -16129343.37146 -12558096.26644  21837418.9844                   21837418.8714
  -4847081.75847  -3774881.04745  20979780.1564                   20979778.4844
 -20333628.28547 -15838932.98445  19903079.0864                   19903076.9964
 -13525559.75846 -10515551.75043  22652383.8524                   22652382.5354
 -13513366.28946 -10523076.05544  21897068.1484                   21897065.7814
 -14395566.32847 -11218711.52745  21605602.2194                   21605598.8444
 11  8 17 19 39 30.0000000  0  7G17G24G07G08G26G11G28
 -21278123.01247 -16563351.20745  21449494.6334                   21449493.1564
 -16103883.20346 -12538257.18044  21842263.7194                   21842263.3244
  -4763123.49647  -3709459.08245  20995756.5554                   20995754.7194
 -20307778.14547 -15818790.03945  19907997.9694                   19907995.9924
 -13504523.25046 -10499159.70743  22656387.0864                   22656385.7774
 -13440456.90646 -10466263.52344  21910942.5944                   21910939.4494
 -14395807.65647 -11218899.57445  21605555.7734                   21605552.9264
 11  8 17 19 40  0.0000000  0  7G17G24G07G08G26G11G28
 -21310441.33247 -16588534.27045  21443345.6024                   21443343.2424
 -16077857.62546 -12517977.50444  21847216.3524                   21847215.6994
  -4678706.54747  -3643679.69145  21011821.0314                   21011818.7154
 -20281367.17647 -15798210.07845  19913023.8134                   19913022.0204
 -13482891.30946 -10482303.67243  22660503.4064                   22660502.0664
 -13367026.94147 -10409045.37144  21924916.7344                   21924913.2464
 -14396019.18847 -11219064.40245  21605515.7894                   21605512.7814
 11  8 17 19 40 30.0000000  0  7G17G24G07G08G26G11G28
 -21342381.58246 -16613422.72345  21437266.8444                   21437264.8794
 -16051259.32446 -12497251.53944  21852278.1174                   21852277.3524
  -4593824.97747  -3577538.25845  21027973.2504                   21027971.1254
 -20254387.42647 -15777186.93045  19918157.8204                   19918155.8524
 -13460657.98446 -10464979.03143  22664734.3444                   22664733.1804
 -13293071.20746 -10351417.53944  21938989.6414                   21938985.8874
 -14396194.12947 -11219200.72745  21605482.6644                   21605479.6484
 11  8 17 19 41  0.0000000  0  7G17G24G07G08G26G11G28
 -21373932.52047 -16638007.82045  21431263.1804                   21431261.1564
 -16024076.79346 -12476070.34844  21857451.4064                   21857449.9774
  -4508469.05147  -3511027.19945  21044215.9694                   21044213.1644
 -20226826.75847 -15755711.10245  19923402.5394                   19923400.5824
 -13437812.78146 -10447177.60943  22669081.6334                   22669080.4144
 -13218580.38747 -10293372.73444  21953164.5864                   21953162.0514
 -14396320.93847 -11219299.53945  21605458.8444                   21605455.2384
 11  8 17 19 41 30.0000000  0  7G17G24G07G08G26G11G28
 -21405094.95747 -16662290.19945  21425332.9384                   21425331.7384
 -15996310.53946 -12454434.31644  21862734.5004                   21862733.3714
  -4422640.57447  -3444147.92645  21060548.6884                   21060546.4924
 -20198684.89147 -15733782.39545  19928757.3284                   19928755.6764
 -13414357.56346 -10428900.85943  22673545.7194                   22673543.9304
 -13143557.12947 -10234913.07844  21967441.3914                   21967438.6914
 -14396400.41847 -11219361.45745  21605442.3524                   21605439.5904
 11  8 17 19 42  0.0000000  0  7G17G24G07G08G26G11G28
 -21435865.34447 -16686267.07845  21419477.3364                   21419475.7584
 -15967956.89546 -12432340.54344  21868129.9694                   21868129.4534
  -4336337.74247  -3376899.00845  21076971.6564                   21076969.3484
 -20169957.64847 -15711397.55145  19934224.4844                   19934221.7464
 -13390290.02746 -10410146.96543  22678124.9774                   22678123.5514
 -13067999.78947 -10176037.22744  21981819.1644                   21981816.2304
 -14396429.31347 -11219383.98045  21605438.1254                   21605434.7114
 11  8 17 19 42 30.0000000  0  7G17G24G07G08G26G11G28
 -21466233.21147 -16709930.28945  21413698.4064                   21413696.6804
 -15939005.76646 -12409781.21544  21873639.6174                   21873638.4264
  -4249550.98847  -3309273.02745  21093487.1334                   21093484.4844
 -20140634.29347 -15688548.20345  19939804.5944                   19939802.2234
 -13365601.03946 -10390908.82843  22682823.6334                   22682822.5514
 -12991900.23047 -10116738.87144  21996300.4224                   21996297.2854
 -14396397.40247 -11219359.09845  21605445.0944                   21605441.6884
 11  8 17 19 43  0.0000000  0  7G17G24G07G08G26G11G28
 -21496199.78547 -16733280.83245  21407995.7424                   21407993.7974
 -15909458.00446 -12386756.96544  21879262.9614                   21879260.8794
  -4162283.34447  -3241272.31645  21110093.4144                   21110091.3794
 -20110715.20347 -15665234.64845  19945497.3674                   19945495.5784
 -13340292.66046 -10371188.05543  22687639.5314                   22687638.0984
 -12915261.02347 -10057020.02044  22010884.5084                   22010881.1954
 -14396305.55547 -11219287.52745  21605460.9694                   21605457.9804
 11  8 17 19 43 30.0000000  0  7G17G24G07G08G26G11G28
 -21525762.37947 -16756316.57445  21402370.8674                   21402369.1024
 -15879310.72347 -12363265.57444  21884999.3204                   21884997.5904
  -4074533.44947  -3172895.83245  21126791.7194                   21126789.4064
 -20080196.96147 -15641454.20745  19951305.6884                   19951303.2304
 -13314363.52046 -10350983.55543  22692573.0234                   22692571.7424
 -12838081.89547  -9996880.43044  22025571.0944                   22025567.7734
 -14396151.29747 -11219167.30945  21605490.8834                   21605487.0314
 11  8 17 19 44  0.0000000  0  7G17G24G07G08G26G11G28
 -21554921.75847 -16779038.12945  21396821.0394                   21396820.1884
 -15848564.66446 -12339307.60244  21890849.8204                   21890848.9654
  -3986303.14147  -3104144.99245  21143581.5164                   21143579.3594
 -20049079.59447 -15617206.93445  19957226.2424                   19957224.6484
 -13287815.34046 -10330296.69543  22697625.9534                   22697624.6334
 -12760365.17247  -9936321.96944  22040360.0164                   22040357.6564
 -14395935.20747 -11218998.93045  21605532.2344                   21605528.8794
 11  8 17 19 44 30.0000000  0  7G17G24G07G08G26G11G28
 -21583677.05547 -16801444.81245  21391349.7894                   21391347.6054
 -15817218.97747 -12314882.37944  21896814.7664                   21896813.6884
  -3897593.38747  -3035020.56645  21160461.9144                   21160460.3364
 -20017361.41847 -15592491.49245  19963262.6644                   19963260.1454
 -13260648.44146 -10309127.72343  22702794.7424                   22702793.9104
 -12682112.50047  -9875345.85544  22055250.7194                   22055248.3634
 -14395656.68447 -11218781.88745  21605584.8834                   21605581.6484
 11  8 17 19 45  0.0000000  0  7G17G24G07G08G26G11G28
 -21612025.84047 -16823534.73045  21385955.0004                   21385953.6024
 -15785271.24247 -12289988.01644  21902894.4774                   21902893.1054
  -3808403.06647  -2965521.66845  21177434.4614                   21177432.7814
 -19985039.39547 -15567305.52045  19969413.0474                   19969411.1134
 -13232861.60246 -10287475.68443  22708083.0944                   22708081.2704
 -12603323.02047  -9813951.46144  22070244.5234                   22070241.7384
 -14395312.78547 -11218513.90645  21605650.7734                   21605646.9614
 11  8 17 19 45 30.0000000  0  7G17G24G07G08G26G11G28
 -21639973.33247 -16845311.95745  21380636.0944                   21380635.3554
 -15752726.14146 -12264628.18044  21909086.7504                   21909086.2624
  -3718738.19147  -2895652.99645  21194498.1414                   21194495.7034
 -19952117.79347 -15541652.34445  19975677.9534                   19975675.9264
 -13204460.92246 -10265345.31243  22713487.5944                   22713485.9654
 -12524003.75447  -9752144.24644  22085338.3754                   22085335.3794
 -14394908.37547 -11218198.76645  21605726.9614                   21605724.4454
 11  8 17 19 46  0.0000000  0  7G17G24G07G08G26G11G28
 -21667523.00047 -16866779.18445  21375394.4304                   21375392.4844
 -15719587.75046 -12238806.04344  21915393.2114                   21915391.9304
  -3628604.14547  -2825418.73445  21211649.3054                   21211647.6334
 -19918599.86347 -15515534.48445  19982056.0554                   19982053.9344
 -13175451.57446 -10242740.66043  22719007.9454                   22719006.4414
 -12444160.70347  -9689928.88344  22100531.5864                   22100528.4264
 -14394447.37947 -11217839.54345  21605815.1254                   21605811.7704
 11  8 17 19 46 30.0000000  0  7G17G24G07G08G26G11G28
 -21694679.62947 -16887940.15645  21370226.4694                   21370224.5594
 -15685860.77046 -12212525.26244  21921811.0314                   21921810.1134
  -3538007.34047  -2754823.88745  21228889.5944                   21228887.8594
 -19884489.46947 -15488954.97745  19988546.9844                   19988545.1884
 -13145839.60946 -10219666.43443  22724642.3984                   22724641.4304
 -12363800.50046  -9627310.56244  22115824.0004                   22115820.7114
 -14393934.45747 -11217439.85945  21605913.0084                   21605909.1954
 11  8 17 19 47  0.0000000  0  7G17G24G07G08G26G11G28
 -21721445.97747 -16908796.99645  21365133.1254                   21365131.3134
 -15651548.12946 -12185788.12144  21928340.6884                   21928339.4224
  -3446951.95747  -2683871.68845  21246216.2114                   21246215.1134
 -19849789.43047 -15461916.00445  19995150.5394                   19995148.4454
 -13115628.92246 -10196125.68443  22730391.7814                   22730390.8244
 -12282928.03546  -9564293.07444  22131214.0634                   22131210.6764
 -14393371.90247 -11217001.50045  21606019.9064                   21606016.7734
 11  8 17 19 47 30.0000000  0  7G17G24G07G08G26G11G28
 -21747824.62947 -16929351.74645  21360113.6564                   21360111.4384
 -15616651.96146 -12158596.29344  21934981.6094                   21934980.0314
  -3355441.45747  -2612564.87545  21263630.3284                   21263629.0044
 -19814500.94947 -15434418.50445  20001865.6954                   20001863.8484
 -13084822.93446 -10172121.03943  22736253.8284                   22736252.6454
 -12201547.29347  -9500879.51644  22146699.6724                   22146696.5984
 -14392762.41847 -11216526.57845  21606136.1174                   21606131.9964
 11  8 17 19 48  0.0000000  0  7G17G24G07G08G26G11G28
 -21773820.96547 -16949608.59445  21355166.1414                   21355164.1334
 -15581177.57446 -12130953.89844  21941732.2814                   21941730.9654
  -3263482.55947  -2540908.64145  21281129.2424                   21281128.2894
 -19778628.66447 -15406466.09845  20008691.9614                   20008689.9144
 -13053428.28146 -10147657.71143  22742228.1334                   22742226.8634
 -12119665.89146  -9437075.83244  22162281.2344                   22162278.2234
 -14392110.72347 -11216018.74645  21606260.1414                   21606256.3874
 11  8 17 19 48 30.0000000  0  7G17G24G07G08G26G11G28
 -21799436.54347 -16969568.72745  21350291.8364                   21350290.0784
 -15545126.96947 -12102862.48044  21948592.7894                   21948591.3444
  -3171078.93847  -2468905.89145  21298713.7664                   21298711.6724
 -19742173.78147 -15378059.71145  20015628.8364                   20015627.2974
 -13021448.06646 -10122738.11343  22748313.6174                   22748312.7154
 -12037287.61747  -9372884.98844  22177957.1254                   22177954.7464
 -14391418.38347 -11215479.25445  21606391.0084                   21606387.9734
 11  8 17 19 49  0.0000000  0  7G17G24G07G08G26G11G28
 -21824674.55947 -16989234.67245  21345489.0164                   21345487.1764
 -15508503.44547 -12074324.65244  21955561.3204                   21955560.4494
  -3078235.02747  -2396560.04345  21316381.2424                   21316379.5234
 -19705139.24247 -15349201.65245  20022676.1334                   20022674.8284
 -12988887.10246 -10097365.97343  22754509.4844                   22754509.0594
 -11954417.51646  -9308310.88344  22193726.8754                   22193724.2504
 -14390688.46947 -11214910.49245  21606530.0084                   21606526.9024
 11  8 17 19 49 30.0000000  0  7G17G24G07G08G26G11G28
 -21849538.71147 -17008609.30145  21340757.7034                   21340756.0904
 -15471310.52347 -12045343.13344  21962638.2814                   21962637.2664
  -2984955.66847  -2323874.88745  21334132.4694                   21334130.3524
 -19667527.96547 -15319894.18045  20029833.5704                   20029832.0704
 -12955750.02046 -10071544.90243  22760815.9774                   22760814.3094
 -11871061.50046  -9243358.16444  22209588.7664                   22209586.2424
 -14389923.93447 -11214314.75045  21606675.8754                   21606672.5784
 11  8 17 19 50  0.0000000  0  7G17G24G07G08G26G11G28
 -21874034.04347 -17027696.52345  21336096.3594                   21336094.7234
 -15433553.50447 -12015922.07044  21969823.4454                   21969822.3594
  -2891247.49247  -2250855.58645  21351963.8204                   21351962.3134
 -19629344.23447 -15290140.66045  20037099.7664                   20037097.6884
 -12922043.17246 -10045279.85543  22767229.8754                   22767228.9024
 -11787226.39846  -9178032.13344  22225541.9224                   22225539.6994
 -14389130.11747 -11213696.18445  21606827.1954                   21606823.6454
 11  8 17 19 50 30.0000000  0  7G17G24G07G08G26G11G28
 -21898157.62947 -17046494.08245  21331505.8674                   21331503.5704
 -15395229.35947 -11986059.09044  21977116.4304                   21977114.8594
  -2797108.77047  -2177500.80145  21369877.9924                   21369876.4574
 -19590584.21947 -15259938.07045  20044475.7114                   20044473.5204
 -12887764.76646 -10018569.45343  22773753.1024                   22773752.1524
 -11702910.90246  -9112331.75444  22241587.4144                   22241584.5594
 -14388303.42647 -11213052.00845  21606984.6174                   21606980.7544
 11  8 17 19 51  0.0000000  0  7G17G24G07G08G26G11G28
 -21921915.25447 -17065006.48045  21326985.0554                   21326982.7734
 -15356343.87947 -11955758.68444  21984515.5314                   21984515.3714
  -2702547.32047  -2103816.62545  21387872.9384                   21387871.1094
 -19551253.72747 -15229290.95345  20051960.1254                   20051957.9534
 -12852922.19546  -9991419.43743  22780384.0784                   22780382.6844
 -11618123.32846  -9046263.53544  22257721.2974                   22257719.3754
 -14387449.17647 -11212386.35945  21607146.6334                   21607143.3054
 11  8 17 19 51 30.0000000  0  7G17G24G07G08G26G11G28
 -21945309.62147 -17083235.82845  21322533.0474                   21322530.8014
 -15316899.97347 -11925023.15644  21992021.8054                   21992020.8054
  -2607566.77347  -2029805.86745  21405946.8204                   21405945.0354
 -19511354.53147 -15198200.69545  20059552.5394                   20059550.3284
 -12817519.39146  -9963832.87543  22787120.7034                   22787119.0274
 -11532868.37946  -8979831.12144  22273944.5784                   22273942.1294
 -14386569.52747 -11211700.92245  21607314.1334                   21607310.8674
 11  8 17 19 52  0.0000000  0  7G17G24G07G08G26G11G28
 -21968342.24247 -17101183.28945  21318149.8984                   21318147.6564
 -15276899.13347 -11893853.65644  21999634.0634                   21999633.0354
  -2512169.96947  -1955470.76645  21424100.4304                   21424098.9804
 -19470887.71547 -15166668.13745  20067253.5864                   20067250.8554
 -12781558.94546  -9935811.78543  22793963.1414                   22793962.4024
 -11447149.17646  -8913036.95744  22290256.8204                   22290254.3134
 -14385665.68847 -11210996.62945  21607486.5554                   21607483.0124
 11  8 17 19 52 30.0000000  0  7G17G24G07G08G26G11G28
 -21991011.46547 -17118847.58645  21313836.0634                   21313834.3324
 -15236340.05547 -11862249.16044  22007351.8594                   22007350.8874
  -2416357.06647  -1880811.42645  21442333.2584                   21442331.5164
 -19429851.60247 -15134691.96545  20075062.1724                   20075060.3364
 -12745041.04346  -9907356.33243  22800912.8444                   22800911.2854
 -11360966.28546  -8845881.50043  22306656.4844                   22306654.0824
 -14384735.97747 -11210272.16045  21607662.2034                   21607659.8404
 11  8 17 19 53  0.0000000  0  7G17G24G07G08G26G11G28
 -22013325.20747 -17136234.86745  21309589.6564                   21309588.1174
 -15195230.62547 -11830215.82844  22015175.2114                   22015174.1764
  -2320137.03547  -1805834.84845  21460642.7974                   21460641.4184
 -19388252.98447 -15102277.48445  20082978.5554                   20082976.6884
 -12707974.61346  -9878473.41443  22807966.1954                   22807964.7774
 -11274329.90646  -8778372.64544  22323143.8134                   22323140.2304
 -14383787.31347 -11209532.94945  21607843.1884                   21607839.9344
 11  8 17 19 53 30.0000000  0  7G17G24G07G08G26G11G28
 -22035277.19147 -17153340.28145  21305412.1724                   21305410.3634
 -15153564.74246 -11797748.90644  22023103.2814                   22023102.4924
  -2223505.32047  -1730537.46145  21479031.5234                   21479029.7074
 -19346085.67247 -15069419.86345  20091002.4924                   20091000.5474
 -12670354.79746  -9849159.32043  22815125.0394                   22815124.3204
 -11187235.49246  -8710506.88344  22339717.5394                   22339713.9574
 -14382813.30947 -11208773.98445  21608029.0164                   21608025.6054
 11  8 17 19 54  0.0000000  0  7G17G24G07G08G26G11G28
 -22056868.85547 -17170164.91845  21301303.7274                   21301301.5864
 -15111344.40246 -11764849.92244  22031137.9144                   22031137.0904
  -2126464.87947  -1654921.60545  21497497.8754                   21497495.9494
 -19303350.46947 -15036119.72745  20099134.5084                   20099132.5274
 -12632184.84846  -9819416.54343  22822388.5314                   22822388.1374
 -11099686.84446  -8642287.18443  22356376.7504                   22356374.1604
 -14381815.24247 -11207996.26645  21608219.5394                   21608215.3674
 11  8 17 19 54 30.0000000  0  7G17G24G07G08G26G11G28
 -22078097.49647 -17186706.68745  21297263.9144                   21297262.2774
 -15068566.78946 -11731516.71144  22039277.9304                   22039277.5594
  -2029014.33247  -1578986.17645  21516041.5394                   21516040.0124
 -19260044.01647 -15002374.46945  20107375.3204                   20107373.6454
 -12593463.06346  -9789243.78943  22829756.9534                   22829755.9774
 -11011682.67646  -8573712.52344  22373123.6644                   22373120.7704
 -14380789.03947 -11207196.63345  21608413.9614                   21608410.8364
